Missouri River (Missouri), Boonville (06909000)

StateMissouriLatestUnknown (93800 cfs)
RiverMissouri RiverRatingObservedEstimated
Updated2020-08-11 19:30 (1 hour ago)Flood - The river is flooding. Obstacles can be treacherous or deadly. The river should be avoided at this stage for casual trips and definitely for the inexperienced. Trips should be attempted only with protective gear and equipment.Flood(none)(none)
Discharge93800 cfs (median: 60700 cfs)High - The river is high and potentially dangerous, especially for the young and / or inexperienced. Normal stream obstacles are sometimes difficult to navigate. Extended distances can be attempted, but canoe travel may not be advisable.High(none)(none)
Height14.25 feetGood - Conditions are ideal for a canoe or kayak. Boats typically will drag on fewer than one-quarter of riffles, if at all, and portages are unnecessary or rare. Normal float lengths can be attempted without a problem.Good(none)(none)
TrendRising (falling over 24 hours)Low - River is low but can still be floated. Some riffles are okay but most come with significant dragging and might need a portage. Float lengths should be reduced to accommodate low flow, dragging, and portages.Low(none)(none)
USGSExternal icon USGS Site (External icon Google Maps)Poor - River is too low to float comfortably. Most or all riffles will drag or must be portaged and some obstacles (such as slick shelf rock) cause undue problems. Avoid the river at this stage for casual paddling trips.Poor(none)(none)

Trending Data

Plot Image

Trips for Missouri River (Missouri), Boonville (06909000)

DateStartEndDistanceConditionDischargeHeightFishingDetails

A total of 0 rows are displayed.

Condition Descriptions

Fishing Conditions

Fish Species

Notes

Classic Trip List

The classic River Trips application is still available for use. It is updated with the new system using a data retrofit. It is no longer maintained. The original River Trips application is no longer updated (as of 1 Dec 2016) but can be checked for errors or for the condition of the data before it was converted to the new system.

Gauge Data Table

ObservationHeightDischargeMaximum
Discharge
Minimum
Discharge
Mean
Discharge
P05P10P20P25P50
(Median)
P75P80P90P95
2020-08-11 19:30 14.25 93800 204000 (2011) 32700 (2002) 68200 35100 38500 42700 44600 60700 74400 83300 116000 141000
2020-08-11 18:30 14.20 93400 204000 (2011) 32700 (2002) 68200 35100 38500 42700 44600 60700 74400 83300 116000 141000
2020-08-11 17:30 14.30 94300 204000 (2011) 32700 (2002) 68200 35100 38500 42700 44600 60700 74400 83300 116000 141000
2020-08-11 16:30 14.36 94900 204000 (2011) 32700 (2002) 68200 35100 38500 42700 44600 60700 74400 83300 116000 141000
2020-08-11 15:30 14.33 94600 204000 (2011) 32700 (2002) 68200 35100 38500 42700 44600 60700 74400 83300 116000 141000
2020-08-11 14:30 14.44 95600 204000 (2011) 32700 (2002) 68200 35100 38500 42700 44600 60700 74400 83300 116000 141000
2020-08-11 13:30 14.48 96000 204000 (2011) 32700 (2002) 68200 35100 38500 42700 44600 60700 74400 83300 116000 141000
2020-08-11 12:30 14.52 96400 204000 (2011) 32700 (2002) 68200 35100 38500 42700 44600 60700 74400 83300 116000 141000
2020-08-11 11:30 14.58 96900 204000 (2011) 32700 (2002) 68200 35100 38500 42700 44600 60700 74400 83300 116000 141000
2020-08-11 10:30 14.61 97200 204000 (2011) 32700 (2002) 68200 35100 38500 42700 44600 60700 74400 83300 116000 141000
2020-08-11 09:30 14.63 97400 204000 (2011) 32700 (2002) 68200 35100 38500 42700 44600 60700 74400 83300 116000 141000
2020-08-11 08:30 14.68 97900 204000 (2011) 32700 (2002) 68200 35100 38500 42700 44600 60700 74400 83300 116000 141000
2020-08-11 07:30 14.73 98400 204000 (2011) 32700 (2002) 68200 35100 38500 42700 44600 60700 74400 83300 116000 141000
2020-08-11 06:30 14.72 98300 204000 (2011) 32700 (2002) 68200 35100 38500 42700 44600 60700 74400 83300 116000 141000
2020-08-11 05:30 14.73 98400 204000 (2011) 32700 (2002) 68200 35100 38500 42700 44600 60700 74400 83300 116000 141000
2020-08-11 04:30 14.82 99200 204000 (2011) 32700 (2002) 68200 35100 38500 42700 44600 60700 74400 83300 116000 141000
2020-08-11 03:30 14.85 99500 204000 (2011) 32700 (2002) 68200 35100 38500 42700 44600 60700 74400 83300 116000 141000
2020-08-11 02:30 14.91 100000 204000 (2011) 32700 (2002) 68200 35100 38500 42700 44600 60700 74400 83300 116000 141000
2020-08-11 01:30 14.94 100000 204000 (2011) 32700 (2002) 68200 35100 38500 42700 44600 60700 74400 83300 116000 141000
2020-08-11 00:30 14.96 101000 204000 (2011) 32700 (2002) 68200 35100 38500 42700 44600 60700 74400 83300 116000 141000
2020-08-10 23:30 15.00 101000 212000 (1993) 31600 (2002) 68200 35100 37700 42500 44600 61300 77200 83900 112000 144000
2020-08-10 22:30 15.02 101000 212000 (1993) 31600 (2002) 68200 35100 37700 42500 44600 61300 77200 83900 112000 144000
2020-08-10 21:30 14.98 101000 212000 (1993) 31600 (2002) 68200 35100 37700 42500 44600 61300 77200 83900 112000 144000
2020-08-10 20:30 15.01 101000 212000 (1993) 31600 (2002) 68200 35100 37700 42500 44600 61300 77200 83900 112000 144000
2020-08-10 19:30 15.01 101000 212000 (1993) 31600 (2002) 68200 35100 37700 42500 44600 61300 77200 83900 112000 144000
2020-08-10 18:30 14.95 100000 212000 (1993) 31600 (2002) 68200 35100 37700 42500 44600 61300 77200 83900 112000 144000
2020-08-10 17:30 14.98 101000 212000 (1993) 31600 (2002) 68200 35100 37700 42500 44600 61300 77200 83900 112000 144000
2020-08-10 16:30 14.94 100000 212000 (1993) 31600 (2002) 68200 35100 37700 42500 44600 61300 77200 83900 112000 144000
2020-08-10 15:30 14.93 100000 212000 (1993) 31600 (2002) 68200 35100 37700 42500 44600 61300 77200 83900 112000 144000
2020-08-10 14:30 14.87 99700 212000 (1993) 31600 (2002) 68200 35100 37700 42500 44600 61300 77200 83900 112000 144000
2020-08-10 13:30 14.76 98600 212000 (1993) 31600 (2002) 68200 35100 37700 42500 44600 61300 77200 83900 112000 144000
2020-08-10 12:30 14.76 98600 212000 (1993) 31600 (2002) 68200 35100 37700 42500 44600 61300 77200 83900 112000 144000
2020-08-10 11:30 14.76 98600 212000 (1993) 31600 (2002) 68200 35100 37700 42500 44600 61300 77200 83900 112000 144000
2020-08-10 10:30 14.67 97800 212000 (1993) 31600 (2002) 68200 35100 37700 42500 44600 61300 77200 83900 112000 144000
2020-08-10 09:30 14.63 97400 212000 (1993) 31600 (2002) 68200 35100 37700 42500 44600 61300 77200 83900 112000 144000
2020-08-10 08:30 14.57 96800 212000 (1993) 31600 (2002) 68200 35100 37700 42500 44600 61300 77200 83900 112000 144000
2020-08-10 07:30 14.49 96100 212000 (1993) 31600 (2002) 68200 35100 37700 42500 44600 61300 77200 83900 112000 144000
2020-08-10 06:30 14.44 95600 212000 (1993) 31600 (2002) 68200 35100 37700 42500 44600 61300 77200 83900 112000 144000
2020-08-10 05:30 14.34 94700 212000 (1993) 31600 (2002) 68200 35100 37700 42500 44600 61300 77200 83900 112000 144000
2020-08-10 04:30 14.27 94000 212000 (1993) 31600 (2002) 68200 35100 37700 42500 44600 61300 77200 83900 112000 144000
2020-08-10 03:30 14.18 93200 212000 (1993) 31600 (2002) 68200 35100 37700 42500 44600 61300 77200 83900 112000 144000
2020-08-10 02:30 14.11 92500 212000 (1993) 31600 (2002) 68200 35100 37700 42500 44600 61300 77200 83900 112000 144000
2020-08-10 01:30 14.03 91800 212000 (1993) 31600 (2002) 68200 35100 37700 42500 44600 61300 77200 83900 112000 144000
2020-08-10 00:30 13.94 91000 212000 (1993) 31600 (2002) 68200 35100 37700 42500 44600 61300 77200 83900 112000 144000
2020-08-09 23:30 13.86 90300 230000 (1993) 31300 (2002) 68100 35400 36900 42900 45200 60400 77400 82200 105000 145000
2020-08-09 22:30 13.77 89500 230000 (1993) 31300 (2002) 68100 35400 36900 42900 45200 60400 77400 82200 105000 145000
2020-08-09 21:30 13.68 88700 230000 (1993) 31300 (2002) 68100 35400 36900 42900 45200 60400 77400 82200 105000 145000
2020-08-09 20:30 13.65 88400 230000 (1993) 31300 (2002) 68100 35400 36900 42900 45200 60400 77400 82200 105000 145000
2020-08-09 19:30 13.59 87900 230000 (1993) 31300 (2002) 68100 35400 36900 42900 45200 60400 77400 82200 105000 145000
2020-08-09 18:30 13.53 87300 230000 (1993) 31300 (2002) 68100 35400 36900 42900 45200 60400 77400 82200 105000 145000
2020-08-09 17:30 13.45 86600 230000 (1993) 31300 (2002) 68100 35400 36900 42900 45200 60400 77400 82200 105000 145000
2020-08-09 16:30 13.43 86500 230000 (1993) 31300 (2002) 68100 35400 36900 42900 45200 60400 77400 82200 105000 145000
2020-08-09 15:30 13.39 86100 230000 (1993) 31300 (2002) 68100 35400 36900 42900 45200 60400 77400 82200 105000 145000
2020-08-09 14:30 13.37 85900 230000 (1993) 31300 (2002) 68100 35400 36900 42900 45200 60400 77400 82200 105000 145000
2020-08-09 13:30 13.36 85900 230000 (1993) 31300 (2002) 68100 35400 36900 42900 45200 60400 77400 82200 105000 145000
2020-08-09 12:30 13.34 85700 230000 (1993) 31300 (2002) 68100 35400 36900 42900 45200 60400 77400 82200 105000 145000
2020-08-09 11:30 13.30 85300 230000 (1993) 31300 (2002) 68100 35400 36900 42900 45200 60400 77400 82200 105000 145000
2020-08-09 10:30 13.31 85400 230000 (1993) 31300 (2002) 68100 35400 36900 42900 45200 60400 77400 82200 105000 145000
2020-08-09 09:30 13.30 85300 230000 (1993) 31300 (2002) 68100 35400 36900 42900 45200 60400 77400 82200 105000 145000
2020-08-09 08:30 13.32 85500 230000 (1993) 31300 (2002) 68100 35400 36900 42900 45200 60400 77400 82200 105000 145000
2020-08-09 07:30 13.34 85700 230000 (1993) 31300 (2002) 68100 35400 36900 42900 45200 60400 77400 82200 105000 145000
2020-08-09 06:30 13.33 85600 230000 (1993) 31300 (2002) 68100 35400 36900 42900 45200 60400 77400 82200 105000 145000
2020-08-09 05:30 13.34 85700 230000 (1993) 31300 (2002) 68100 35400 36900 42900 45200 60400 77400 82200 105000 145000
2020-08-09 04:30 13.34 85700 230000 (1993) 31300 (2002) 68100 35400 36900 42900 45200 60400 77400 82200 105000 145000
2020-08-09 03:30 13.36 85900 230000 (1993) 31300 (2002) 68100 35400 36900 42900 45200 60400 77400 82200 105000 145000
2020-08-09 02:30 13.36 85900 230000 (1993) 31300 (2002) 68100 35400 36900 42900 45200 60400 77400 82200 105000 145000
2020-08-09 01:30 13.40 86200 230000 (1993) 31300 (2002) 68100 35400 36900 42900 45200 60400 77400 82200 105000 145000
2020-08-09 00:30 13.41 86300 230000 (1993) 31300 (2002) 68100 35400 36900 42900 45200 60400 77400 82200 105000 145000
2020-08-08 23:30 13.37 85900 249000 (1993) 31200 (2002) 68900 35700 36700 42700 44300 60600 79300 86200 98800 141000
2020-08-08 22:30 13.42 86400 249000 (1993) 31200 (2002) 68900 35700 36700 42700 44300 60600 79300 86200 98800 141000
2020-08-08 21:30 13.40 86200 249000 (1993) 31200 (2002) 68900 35700 36700 42700 44300 60600 79300 86200 98800 141000
2020-08-08 20:30 13.39 86100 249000 (1993) 31200 (2002) 68900 35700 36700 42700 44300 60600 79300 86200 98800 141000
2020-08-08 19:30 13.35 85800 249000 (1993) 31200 (2002) 68900 35700 36700 42700 44300 60600 79300 86200 98800 141000
2020-08-08 18:30 13.39 86100 249000 (1993) 31200 (2002) 68900 35700 36700 42700 44300 60600 79300 86200 98800 141000
2020-08-08 17:30 13.39 86100 249000 (1993) 31200 (2002) 68900 35700 36700 42700 44300 60600 79300 86200 98800 141000
2020-08-08 16:30 13.37 85900 249000 (1993) 31200 (2002) 68900 35700 36700 42700 44300 60600 79300 86200 98800 141000
2020-08-08 15:30 13.40 86200 249000 (1993) 31200 (2002) 68900 35700 36700 42700 44300 60600 79300 86200 98800 141000
2020-08-08 14:30 13.35 85800 249000 (1993) 31200 (2002) 68900 35700 36700 42700 44300 60600 79300 86200 98800 141000
2020-08-08 13:30 13.45 86600 249000 (1993) 31200 (2002) 68900 35700 36700 42700 44300 60600 79300 86200 98800 141000
2020-08-08 12:30 13.44 86500 249000 (1993) 31200 (2002) 68900 35700 36700 42700 44300 60600 79300 86200 98800 141000
2020-08-08 11:30 13.43 86500 249000 (1993) 31200 (2002) 68900 35700 36700 42700 44300 60600 79300 86200 98800 141000
2020-08-08 10:30 13.40 86200 249000 (1993) 31200 (2002) 68900 35700 36700 42700 44300 60600 79300 86200 98800 141000
2020-08-08 09:30 13.46 86700 249000 (1993) 31200 (2002) 68900 35700 36700 42700 44300 60600 79300 86200 98800 141000
2020-08-08 08:30 13.49 87000 249000 (1993) 31200 (2002) 68900 35700 36700 42700 44300 60600 79300 86200 98800 141000
2020-08-08 07:30 13.53 87300 249000 (1993) 31200 (2002) 68900 35700 36700 42700 44300 60600 79300 86200 98800 141000
2020-08-08 06:30 13.51 87200 249000 (1993) 31200 (2002) 68900 35700 36700 42700 44300 60600 79300 86200 98800 141000
2020-08-08 05:30 13.51 87200 249000 (1993) 31200 (2002) 68900 35700 36700 42700 44300 60600 79300 86200 98800 141000
2020-08-08 04:30 13.53 87300 249000 (1993) 31200 (2002) 68900 35700 36700 42700 44300 60600 79300 86200 98800 141000
2020-08-08 03:30 13.56 87600 249000 (1993) 31200 (2002) 68900 35700 36700 42700 44300 60600 79300 86200 98800 141000
2020-08-08 02:30 13.55 87500 249000 (1993) 31200 (2002) 68900 35700 36700 42700 44300 60600 79300 86200 98800 141000
2020-08-08 01:30 13.57 87700 249000 (1993) 31200 (2002) 68900 35700 36700 42700 44300 60600 79300 86200 98800 141000
2020-08-08 00:30 13.60 87900 249000 (1993) 31200 (2002) 68900 35700 36700 42700 44300 60600 79300 86200 98800 141000
2020-08-07 23:30 13.62 88100 269000 (1993) 31500 (2002) 70500 35800 36500 42800 46700 62200 83700 87500 106000 135000
2020-08-07 22:30 13.61 88000 269000 (1993) 31500 (2002) 70500 35800 36500 42800 46700 62200 83700 87500 106000 135000
2020-08-07 21:30 13.64 88300 269000 (1993) 31500 (2002) 70500 35800 36500 42800 46700 62200 83700 87500 106000 135000
2020-08-07 20:30 13.66 88500 269000 (1993) 31500 (2002) 70500 35800 36500 42800 46700 62200 83700 87500 106000 135000
2020-08-07 19:30 13.65 88400 269000 (1993) 31500 (2002) 70500 35800 36500 42800 46700 62200 83700 87500 106000 135000
2020-08-07 18:30 13.70 88800 269000 (1993) 31500 (2002) 70500 35800 36500 42800 46700 62200 83700 87500 106000 135000
2020-08-07 17:30 13.72 89000 269000 (1993) 31500 (2002) 70500 35800 36500 42800 46700 62200 83700 87500 106000 135000
2020-08-07 16:30 13.67 88600 269000 (1993) 31500 (2002) 70500 35800 36500 42800 46700 62200 83700 87500 106000 135000
2020-08-07 15:30 13.70 88800 269000 (1993) 31500 (2002) 70500 35800 36500 42800 46700 62200 83700 87500 106000 135000
2020-08-07 14:30 13.69 88700 269000 (1993) 31500 (2002) 70500 35800 36500 42800 46700 62200 83700 87500 106000 135000
2020-08-07 13:30 13.71 88900 269000 (1993) 31500 (2002) 70500 35800 36500 42800 46700 62200 83700 87500 106000 135000
2020-08-07 12:30 13.73 89100 269000 (1993) 31500 (2002) 70500 35800 36500 42800 46700 62200 83700 87500 106000 135000
2020-08-07 11:30 13.73 89100 269000 (1993) 31500 (2002) 70500 35800 36500 42800 46700 62200 83700 87500 106000 135000
2020-08-07 10:30 13.76 89400 269000 (1993) 31500 (2002) 70500 35800 36500 42800 46700 62200 83700 87500 106000 135000
2020-08-07 09:30 13.74 89200 269000 (1993) 31500 (2002) 70500 35800 36500 42800 46700 62200 83700 87500 106000 135000
2020-08-07 08:30 13.78 89500 269000 (1993) 31500 (2002) 70500 35800 36500 42800 46700 62200 83700 87500 106000 135000
2020-08-07 07:30 13.72 89000 269000 (1993) 31500 (2002) 70500 35800 36500 42800 46700 62200 83700 87500 106000 135000
2020-08-07 06:30 13.72 89000 269000 (1993) 31500 (2002) 70500 35800 36500 42800 46700 62200 83700 87500 106000 135000
2020-08-07 05:30 13.77 89500 269000 (1993) 31500 (2002) 70500 35800 36500 42800 46700 62200 83700 87500 106000 135000
2020-08-07 04:30 13.72 89000 269000 (1993) 31500 (2002) 70500 35800 36500 42800 46700 62200 83700 87500 106000 135000
2020-08-07 03:30 13.73 89100 269000 (1993) 31500 (2002) 70500 35800 36500 42800 46700 62200 83700 87500 106000 135000
2020-08-07 02:30 13.73 89100 269000 (1993) 31500 (2002) 70500 35800 36500 42800 46700 62200 83700 87500 106000 135000
2020-08-07 01:30 13.76 89400 269000 (1993) 31500 (2002) 70500 35800 36500 42800 46700 62200 83700 87500 106000 135000
2020-08-07 00:30 13.71 88900 269000 (1993) 31500 (2002) 70500 35800 36500 42800 46700 62200 83700 87500 106000 135000
2020-08-06 23:30 13.73 89100 289000 (1993) 31700 (2002) 71400 35700 37000 43200 45600 58400 84600 85500 121000 150000
2020-08-06 22:30 13.69 88700 289000 (1993) 31700 (2002) 71400 35700 37000 43200 45600 58400 84600 85500 121000 150000
2020-08-06 21:30 13.73 89100 289000 (1993) 31700 (2002) 71400 35700 37000 43200 45600 58400 84600 85500 121000 150000
2020-08-06 20:30 13.70 88800 289000 (1993) 31700 (2002) 71400 35700 37000 43200 45600 58400 84600 85500 121000 150000
2020-08-06 19:30 13.73 89100 289000 (1993) 31700 (2002) 71400 35700 37000 43200 45600 58400 84600 85500 121000 150000
2020-08-06 18:30 13.75 89300 289000 (1993) 31700 (2002) 71400 35700 37000 43200 45600 58400 84600 85500 121000 150000
2020-08-06 17:30 13.77 89500 289000 (1993) 31700 (2002) 71400 35700 37000 43200 45600 58400 84600 85500 121000 150000
2020-08-06 16:30 13.80 89700 289000 (1993) 31700 (2002) 71400 35700 37000 43200 45600 58400 84600 85500 121000 150000
2020-08-06 15:30 13.72 92400 289000 (1993) 31700 (2002) 71400 35700 37000 43200 45600 58400 84600 85500 121000 150000
2020-08-06 14:30 13.79 93100 289000 (1993) 31700 (2002) 71400 35700 37000 43200 45600 58400 84600 85500 121000 150000
2020-08-06 13:30 13.85 93600 289000 (1993) 31700 (2002) 71400 35700 37000 43200 45600 58400 84600 85500 121000 150000
2020-08-06 12:30 13.86 93700 289000 (1993) 31700 (2002) 71400 35700 37000 43200 45600 58400 84600 85500 121000 150000
2020-08-06 11:30 13.89 94000 289000 (1993) 31700 (2002) 71400 35700 37000 43200 45600 58400 84600 85500 121000 150000
2020-08-06 10:30 13.89 94000 289000 (1993) 31700 (2002) 71400 35700 37000 43200 45600 58400 84600 85500 121000 150000
2020-08-06 09:30 13.91 94200 289000 (1993) 31700 (2002) 71400 35700 37000 43200 45600 58400 84600 85500 121000 150000
2020-08-06 08:30 13.96 94700 289000 (1993) 31700 (2002) 71400 35700 37000 43200 45600 58400 84600 85500 121000 150000
2020-08-06 07:30 13.91 94200 289000 (1993) 31700 (2002) 71400 35700 37000 43200 45600 58400 84600 85500 121000 150000
2020-08-06 06:30 14.01 95100 289000 (1993) 31700 (2002) 71400 35700 37000 43200 45600 58400 84600 85500 121000 150000
2020-08-06 05:30 14.00 95000 289000 (1993) 31700 (2002) 71400 35700 37000 43200 45600 58400 84600 85500 121000 150000
2020-08-06 04:30 14.06 95600 289000 (1993) 31700 (2002) 71400 35700 37000 43200 45600 58400 84600 85500 121000 150000
2020-08-06 03:30 14.02 95200 289000 (1993) 31700 (2002) 71400 35700 37000 43200 45600 58400 84600 85500 121000 150000
2020-08-06 02:30 14.09 95900 289000 (1993) 31700 (2002) 71400 35700 37000 43200 45600 58400 84600 85500 121000 150000
2020-08-06 01:30 14.12 96200 289000 (1993) 31700 (2002) 71400 35700 37000 43200 45600 58400 84600 85500 121000 150000
2020-08-06 00:30 14.19 96800 289000 (1993) 31700 (2002) 71400 35700 37000 43200 45600 58400 84600 85500 121000 150000
2020-08-05 23:30 14.20 96900 311000 (1993) 32200 (2002) 73000 35900 37400 42500 43600 55200 85500 91400 122000 193000
2020-08-05 22:30 14.20 96900 311000 (1993) 32200 (2002) 73000 35900 37400 42500 43600 55200 85500 91400 122000 193000
2020-08-05 21:30 14.19 96800 311000 (1993) 32200 (2002) 73000 35900 37400 42500 43600 55200 85500 91400 122000 193000
2020-08-05 20:30 14.33 98200 311000 (1993) 32200 (2002) 73000 35900 37400 42500 43600 55200 85500 91400 122000 193000
2020-08-05 19:30 14.30 97900 311000 (1993) 32200 (2002) 73000 35900 37400 42500 43600 55200 85500 91400 122000 193000
2020-08-05 18:30 14.38 98600 311000 (1993) 32200 (2002) 73000 35900 37400 42500 43600 55200 85500 91400 122000 193000
2020-08-05 17:30 14.36 98500 311000 (1993) 32200 (2002) 73000 35900 37400 42500 43600 55200 85500 91400 122000 193000
2020-08-05 16:30 14.35 98400 311000 (1993) 32200 (2002) 73000 35900 37400 42500 43600 55200 85500 91400 122000 193000
2020-08-05 15:30 14.51 99900 311000 (1993) 32200 (2002) 73000 35900 37400 42500 43600 55200 85500 91400 122000 193000
2020-08-05 14:30 14.54 100000 311000 (1993) 32200 (2002) 73000 35900 37400 42500 43600 55200 85500 91400 122000 193000
2020-08-05 13:30 14.55 100000 311000 (1993) 32200 (2002) 73000 35900 37400 42500 43600 55200 85500 91400 122000 193000
2020-08-05 12:30 14.60 101000 311000 (1993) 32200 (2002) 73000 35900 37400 42500 43600 55200 85500 91400 122000 193000
2020-08-05 11:30 14.64 101000 311000 (1993) 32200 (2002) 73000 35900 37400 42500 43600 55200 85500 91400 122000 193000
2020-08-05 10:30 14.66 101000 311000 (1993) 32200 (2002) 73000 35900 37400 42500 43600 55200 85500 91400 122000 193000
2020-08-05 09:30 14.73 102000 311000 (1993) 32200 (2002) 73000 35900 37400 42500 43600 55200 85500 91400 122000 193000
2020-08-05 08:30 14.77 102000 311000 (1993) 32200 (2002) 73000 35900 37400 42500 43600 55200 85500 91400 122000 193000
2020-08-05 07:30 14.82 103000 311000 (1993) 32200 (2002) 73000 35900 37400 42500 43600 55200 85500 91400 122000 193000
2020-08-05 06:30 14.88 104000 311000 (1993) 32200 (2002) 73000 35900 37400 42500 43600 55200 85500 91400 122000 193000
2020-08-05 05:30 14.88 104000 311000 (1993) 32200 (2002) 73000 35900 37400 42500 43600 55200 85500 91400 122000 193000
2020-08-05 04:30 14.93 104000 311000 (1993) 32200 (2002) 73000 35900 37400 42500 43600 55200 85500 91400 122000 193000
2020-08-05 03:30 15.00 105000 311000 (1993) 32200 (2002) 73000 35900 37400 42500 43600 55200 85500 91400 122000 193000
2020-08-05 02:30 15.05 105000 311000 (1993) 32200 (2002) 73000 35900 37400 42500 43600 55200 85500 91400 122000 193000
2020-08-05 01:30 15.09 106000 311000 (1993) 32200 (2002) 73000 35900 37400 42500 43600 55200 85500 91400 122000 193000
2020-08-05 00:30 15.10 106000 311000 (1993) 32200 (2002) 73000 35900 37400 42500 43600 55200 85500 91400 122000 193000
2020-08-04 23:30 15.19 107000 340000 (1993) 32800 (2002) 74900 36400 37200 42200 43200 56600 87200 101000 127000 209000
2020-08-04 22:30 15.22 107000 340000 (1993) 32800 (2002) 74900 36400 37200 42200 43200 56600 87200 101000 127000 209000
2020-08-04 21:30 15.26 107000 340000 (1993) 32800 (2002) 74900 36400 37200 42200 43200 56600 87200 101000 127000 209000
2020-08-04 20:30 15.32 108000 340000 (1993) 32800 (2002) 74900 36400 37200 42200 43200 56600 87200 101000 127000 209000
2020-08-04 19:30 15.37 109000 340000 (1993) 32800 (2002) 74900 36400 37200 42200 43200 56600 87200 101000 127000 209000
2020-08-04 18:30 15.40 109000 340000 (1993) 32800 (2002) 74900 36400 37200 42200 43200 56600 87200 101000 127000 209000
2020-08-04 17:30 15.47 110000 340000 (1993) 32800 (2002) 74900 36400 37200 42200 43200 56600 87200 101000 127000 209000
2020-08-04 16:30 15.52 110000 340000 (1993) 32800 (2002) 74900 36400 37200 42200 43200 56600 87200 101000 127000 209000
2020-08-04 15:30 15.52 110000 340000 (1993) 32800 (2002) 74900 36400 37200 42200 43200 56600 87200 101000 127000 209000
2020-08-04 14:30 15.56 111000 340000 (1993) 32800 (2002) 74900 36400 37200 42200 43200 56600 87200 101000 127000 209000
2020-08-04 13:30 15.66 112000 340000 (1993) 32800 (2002) 74900 36400 37200 42200 43200 56600 87200 101000 127000 209000
2020-08-04 12:30 15.68 112000 340000 (1993) 32800 (2002) 74900 36400 37200 42200 43200 56600 87200 101000 127000 209000
2020-08-04 11:30 15.76 113000 340000 (1993) 32800 (2002) 74900 36400 37200 42200 43200 56600 87200 101000 127000 209000
2020-08-04 10:30 15.81 113000 340000 (1993) 32800 (2002) 74900 36400 37200 42200 43200 56600 87200 101000 127000 209000
2020-08-04 09:30 15.87 114000 340000 (1993) 32800 (2002) 74900 36400 37200 42200 43200 56600 87200 101000 127000 209000
2020-08-04 08:30 15.93 114000 340000 (1993) 32800 (2002) 74900 36400 37200 42200 43200 56600 87200 101000 127000 209000
2020-08-04 07:30 15.98 115000 340000 (1993) 32800 (2002) 74900 36400 37200 42200 43200 56600 87200 101000 127000 209000
2020-08-04 06:30 16.04 116000 340000 (1993) 32800 (2002) 74900 36400 37200 42200 43200 56600 87200 101000 127000 209000
2020-08-04 05:30 16.07 116000 340000 (1993) 32800 (2002) 74900 36400 37200 42200 43200 56600 87200 101000 127000 209000
2020-08-04 04:30 16.13 117000 340000 (1993) 32800 (2002) 74900 36400 37200 42200 43200 56600 87200 101000 127000 209000
2020-08-04 03:30 16.18 117000 340000 (1993) 32800 (2002) 74900 36400 37200 42200 43200 56600 87200 101000 127000 209000
2020-08-04 02:30 16.27 118000 340000 (1993) 32800 (2002) 74900 36400 37200 42200 43200 56600 87200 101000 127000 209000
2020-08-04 01:30 16.33 119000 340000 (1993) 32800 (2002) 74900 36400 37200 42200 43200 56600 87200 101000 127000 209000
2020-08-04 00:30 16.40 120000 340000 (1993) 32800 (2002) 74900 36400 37200 42200 43200 56600 87200 101000 127000 209000
2020-08-03 23:30 16.48 121000 387000 (1993) 33500 (2002) 76500 36000 37700 42100 43100 57200 87200 96100 141000 211000
2020-08-03 22:30 16.54 121000 387000 (1993) 33500 (2002) 76500 36000 37700 42100 43100 57200 87200 96100 141000 211000
2020-08-03 21:30 16.61 122000 387000 (1993) 33500 (2002) 76500 36000 37700 42100 43100 57200 87200 96100 141000 211000
2020-08-03 20:30 16.70 123000 387000 (1993) 33500 (2002) 76500 36000 37700 42100 43100 57200 87200 96100 141000 211000
2020-08-03 19:30 16.77 124000 387000 (1993) 33500 (2002) 76500 36000 37700 42100 43100 57200 87200 96100 141000 211000
2020-08-03 18:30 16.87 125000 387000 (1993) 33500 (2002) 76500 36000 37700 42100 43100 57200 87200 96100 141000 211000
2020-08-03 17:30 16.95 126000 387000 (1993) 33500 (2002) 76500 36000 37700 42100 43100 57200 87200 96100 141000 211000
2020-08-03 16:30 17.01 127000 387000 (1993) 33500 (2002) 76500 36000 37700 42100 43100 57200 87200 96100 141000 211000
2020-08-03 15:30 17.11 128000 387000 (1993) 33500 (2002) 76500 36000 37700 42100 43100 57200 87200 96100 141000 211000
2020-08-03 14:30 17.19 129000 387000 (1993) 33500 (2002) 76500 36000 37700 42100 43100 57200 87200 96100 141000 211000
2020-08-03 13:30 17.27 130000 387000 (1993) 33500 (2002) 76500 36000 37700 42100 43100 57200 87200 96100 141000 211000
2020-08-03 12:30 17.37 131000 387000 (1993) 33500 (2002) 76500 36000 37700 42100 43100 57200 87200 96100 141000 211000
2020-08-03 11:30 17.42 131000 387000 (1993) 33500 (2002) 76500 36000 37700 42100 43100 57200 87200 96100 141000 211000
2020-08-03 10:30 17.53 133000 387000 (1993) 33500 (2002) 76500 36000 37700 42100 43100 57200 87200 96100 141000 211000
2020-08-03 09:30 17.62 134000 387000 (1993) 33500 (2002) 76500 36000 37700 42100 43100 57200 87200 96100 141000 211000
2020-08-03 08:30 17.74 135000 387000 (1993) 33500 (2002) 76500 36000 37700 42100 43100 57200 87200 96100 141000 211000
2020-08-03 07:30 17.89 137000 387000 (1993) 33500 (2002) 76500 36000 37700 42100 43100 57200 87200 96100 141000 211000
2020-08-03 06:30 17.98 138000 387000 (1993) 33500 (2002) 76500 36000 37700 42100 43100 57200 87200 96100 141000 211000
2020-08-03 05:30 18.15 141000 387000 (1993) 33500 (2002) 76500 36000 37700 42100 43100 57200 87200 96100 141000 211000
2020-08-03 04:30 18.23 142000 387000 (1993) 33500 (2002) 76500 36000 37700 42100 43100 57200 87200 96100 141000 211000
2020-08-03 03:30 18.35 143000 387000 (1993) 33500 (2002) 76500 36000 37700 42100 43100 57200 87200 96100 141000 211000
2020-08-03 02:30 18.52 145000 387000 (1993) 33500 (2002) 76500 36000 37700 42100 43100 57200 87200 96100 141000 211000
2020-08-03 01:30 18.63 147000 387000 (1993) 33500 (2002) 76500 36000 37700 42100 43100 57200 87200 96100 141000 211000
2020-08-03 00:30 18.76 148000 387000 (1993) 33500 (2002) 76500 36000 37700 42100 43100 57200 87200 96100 141000 211000
2020-08-02 23:30 18.89 150000 479000 (1993) 34400 (2006) 80400 36000 38300 41800 43600 59500 84700 91400 158000 215000
2020-08-02 22:30 19.02 152000 479000 (1993) 34400 (2006) 80400 36000 38300 41800 43600 59500 84700 91400 158000 215000
2020-08-02 21:30 19.06 152000 479000 (1993) 34400 (2006) 80400 36000 38300 41800 43600 59500 84700 91400 158000 215000
2020-08-02 20:30 19.33 156000 479000 (1993) 34400 (2006) 80400 36000 38300 41800 43600 59500 84700 91400 158000 215000
2020-08-02 19:30 19.50 158000 479000 (1993) 34400 (2006) 80400 36000 38300 41800 43600 59500 84700 91400 158000 215000
2020-08-02 18:30 19.66 161000 479000 (1993) 34400 (2006) 80400 36000 38300 41800 43600 59500 84700 91400 158000 215000
2020-08-02 17:30 19.83 163000 479000 (1993) 34400 (2006) 80400 36000 38300 41800 43600 59500 84700 91400 158000 215000
2020-08-02 16:30 19.99 165000 479000 (1993) 34400 (2006) 80400 36000 38300 41800 43600 59500 84700 91400 158000 215000
2020-08-02 15:30 20.19 168000 479000 (1993) 34400 (2006) 80400 36000 38300 41800 43600 59500 84700 91400 158000 215000
2020-08-02 14:30 20.38 171000 479000 (1993) 34400 (2006) 80400 36000 38300 41800 43600 59500 84700 91400 158000 215000
2020-08-02 13:30 20.60 174000 479000 (1993) 34400 (2006) 80400 36000 38300 41800 43600 59500 84700 91400 158000 215000
2020-08-02 12:30 20.73 176000 479000 (1993) 34400 (2006) 80400 36000 38300 41800 43600 59500 84700 91400 158000 215000
2020-08-02 11:30 20.88 178000 479000 (1993) 34400 (2006) 80400 36000 38300 41800 43600 59500 84700 91400 158000 215000
2020-08-02 10:30 21.03 180000 479000 (1993) 34400 (2006) 80400 36000 38300 41800 43600 59500 84700 91400 158000 215000
2020-08-02 09:30 21.19 183000 479000 (1993) 34400 (2006) 80400 36000 38300 41800 43600 59500 84700 91400 158000 215000
2020-08-02 08:30 21.35 185000 479000 (1993) 34400 (2006) 80400 36000 38300 41800 43600 59500 84700 91400 158000 215000
2020-08-02 07:30 21.43 186000 479000 (1993) 34400 (2006) 80400 36000 38300 41800 43600 59500 84700 91400 158000 215000
2020-08-02 06:30 21.58 189000 479000 (1993) 34400 (2006) 80400 36000 38300 41800 43600 59500 84700 91400 158000 215000
2020-08-02 05:30 21.79 192000 479000 (1993) 34400 (2006) 80400 36000 38300 41800 43600 59500 84700 91400 158000 215000
2020-08-02 04:30 21.97 195000 479000 (1993) 34400 (2006) 80400 36000 38300 41800 43600 59500 84700 91400 158000 215000
2020-08-02 03:30 22.07 196000 479000 (1993) 34400 (2006) 80400 36000 38300 41800 43600 59500 84700 91400 158000 215000
2020-08-02 02:30 22.14 198000 479000 (1993) 34400 (2006) 80400 36000 38300 41800 43600 59500 84700 91400 158000 215000
2020-08-02 01:30 22.36 201000 479000 (1993) 34400 (2006) 80400 36000 38300 41800 43600 59500 84700 91400 158000 215000
2020-08-02 00:30 22.46 203000 479000 (1993) 34400 (2006) 80400 36000 38300 41800 43600 59500 84700 91400 158000 215000
2020-08-01 23:30 22.55 204000 603000 (1993) 33700 (2006) 84300 36500 37500 42800 43600 60800 81300 92400 163000 219000
2020-08-01 22:30 22.63 206000 603000 (1993) 33700 (2006) 84300 36500 37500 42800 43600 60800 81300 92400 163000 219000
2020-08-01 21:30 22.62 205000 603000 (1993) 33700 (2006) 84300 36500 37500 42800 43600 60800 81300 92400 163000 219000
2020-08-01 20:30 22.64 206000 603000 (1993) 33700 (2006) 84300 36500 37500 42800 43600 60800 81300 92400 163000 219000
2020-08-01 19:30 22.60 205000 603000 (1993) 33700 (2006) 84300 36500 37500 42800 43600 60800 81300 92400 163000 219000
2020-08-01 18:30 22.62 205000 603000 (1993) 33700 (2006) 84300 36500 37500 42800 43600 60800 81300 92400 163000 219000
2020-08-01 17:30 22.65 206000 603000 (1993) 33700 (2006) 84300 36500 37500 42800 43600 60800 81300 92400 163000 219000
2020-08-01 16:30 22.66 206000 603000 (1993) 33700 (2006) 84300 36500 37500 42800 43600 60800 81300 92400 163000 219000
2020-08-01 15:30 22.64 206000 603000 (1993) 33700 (2006) 84300 36500 37500 42800 43600 60800 81300 92400 163000 219000
2020-08-01 14:30 22.66 206000 603000 (1993) 33700 (2006) 84300 36500 37500 42800 43600 60800 81300 92400 163000 219000
2020-08-01 13:30 22.53 204000 603000 (1993) 33700 (2006) 84300 36500 37500 42800 43600 60800 81300 92400 163000 219000
2020-08-01 12:30 22.45 203000 603000 (1993) 33700 (2006) 84300 36500 37500 42800 43600 60800 81300 92400 163000 219000
2020-08-01 11:30 22.37 201000 603000 (1993) 33700 (2006) 84300 36500 37500 42800 43600 60800 81300 92400 163000 219000
2020-08-01 10:30 22.36 201000 603000 (1993) 33700 (2006) 84300 36500 37500 42800 43600 60800 81300 92400 163000 219000
2020-08-01 09:30 22.21 199000 603000 (1993) 33700 (2006) 84300 36500 37500 42800 43600 60800 81300 92400 163000 219000
2020-08-01 08:30 22.08 197000 603000 (1993) 33700 (2006) 84300 36500 37500 42800 43600 60800 81300 92400 163000 219000
2020-08-01 07:30 21.88 193000 603000 (1993) 33700 (2006) 84300 36500 37500 42800 43600 60800 81300 92400 163000 219000
2020-08-01 06:30 21.66 190000 603000 (1993) 33700 (2006) 84300 36500 37500 42800 43600 60800 81300 92400 163000 219000
2020-08-01 05:30 21.41 186000 603000 (1993) 33700 (2006) 84300 36500 37500 42800 43600 60800 81300 92400 163000 219000
2020-08-01 04:30 21.18 183000 603000 (1993) 33700 (2006) 84300 36500 37500 42800 43600 60800 81300 92400 163000 219000
2020-08-01 03:30 20.86 178000 603000 (1993) 33700 (2006) 84300 36500 37500 42800 43600 60800 81300 92400 163000 219000
2020-08-01 02:30 20.58 174000 603000 (1993) 33700 (2006) 84300 36500 37500 42800 43600 60800 81300 92400 163000 219000
2020-08-01 01:30 20.27 169000 603000 (1993) 33700 (2006) 84300 36500 37500 42800 43600 60800 81300 92400 163000 219000
2020-08-01 00:30 19.95 165000 603000 (1993) 33700 (2006) 84300 36500 37500 42800 43600 60800 81300 92400 163000 219000
2020-07-31 23:30 19.59 160000 662000 (1993) 34100 (2006) 85400 36400 37800 42400 44100 60900 86300 99100 160000 216000
2020-07-31 22:30 19.24 155000 662000 (1993) 34100 (2006) 85400 36400 37800 42400 44100 60900 86300 99100 160000 216000
2020-07-31 21:30 18.89 150000 662000 (1993) 34100 (2006) 85400 36400 37800 42400 44100 60900 86300 99100 160000 216000
2020-07-31 20:30 18.53 145000 662000 (1993) 34100 (2006) 85400 36400 37800 42400 44100 60900 86300 99100 160000 216000
2020-07-31 19:30 18.23 142000 662000 (1993) 34100 (2006) 85400 36400 37800 42400 44100 60900 86300 99100 160000 216000
2020-07-31 18:30 17.95 138000 662000 (1993) 34100 (2006) 85400 36400 37800 42400 44100 60900 86300 99100 160000 216000
2020-07-31 17:30 17.58 133000 662000 (1993) 34100 (2006) 85400 36400 37800 42400 44100 60900 86300 99100 160000 216000
2020-07-31 16:30 17.26 130000 662000 (1993) 34100 (2006) 85400 36400 37800 42400 44100 60900 86300 99100 160000 216000
2020-07-31 15:30 16.96 126000 662000 (1993) 34100 (2006) 85400 36400 37800 42400 44100 60900 86300 99100 160000 216000
2020-07-31 14:30 16.77 124000 662000 (1993) 34100 (2006) 85400 36400 37800 42400 44100 60900 86300 99100 160000 216000
2020-07-31 13:30 16.50 121000 662000 (1993) 34100 (2006) 85400 36400 37800 42400 44100 60900 86300 99100 160000 216000
2020-07-31 12:30 16.30 119000 662000 (1993) 34100 (2006) 85400 36400 37800 42400 44100 60900 86300 99100 160000 216000
2020-07-31 11:30 16.09 116000 662000 (1993) 34100 (2006) 85400 36400 37800 42400 44100 60900 86300 99100 160000 216000
2020-07-31 10:30 15.90 114000 662000 (1993) 34100 (2006) 85400 36400 37800 42400 44100 60900 86300 99100 160000 216000
2020-07-31 09:30 15.70 112000 662000 (1993) 34100 (2006) 85400 36400 37800 42400 44100 60900 86300 99100 160000 216000
2020-07-31 08:30 15.51 110000 662000 (1993) 34100 (2006) 85400 36400 37800 42400 44100 60900 86300 99100 160000 216000
2020-07-31 07:30 15.46 109000 662000 (1993) 34100 (2006) 85400 36400 37800 42400 44100 60900 86300 99100 160000 216000
2020-07-31 06:30 15.23 107000 662000 (1993) 34100 (2006) 85400 36400 37800 42400 44100 60900 86300 99100 160000 216000
2020-07-31 05:30 15.12 106000 662000 (1993) 34100 (2006) 85400 36400 37800 42400 44100 60900 86300 99100 160000 216000
2020-07-31 04:30 15.07 105000 662000 (1993) 34100 (2006) 85400 36400 37800 42400 44100 60900 86300 99100 160000 216000
2020-07-31 03:30 14.90 104000 662000 (1993) 34100 (2006) 85400 36400 37800 42400 44100 60900 86300 99100 160000 216000
2020-07-31 02:30 14.82 103000 662000 (1993) 34100 (2006) 85400 36400 37800 42400 44100 60900 86300 99100 160000 216000
2020-07-31 01:30 14.67 101000 662000 (1993) 34100 (2006) 85400 36400 37800 42400 44100 60900 86300 99100 160000 216000
2020-07-31 00:30 14.58 101000 662000 (1993) 34100 (2006) 85400 36400 37800 42400 44100 60900 86300 99100 160000 216000
2020-07-30 23:30 14.52 100000 721000 (1993) 34800 (2002) 85700 36600 38200 42100 43700 63200 85500 97900 154000 213000
2020-07-30 22:30 14.45 99300 721000 (1993) 34800 (2002) 85700 36600 38200 42100 43700 63200 85500 97900 154000 213000
2020-07-30 21:30 14.37 98600 721000 (1993) 34800 (2002) 85700 36600 38200 42100 43700 63200 85500 97900 154000 213000
2020-07-30 20:30 14.21 97000 721000 (1993) 34800 (2002) 85700 36600 38200 42100 43700 63200 85500 97900 154000 213000
2020-07-30 19:30 14.17 96600 721000 (1993) 34800 (2002) 85700 36600 38200 42100 43700 63200 85500 97900 154000 213000
2020-07-30 18:30 14.20 96900 721000 (1993) 34800 (2002) 85700 36600 38200 42100 43700 63200 85500 97900 154000 213000
2020-07-30 17:30 14.11 96100 721000 (1993) 34800 (2002) 85700 36600 38200 42100 43700 63200 85500 97900 154000 213000
2020-07-30 16:30 14.07 95700 721000 (1993) 34800 (2002) 85700 36600 38200 42100 43700 63200 85500 97900 154000 213000
2020-07-30 15:30 14.10 96000 721000 (1993) 34800 (2002) 85700 36600 38200 42100 43700 63200 85500 97900 154000 213000
2020-07-30 14:30 14.09 95900 721000 (1993) 34800 (2002) 85700 36600 38200 42100 43700 63200 85500 97900 154000 213000
2020-07-30 13:30 14.04 95400 721000 (1993) 34800 (2002) 85700 36600 38200 42100 43700 63200 85500 97900 154000 213000
2020-07-30 12:30 14.06 95600 721000 (1993) 34800 (2002) 85700 36600 38200 42100 43700 63200 85500 97900 154000 213000
2020-07-30 11:30 14.07 95700 721000 (1993) 34800 (2002) 85700 36600 38200 42100 43700 63200 85500 97900 154000 213000
2020-07-30 10:30 14.03 95300 721000 (1993) 34800 (2002) 85700 36600 38200 42100 43700 63200 85500 97900 154000 213000
2020-07-30 09:30 14.04 95400 721000 (1993) 34800 (2002) 85700 36600 38200 42100 43700 63200 85500 97900 154000 213000
2020-07-30 08:30 14.00 95000 721000 (1993) 34800 (2002) 85700 36600 38200 42100 43700 63200 85500 97900 154000 213000
2020-07-30 07:30 13.98 94900 721000 (1993) 34800 (2002) 85700 36600 38200 42100 43700 63200 85500 97900 154000 213000
2020-07-30 06:30 13.95 94600 721000 (1993) 34800 (2002) 85700 36600 38200 42100 43700 63200 85500 97900 154000 213000
2020-07-30 05:30 13.89 94000 721000 (1993) 34800 (2002) 85700 36600 38200 42100 43700 63200 85500 97900 154000 213000
2020-07-30 04:30 13.84 93500 721000 (1993) 34800 (2002) 85700 36600 38200 42100 43700 63200 85500 97900 154000 213000
2020-07-30 03:30 13.77 92900 721000 (1993) 34800 (2002) 85700 36600 38200 42100 43700 63200 85500 97900 154000 213000
2020-07-30 02:30 13.68 92100 721000 (1993) 34800 (2002) 85700 36600 38200 42100 43700 63200 85500 97900 154000 213000
2020-07-30 01:30 13.69 92200 721000 (1993) 34800 (2002) 85700 36600 38200 42100 43700 63200 85500 97900 154000 213000
2020-07-30 00:30 13.67 92000 721000 (1993) 34800 (2002) 85700 36600 38200 42100 43700 63200 85500 97900 154000 213000
2020-07-29 23:30 13.63 91600 706000 (1993) 33200 (2002) 86900 36500 37400 42000 43400 66600 86100 95700 170000 217000
2020-07-29 22:30 13.63 91600 706000 (1993) 33200 (2002) 86900 36500 37400 42000 43400 66600 86100 95700 170000 217000
2020-07-29 21:30 13.65 91800 706000 (1993) 33200 (2002) 86900 36500 37400 42000 43400 66600 86100 95700 170000 217000
2020-07-29 20:30 13.62 91500 706000 (1993) 33200 (2002) 86900 36500 37400 42000 43400 66600 86100 95700 170000 217000
2020-07-29 19:30 13.60 91300 706000 (1993) 33200 (2002) 86900 36500 37400 42000 43400 66600 86100 95700 170000 217000
2020-07-29 18:30 13.55 90900 706000 (1993) 33200 (2002) 86900 36500 37400 42000 43400 66600 86100 95700 170000 217000
2020-07-29 17:30 13.53 90700 706000 (1993) 33200 (2002) 86900 36500 37400 42000 43400 66600 86100 95700 170000 217000
2020-07-29 16:30 13.60 91300 706000 (1993) 33200 (2002) 86900 36500 37400 42000 43400 66600 86100 95700 170000 217000
2020-07-29 15:30 13.59 91300 706000 (1993) 33200 (2002) 86900 36500 37400 42000 43400 66600 86100 95700 170000 217000
2020-07-29 14:30 13.47 90200 706000 (1993) 33200 (2002) 86900 36500 37400 42000 43400 66600 86100 95700 170000 217000
2020-07-29 13:30 13.48 90300 706000 (1993) 33200 (2002) 86900 36500 37400 42000 43400 66600 86100 95700 170000 217000
2020-07-29 12:30 13.59 91300 706000 (1993) 33200 (2002) 86900 36500 37400 42000 43400 66600 86100 95700 170000 217000
2020-07-29 11:30 13.60 91300 706000 (1993) 33200 (2002) 86900 36500 37400 42000 43400 66600 86100 95700 170000 217000
2020-07-29 10:30 13.62 91500 706000 (1993) 33200 (2002) 86900 36500 37400 42000 43400 66600 86100 95700 170000 217000
2020-07-29 09:30 13.62 91500 706000 (1993) 33200 (2002) 86900 36500 37400 42000 43400 66600 86100 95700 170000 217000
2020-07-29 08:30 13.65 91800 706000 (1993) 33200 (2002) 86900 36500 37400 42000 43400 66600 86100 95700 170000 217000
2020-07-29 07:30 13.67 92000 706000 (1993) 33200 (2002) 86900 36500 37400 42000 43400 66600 86100 95700 170000 217000
2020-07-29 06:30 13.68 92100 706000 (1993) 33200 (2002) 86900 36500 37400 42000 43400 66600 86100 95700 170000 217000
2020-07-29 05:30 13.71 92400 706000 (1993) 33200 (2002) 86900 36500 37400 42000 43400 66600 86100 95700 170000 217000
2020-07-29 04:30 13.75 92700 706000 (1993) 33200 (2002) 86900 36500 37400 42000 43400 66600 86100 95700 170000 217000
2020-07-29 03:30 13.77 92900 706000 (1993) 33200 (2002) 86900 36500 37400 42000 43400 66600 86100 95700 170000 217000
2020-07-29 02:30 13.78 93000 706000 (1993) 33200 (2002) 86900 36500 37400 42000 43400 66600 86100 95700 170000 217000
2020-07-29 01:30 13.79 93100 706000 (1993) 33200 (2002) 86900 36500 37400 42000 43400 66600 86100 95700 170000 217000
2020-07-29 00:30 13.79 93100 706000 (1993) 33200 (2002) 86900 36500 37400 42000 43400 66600 86100 95700 170000 217000
2020-07-28 23:30 13.76 92800 606000 (1993) 32900 (2002) 85400 36000 37700 42400 43200 68200 90100 94600 170000 206000
2020-07-28 22:30 13.76 92800 606000 (1993) 32900 (2002) 85400 36000 37700 42400 43200 68200 90100 94600 170000 206000
2020-07-28 21:30 13.74 92600 606000 (1993) 32900 (2002) 85400 36000 37700 42400 43200 68200 90100 94600 170000 206000
2020-07-28 20:30 13.62 91500 606000 (1993) 32900 (2002) 85400 36000 37700 42400 43200 68200 90100 94600 170000 206000
2020-07-28 19:30 13.63 91600 606000 (1993) 32900 (2002) 85400 36000 37700 42400 43200 68200 90100 94600 170000 206000
2020-07-28 18:30 13.51 90500 606000 (1993) 32900 (2002) 85400 36000 37700 42400 43200 68200 90100 94600 170000 206000
2020-07-28 17:30 13.41 89600 606000 (1993) 32900 (2002) 85400 36000 37700 42400 43200 68200 90100 94600 170000 206000
2020-07-28 16:30 13.42 89700 606000 (1993) 32900 (2002) 85400 36000 37700 42400 43200 68200 90100 94600 170000 206000
2020-07-28 15:30 13.28 88500 606000 (1993) 32900 (2002) 85400 36000 37700 42400 43200 68200 90100 94600 170000 206000
2020-07-28 14:30 13.22 87900 606000 (1993) 32900 (2002) 85400 36000 37700 42400 43200 68200 90100 94600 170000 206000
2020-07-28 13:30 13.09 86800 606000 (1993) 32900 (2002) 85400 36000 37700 42400 43200 68200 90100 94600 170000 206000
2020-07-28 12:30 12.91 85200 606000 (1993) 32900 (2002) 85400 36000 37700 42400 43200 68200 90100 94600 170000 206000
2020-07-28 11:30 12.78 84100 606000 (1993) 32900 (2002) 85400 36000 37700 42400 43200 68200 90100 94600 170000 206000
2020-07-28 10:30 12.64 82900 606000 (1993) 32900 (2002) 85400 36000 37700 42400 43200 68200 90100 94600 170000 206000
2020-07-28 09:30 12.54 82100 606000 (1993) 32900 (2002) 85400 36000 37700 42400 43200 68200 90100 94600 170000 206000
2020-07-28 08:30 12.40 80900 606000 (1993) 32900 (2002) 85400 36000 37700 42400 43200 68200 90100 94600 170000 206000
2020-07-28 07:30 12.35 80500 606000 (1993) 32900 (2002) 85400 36000 37700 42400 43200 68200 90100 94600 170000 206000
2020-07-28 06:30 12.26 79800 606000 (1993) 32900 (2002) 85400 36000 37700 42400 43200 68200 90100 94600 170000 206000
2020-07-28 05:30 12.17 79100 606000 (1993) 32900 (2002) 85400 36000 37700 42400 43200 68200 90100 94600 170000 206000
2020-07-28 04:30 12.08 78300 606000 (1993) 32900 (2002) 85400 36000 37700 42400 43200 68200 90100 94600 170000 206000
2020-07-28 03:30 11.98 77500 606000 (1993) 32900 (2002) 85400 36000 37700 42400 43200 68200 90100 94600 170000 206000
2020-07-28 02:30 11.93 77100 606000 (1993) 32900 (2002) 85400 36000 37700 42400 43200 68200 90100 94600 170000 206000
2020-07-28 01:30 11.86 76600 606000 (1993) 32900 (2002) 85400 36000 37700 42400 43200 68200 90100 94600 170000 206000
2020-07-28 00:30 11.87 76600 606000 (1993) 32900 (2002) 85400 36000 37700 42400 43200 68200 90100 94600 170000 206000
2020-07-27 23:30 11.81 76200 487000 (1993) 33200 (2002) 83100 36300 37900 42600 43600 65800 95100 101000 153000 181000
2020-07-27 22:30 11.79 76000 487000 (1993) 33200 (2002) 83100 36300 37900 42600 43600 65800 95100 101000 153000 181000
2020-07-27 21:30 11.74 75600 487000 (1993) 33200 (2002) 83100 36300 37900 42600 43600 65800 95100 101000 153000 181000
2020-07-27 20:30 11.72 75500 487000 (1993) 33200 (2002) 83100 36300 37900 42600 43600 65800 95100 101000 153000 181000
2020-07-27 19:30 11.70 75300 487000 (1993) 33200 (2002) 83100 36300 37900 42600 43600 65800 95100 101000 153000 181000
2020-07-27 18:30 11.68 75200 487000 (1993) 33200 (2002) 83100 36300 37900 42600 43600 65800 95100 101000 153000 181000
2020-07-27 17:30 11.65 74900 487000 (1993) 33200 (2002) 83100 36300 37900 42600 43600 65800 95100 101000 153000 181000
2020-07-27 16:30 11.62 74700 487000 (1993) 33200 (2002) 83100 36300 37900 42600 43600 65800 95100 101000 153000 181000
2020-07-27 15:30 11.60 74500 487000 (1993) 33200 (2002) 83100 36300 37900 42600 43600 65800 95100 101000 153000 181000
2020-07-27 14:30 11.62 74700 487000 (1993) 33200 (2002) 83100 36300 37900 42600 43600 65800 95100 101000 153000 181000
2020-07-27 13:30 11.60 74500 487000 (1993) 33200 (2002) 83100 36300 37900 42600 43600 65800 95100 101000 153000 181000
2020-07-27 12:30 11.61 74600 487000 (1993) 33200 (2002) 83100 36300 37900 42600 43600 65800 95100 101000 153000 181000
2020-07-27 11:30 11.61 74600 487000 (1993) 33200 (2002) 83100 36300 37900 42600 43600 65800 95100 101000 153000 181000
2020-07-27 10:30 11.58 74400 487000 (1993) 33200 (2002) 83100 36300 37900 42600 43600 65800 95100 101000 153000 181000
2020-07-27 09:30 11.60 74500 487000 (1993) 33200 (2002) 83100 36300 37900 42600 43600 65800 95100 101000 153000 181000
2020-07-27 08:30 11.60 74500 487000 (1993) 33200 (2002) 83100 36300 37900 42600 43600 65800 95100 101000 153000 181000
2020-07-27 07:30 11.61 74600 487000 (1993) 33200 (2002) 83100 36300 37900 42600 43600 65800 95100 101000 153000 181000
2020-07-27 06:30 11.51 73800 487000 (1993) 33200 (2002) 83100 36300 37900 42600 43600 65800 95100 101000 153000 181000
2020-07-27 05:30 11.60 74500 487000 (1993) 33200 (2002) 83100 36300 37900 42600 43600 65800 95100 101000 153000 181000
2020-07-27 04:30 11.62 74700 487000 (1993) 33200 (2002) 83100 36300 37900 42600 43600 65800 95100 101000 153000 181000
2020-07-27 03:30 11.62 74700 487000 (1993) 33200 (2002) 83100 36300 37900 42600 43600 65800 95100 101000 153000 181000
2020-07-27 02:30 11.63 74800 487000 (1993) 33200 (2002) 83100 36300 37900 42600 43600 65800 95100 101000 153000 181000
2020-07-27 01:30 11.65 74900 487000 (1993) 33200 (2002) 83100 36300 37900 42600 43600 65800 95100 101000 153000 181000
2020-07-27 00:30 11.65 74900 487000 (1993) 33200 (2002) 83100 36300 37900 42600 43600 65800 95100 101000 153000 181000
2020-07-26 23:30 11.66 75000 393000 (1993) 33100 (2002) 81500 36300 38800 43300 44000 66800 100000 111000 133000 182000
2020-07-26 22:30 11.66 75000 393000 (1993) 33100 (2002) 81500 36300 38800 43300 44000 66800 100000 111000 133000 182000
2020-07-26 21:30 11.67 75100 393000 (1993) 33100 (2002) 81500 36300 38800 43300 44000 66800 100000 111000 133000 182000
2020-07-26 20:30 11.67 75100 393000 (1993) 33100 (2002) 81500 36300 38800 43300 44000 66800 100000 111000 133000 182000
2020-07-26 19:30 11.69 75200 393000 (1993) 33100 (2002) 81500 36300 38800 43300 44000 66800 100000 111000 133000 182000
2020-07-26 18:30 11.71 75400 393000 (1993) 33100 (2002) 81500 36300 38800 43300 44000 66800 100000 111000 133000 182000
2020-07-26 17:30 11.73 75500 393000 (1993) 33100 (2002) 81500 36300 38800 43300 44000 66800 100000 111000 133000 182000
2020-07-26 16:30 11.74 75600 393000 (1993) 33100 (2002) 81500 36300 38800 43300 44000 66800 100000 111000 133000 182000
2020-07-26 15:30 11.75 75700 393000 (1993) 33100 (2002) 81500 36300 38800 43300 44000 66800 100000 111000 133000 182000
2020-07-26 14:30 11.77 75900 393000 (1993) 33100 (2002) 81500 36300 38800 43300 44000 66800 100000 111000 133000 182000
2020-07-26 13:30 11.71 75400 393000 (1993) 33100 (2002) 81500 36300 38800 43300 44000 66800 100000 111000 133000 182000
2020-07-26 12:30 11.80 76100 393000 (1993) 33100 (2002) 81500 36300 38800 43300 44000 66800 100000 111000 133000 182000
2020-07-26 11:30 11.81 76200 393000 (1993) 33100 (2002) 81500 36300 38800 43300 44000 66800 100000 111000 133000 182000
2020-07-26 10:30 11.82 76300 393000 (1993) 33100 (2002) 81500 36300 38800 43300 44000 66800 100000 111000 133000 182000
2020-07-26 09:30 11.81 76200 393000 (1993) 33100 (2002) 81500 36300 38800 43300 44000 66800 100000 111000 133000 182000
2020-07-26 08:30 11.84 76400 393000 (1993) 33100 (2002) 81500 36300 38800 43300 44000 66800 100000 111000 133000 182000
2020-07-26 07:30 11.88 76700 393000 (1993) 33100 (2002) 81500 36300 38800 43300 44000 66800 100000 111000 133000 182000
2020-07-26 06:30 11.89 76800 393000 (1993) 33100 (2002) 81500 36300 38800 43300 44000 66800 100000 111000 133000 182000
2020-07-26 05:30 11.92 77000 393000 (1993) 33100 (2002) 81500 36300 38800 43300 44000 66800 100000 111000 133000 182000
2020-07-26 04:30 11.95 77300 393000 (1993) 33100 (2002) 81500 36300 38800 43300 44000 66800 100000 111000 133000 182000
2020-07-26 03:30 11.98 77500 393000 (1993) 33100 (2002) 81500 36300 38800 43300 44000 66800 100000 111000 133000 182000
2020-07-26 02:30 12.02 77800 393000 (1993) 33100 (2002) 81500 36300 38800 43300 44000 66800 100000 111000 133000 182000
2020-07-26 01:30 12.03 77900 393000 (1993) 33100 (2002) 81500 36300 38800 43300 44000 66800 100000 111000 133000 182000
2020-07-26 00:30 12.05 78100 393000 (1993) 33100 (2002) 81500 36300 38800 43300 44000 66800 100000 111000 133000 182000
2020-07-25 23:30 12.08 78300 340000 (1993) 33700 (2002) 80500 37000 38700 43000 44100 63800 99000 103000 154000 186000
2020-07-25 22:30 12.08 78300 340000 (1993) 33700 (2002) 80500 37000 38700 43000 44100 63800 99000 103000 154000 186000
2020-07-25 21:30 12.10 78500 340000 (1993) 33700 (2002) 80500 37000 38700 43000 44100 63800 99000 103000 154000 186000
2020-07-25 20:30 12.14 78800 340000 (1993) 33700 (2002) 80500 37000 38700 43000 44100 63800 99000 103000 154000 186000
2020-07-25 19:30 12.12 78700 340000 (1993) 33700 (2002) 80500 37000 38700 43000 44100 63800 99000 103000 154000 186000
2020-07-25 18:30 12.17 79100 340000 (1993) 33700 (2002) 80500 37000 38700 43000 44100 63800 99000 103000 154000 186000
2020-07-25 17:30 12.22 79500 340000 (1993) 33700 (2002) 80500 37000 38700 43000 44100 63800 99000 103000 154000 186000
2020-07-25 16:30 12.30 80100 340000 (1993) 33700 (2002) 80500 37000 38700 43000 44100 63800 99000 103000 154000 186000
2020-07-25 15:30 12.30 80100 340000 (1993) 33700 (2002) 80500 37000 38700 43000 44100 63800 99000 103000 154000 186000
2020-07-25 14:30 12.40 80900 340000 (1993) 33700 (2002) 80500 37000 38700 43000 44100 63800 99000 103000 154000 186000
2020-07-25 13:30 12.42 81100 340000 (1993) 33700 (2002) 80500 37000 38700 43000 44100 63800 99000 103000 154000 186000
2020-07-25 12:30 12.46 81400 340000 (1993) 33700 (2002) 80500 37000 38700 43000 44100 63800 99000 103000 154000 186000
2020-07-25 11:30 12.52 81900 340000 (1993) 33700 (2002) 80500 37000 38700 43000 44100 63800 99000 103000 154000 186000
2020-07-25 10:30 12.57 82400 340000 (1993) 33700 (2002) 80500 37000 38700 43000 44100 63800 99000 103000 154000 186000
2020-07-25 09:30 12.62 82800 340000 (1993) 33700 (2002) 80500 37000 38700 43000 44100 63800 99000 103000 154000 186000
2020-07-25 08:30 12.63 82900 340000 (1993) 33700 (2002) 80500 37000 38700 43000 44100 63800 99000 103000 154000 186000
2020-07-25 07:30 12.73 83700 340000 (1993) 33700 (2002) 80500 37000 38700 43000 44100 63800 99000 103000 154000 186000
2020-07-25 06:30 12.76 84000 340000 (1993) 33700 (2002) 80500 37000 38700 43000 44100 63800 99000 103000 154000 186000
2020-07-25 05:30 12.81 84400 340000 (1993) 33700 (2002) 80500 37000 38700 43000 44100 63800 99000 103000 154000 186000
2020-07-25 04:30 12.88 85000 340000 (1993) 33700 (2002) 80500 37000 38700 43000 44100 63800 99000 103000 154000 186000
2020-07-25 03:30 12.94 85500 340000 (1993) 33700 (2002) 80500 37000 38700 43000 44100 63800 99000 103000 154000 186000
2020-07-25 02:30 12.98 85900 340000 (1993) 33700 (2002) 80500 37000 38700 43000 44100 63800 99000 103000 154000 186000
2020-07-25 01:30 13.06 86500 340000 (1993) 33700 (2002) 80500 37000 38700 43000 44100 63800 99000 103000 154000 186000
2020-07-25 00:30 13.10 86900 340000 (1993) 33700 (2002) 80500 37000 38700 43000 44100 63800 99000 103000 154000 186000
2020-07-24 23:30 13.17 87500 321000 (1993) 34500 (2002) 83100 37300 38700 42800 44300 65400 95100 106000 184000 215000
2020-07-24 22:30 13.17 87500 321000 (1993) 34500 (2002) 83100 37300 38700 42800 44300 65400 95100 106000 184000 215000
2020-07-24 21:30 13.22 87900 321000 (1993) 34500 (2002) 83100 37300 38700 42800 44300 65400 95100 106000 184000 215000
2020-07-24 20:30 13.37 89300 321000 (1993) 34500 (2002) 83100 37300 38700 42800 44300 65400 95100 106000 184000 215000
2020-07-24 19:30 13.32 88800 321000 (1993) 34500 (2002) 83100 37300 38700 42800 44300 65400 95100 106000 184000 215000
2020-07-24 18:30 13.54 90800 321000 (1993) 34500 (2002) 83100 37300 38700 42800 44300 65400 95100 106000 184000 215000
2020-07-24 17:30 13.58 91200 321000 (1993) 34500 (2002) 83100 37300 38700 42800 44300 65400 95100 106000 184000 215000
2020-07-24 16:30 13.64 91700 321000 (1993) 34500 (2002) 83100 37300 38700 42800 44300 65400 95100 106000 184000 215000
2020-07-24 15:30 13.70 92300 321000 (1993) 34500 (2002) 83100 37300 38700 42800 44300 65400 95100 106000 184000 215000
2020-07-24 14:30 13.76 92800 321000 (1993) 34500 (2002) 83100 37300 38700 42800 44300 65400 95100 106000 184000 215000
2020-07-24 13:30 13.90 94100 321000 (1993) 34500 (2002) 83100 37300 38700 42800 44300 65400 95100 106000 184000 215000
2020-07-24 12:30 13.97 94800 321000 (1993) 34500 (2002) 83100 37300 38700 42800 44300 65400 95100 106000 184000 215000
2020-07-24 11:30 14.04 92600 321000 (1993) 34500 (2002) 83100 37300 38700 42800 44300 65400 95100 106000 184000 215000
2020-07-24 10:30 14.13 93500 321000 (1993) 34500 (2002) 83100 37300 38700 42800 44300 65400 95100 106000 184000 215000
2020-07-24 09:30 14.20 94100 321000 (1993) 34500 (2002) 83100 37300 38700 42800 44300 65400 95100 106000 184000 215000
2020-07-24 08:30 14.31 95100 321000 (1993) 34500 (2002) 83100 37300 38700 42800 44300 65400 95100 106000 184000 215000
2020-07-24 07:30 14.38 95800 321000 (1993) 34500 (2002) 83100 37300 38700 42800 44300 65400 95100 106000 184000 215000
2020-07-24 06:30 14.47 96600 321000 (1993) 34500 (2002) 83100 37300 38700 42800 44300 65400 95100 106000 184000 215000
2020-07-24 05:30 14.52 97100 321000 (1993) 34500 (2002) 83100 37300 38700 42800 44300 65400 95100 106000 184000 215000
2020-07-24 04:30 14.65 98400 321000 (1993) 34500 (2002) 83100 37300 38700 42800 44300 65400 95100 106000 184000 215000
2020-07-24 03:30 14.66 98500 321000 (1993) 34500 (2002) 83100 37300 38700 42800 44300 65400 95100 106000 184000 215000
2020-07-24 02:30 14.76 99400 321000 (1993) 34500 (2002) 83100 37300 38700 42800 44300 65400 95100 106000 184000 215000
2020-07-24 01:30 14.82 100000 321000 (1993) 34500 (2002) 83100 37300 38700 42800 44300 65400 95100 106000 184000 215000
2020-07-24 00:30 14.95 101000 321000 (1993) 34500 (2002) 83100 37300 38700 42800 44300 65400 95100 106000 184000 215000
2020-07-23 23:30 15.05 102000 314000 (1993) 35100 (2002) 87000 37900 39600 42900 44800 68700 95400 105000 190000 232000
2020-07-23 22:30 15.12 103000 314000 (1993) 35100 (2002) 87000 37900 39600 42900 44800 68700 95400 105000 190000 232000
2020-07-23 21:30 15.14 103000 314000 (1993) 35100 (2002) 87000 37900 39600 42900 44800 68700 95400 105000 190000 232000
2020-07-23 20:30 15.29 105000 314000 (1993) 35100 (2002) 87000 37900 39600 42900 44800 68700 95400 105000 190000 232000
2020-07-23 19:30 15.39 106000 314000 (1993) 35100 (2002) 87000 37900 39600 42900 44800 68700 95400 105000 190000 232000
2020-07-23 18:30 15.42 106000 314000 (1993) 35100 (2002) 87000 37900 39600 42900 44800 68700 95400 105000 190000 232000
2020-07-23 17:30 15.61 108000 314000 (1993) 35100 (2002) 87000 37900 39600 42900 44800 68700 95400 105000 190000 232000
2020-07-23 16:30 15.66 108000 314000 (1993) 35100 (2002) 87000 37900 39600 42900 44800 68700 95400 105000 190000 232000
2020-07-23 15:30 15.81 110000 314000 (1993) 35100 (2002) 87000 37900 39600 42900 44800 68700 95400 105000 190000 232000
2020-07-23 14:30 15.87 111000 314000 (1993) 35100 (2002) 87000 37900 39600 42900 44800 68700 95400 105000 190000 232000
2020-07-23 13:30 15.89 111000 314000 (1993) 35100 (2002) 87000 37900 39600 42900 44800 68700 95400 105000 190000 232000
2020-07-23 12:30 15.93 111000 314000 (1993) 35100 (2002) 87000 37900 39600 42900 44800 68700 95400 105000 190000 232000
2020-07-23 11:30 16.04 112000 314000 (1993) 35100 (2002) 87000 37900 39600 42900 44800 68700 95400 105000 190000 232000
2020-07-23 10:30 16.09 113000 314000 (1993) 35100 (2002) 87000 37900 39600 42900 44800 68700 95400 105000 190000 232000
2020-07-23 09:30 16.14 114000 314000 (1993) 35100 (2002) 87000 37900 39600 42900 44800 68700 95400 105000 190000 232000
2020-07-23 08:30 16.21 114000 314000 (1993) 35100 (2002) 87000 37900 39600 42900 44800 68700 95400 105000 190000 232000
2020-07-23 07:30 16.34 116000 314000 (1993) 35100 (2002) 87000 37900 39600 42900 44800 68700 95400 105000 190000 232000
2020-07-23 06:30 16.35 116000 314000 (1993) 35100 (2002) 87000 37900 39600 42900 44800 68700 95400 105000 190000 232000
2020-07-23 05:30 16.40 116000 314000 (1993) 35100 (2002) 87000 37900 39600 42900 44800 68700 95400 105000 190000 232000
2020-07-23 04:30 16.41 116000 314000 (1993) 35100 (2002) 87000 37900 39600 42900 44800 68700 95400 105000 190000 232000
2020-07-23 03:30 16.47 117000 314000 (1993) 35100 (2002) 87000 37900 39600 42900 44800 68700 95400 105000 190000 232000
2020-07-23 02:30 16.43 117000 314000 (1993) 35100 (2002) 87000 37900 39600 42900 44800 68700 95400 105000 190000 232000
2020-07-23 01:30 16.43 117000 314000 (1993) 35100 (2002) 87000 37900 39600 42900 44800 68700 95400 105000 190000 232000
2020-07-23 00:30 16.44 117000 314000 (1993) 35100 (2002) 87000 37900 39600 42900 44800 68700 95400 105000 190000 232000
2020-07-22 23:30 16.41 116000 305000 (1993) 35600 (2002) 87400 38500 40900 43700 44100 66600 99800 109000 198000 237000
2020-07-22 22:30 16.35 116000 305000 (1993) 35600 (2002) 87400 38500 40900 43700 44100 66600 99800 109000 198000 237000
2020-07-22 21:30 16.27 115000 305000 (1993) 35600 (2002) 87400 38500 40900 43700 44100 66600 99800 109000 198000 237000
2020-07-22 20:30 16.18 114000 305000 (1993) 35600 (2002) 87400 38500 40900 43700 44100 66600 99800 109000 198000 237000
2020-07-22 19:30 16.05 113000 305000 (1993) 35600 (2002) 87400 38500 40900 43700 44100 66600 99800 109000 198000 237000
2020-07-22 18:30 15.95 111000 305000 (1993) 35600 (2002) 87400 38500 40900 43700 44100 66600 99800 109000 198000 237000
2020-07-22 17:30 15.83 110000 305000 (1993) 35600 (2002) 87400 38500 40900 43700 44100 66600 99800 109000 198000 237000
2020-07-22 16:30 15.67 109000 305000 (1993) 35600 (2002) 87400 38500 40900 43700 44100 66600 99800 109000 198000 237000
2020-07-22 15:30 15.53 107000 305000 (1993) 35600 (2002) 87400 38500 40900 43700 44100 66600 99800 109000 198000 237000
2020-07-22 14:30 15.37 105000 305000 (1993) 35600 (2002) 87400 38500 40900 43700 44100 66600 99800 109000 198000 237000
2020-07-22 13:30 15.19 104000 305000 (1993) 35600 (2002) 87400 38500 40900 43700 44100 66600 99800 109000 198000 237000
2020-07-22 12:30 15.02 102000 305000 (1993) 35600 (2002) 87400 38500 40900 43700 44100 66600 99800 109000 198000 237000
2020-07-22 11:30 14.83 100000 305000 (1993) 35600 (2002) 87400 38500 40900 43700 44100 66600 99800 109000 198000 237000
2020-07-22 10:30 14.63 98200 305000 (1993) 35600 (2002) 87400 38500 40900 43700 44100 66600 99800 109000 198000 237000
2020-07-22 09:30 14.45 96500 305000 (1993) 35600 (2002) 87400 38500 40900 43700 44100 66600 99800 109000 198000 237000
2020-07-22 08:30 14.26 94700 305000 (1993) 35600 (2002) 87400 38500 40900 43700 44100 66600 99800 109000 198000 237000
2020-07-22 07:30 14.09 93100 305000 (1993) 35600 (2002) 87400 38500 40900 43700 44100 66600 99800 109000 198000 237000
2020-07-22 06:30 13.93 91600 305000 (1993) 35600 (2002) 87400 38500 40900 43700 44100 66600 99800 109000 198000 237000
2020-07-22 05:30 13.75 90000 305000 (1993) 35600 (2002) 87400 38500 40900 43700 44100 66600 99800 109000 198000 237000
2020-07-22 04:30 13.60 88700 305000 (1993) 35600 (2002) 87400 38500 40900 43700 44100 66600 99800 109000 198000 237000
2020-07-22 03:30 13.44 87200 305000 (1993) 35600 (2002) 87400 38500 40900 43700 44100 66600 99800 109000 198000 237000
2020-07-22 02:30 13.31 86100 305000 (1993) 35600 (2002) 87400 38500 40900 43700 44100 66600 99800 109000 198000 237000
2020-07-22 01:30 13.19 85100 305000 (1993) 35600 (2002) 87400 38500 40900 43700 44100 66600 99800 109000 198000 237000
2020-07-22 00:30 13.10 84300 305000 (1993) 35600 (2002) 87400 38500 40900 43700 44100 66600 99800 109000 198000 237000
2020-07-21 23:30 12.99 83400 304000 (1993) 35900 (2002) 83100 37800 39600 43400 45000 67700 97100 104000 172000 217000
2020-07-21 22:30 12.91 82700 304000 (1993) 35900 (2002) 83100 37800 39600 43400 45000 67700 97100 104000 172000 217000
2020-07-21 21:30 12.86 82300 304000 (1993) 35900 (2002) 83100 37800 39600 43400 45000 67700 97100 104000 172000 217000
2020-07-21 20:30 12.77 81500 304000 (1993) 35900 (2002) 83100 37800 39600 43400 45000 67700 97100 104000 172000 217000
2020-07-21 19:30 12.65 80500 304000 (1993) 35900 (2002) 83100 37800 39600 43400 45000 67700 97100 104000 172000 217000
2020-07-21 18:30 12.59 80000 304000 (1993) 35900 (2002) 83100 37800 39600 43400 45000 67700 97100 104000 172000 217000
2020-07-21 17:30 12.57 79900 304000 (1993) 35900 (2002) 83100 37800 39600 43400 45000 67700 97100 104000 172000 217000
2020-07-21 16:30 12.41 78600 304000 (1993) 35900 (2002) 83100 37800 39600 43400 45000 67700 97100 104000 172000 217000
2020-07-21 15:30 12.28 77500 304000 (1993) 35900 (2002) 83100 37800 39600 43400 45000 67700 97100 104000 172000 217000
2020-07-21 14:30 12.36 78200 304000 (1993) 35900 (2002) 83100 37800 39600 43400 45000 67700 97100 104000 172000 217000
2020-07-21 13:30 12.31 77800 304000 (1993) 35900 (2002) 83100 37800 39600 43400 45000 67700 97100 104000 172000 217000
2020-07-21 12:30 12.26 77400 304000 (1993) 35900 (2002) 83100 37800 39600 43400 45000 67700 97100 104000 172000 217000
2020-07-21 11:30 12.20 76900 304000 (1993) 35900 (2002) 83100 37800 39600 43400 45000 67700 97100 104000 172000 217000
2020-07-21 10:30 12.15 76500 304000 (1993) 35900 (2002) 83100 37800 39600 43400 45000 67700 97100 104000 172000 217000
2020-07-21 09:30 12.06 75800 304000 (1993) 35900 (2002) 83100 37800 39600 43400 45000 67700 97100 104000 172000 217000
2020-07-21 08:30 12.01 75400 304000 (1993) 35900 (2002) 83100 37800 39600 43400 45000 67700 97100 104000 172000 217000
2020-07-21 07:30 11.99 75200 304000 (1993) 35900 (2002) 83100 37800 39600 43400 45000 67700 97100 104000 172000 217000
2020-07-21 06:30 11.95 74900 304000 (1993) 35900 (2002) 83100 37800 39600 43400 45000 67700 97100 104000 172000 217000
2020-07-21 05:30 11.91 74600 304000 (1993) 35900 (2002) 83100 37800 39600 43400 45000 67700 97100 104000 172000 217000
2020-07-21 04:30 11.91 74600 304000 (1993) 35900 (2002) 83100 37800 39600 43400 45000 67700 97100 104000 172000 217000
2020-07-21 03:30 11.89 74500 304000 (1993) 35900 (2002) 83100 37800 39600 43400 45000 67700 97100 104000 172000 217000
2020-07-21 02:30 11.82 73900 304000 (1993) 35900 (2002) 83100 37800 39600 43400 45000 67700 97100 104000 172000 217000
2020-07-21 01:30 11.91 74600 304000 (1993) 35900 (2002) 83100 37800 39600 43400 45000 67700 97100 104000 172000 217000
2020-07-21 00:30 11.90 74500 304000 (1993) 35900 (2002) 83100 37800 39600 43400 45000 67700 97100 104000 172000 217000
2020-07-20 23:30 11.95 74900 315000 (1993) 36100 (2002) 79800 37500 41100 42700 44100 63100 90800 100000 147000 216000
2020-07-20 22:30 11.95 74900 315000 (1993) 36100 (2002) 79800 37500 41100 42700 44100 63100 90800 100000 147000 216000
2020-07-20 21:30 11.98 75200 315000 (1993) 36100 (2002) 79800 37500 41100 42700 44100 63100 90800 100000 147000 216000
2020-07-20 20:30 11.91 74600 315000 (1993) 36100 (2002) 79800 37500 41100 42700 44100 63100 90800 100000 147000 216000
2020-07-20 19:30 11.93 74800 315000 (1993) 36100 (2002) 79800 37500 41100 42700 44100 63100 90800 100000 147000 216000
2020-07-20 18:30 11.90 74500 315000 (1993) 36100 (2002) 79800 37500 41100 42700 44100 63100 90800 100000 147000 216000
2020-07-20 17:30 11.98 75200 315000 (1993) 36100 (2002) 79800 37500 41100 42700 44100 63100 90800 100000 147000 216000
2020-07-20 16:30 11.95 74900 315000 (1993) 36100 (2002) 79800 37500 41100 42700 44100 63100 90800 100000 147000 216000
2020-07-20 15:30 11.88 74400 315000 (1993) 36100 (2002) 79800 37500 41100 42700 44100 63100 90800 100000 147000 216000
2020-07-20 14:30 11.81 73800 315000 (1993) 36100 (2002) 79800 37500 41100 42700 44100 63100 90800 100000 147000 216000
2020-07-20 13:30 11.74 73300 315000 (1993) 36100 (2002) 79800 37500 41100 42700 44100 63100 90800 100000 147000 216000
2020-07-20 12:30 11.68 72800 315000 (1993) 36100 (2002) 79800 37500 41100 42700 44100 63100 90800 100000 147000 216000
2020-07-20 11:30 11.80 73800 315000 (1993) 36100 (2002) 79800 37500 41100 42700 44100 63100 90800 100000 147000 216000
2020-07-20 10:30 11.76 73400 315000 (1993) 36100 (2002) 79800 37500 41100 42700 44100 63100 90800 100000 147000 216000
2020-07-20 09:30 11.79 73700 315000 (1993) 36100 (2002) 79800 37500 41100 42700 44100 63100 90800 100000 147000 216000
2020-07-20 08:30 11.83 74000 315000 (1993) 36100 (2002) 79800 37500 41100 42700 44100 63100 90800 100000 147000 216000
2020-07-20 07:30 11.84 74100 315000 (1993) 36100 (2002) 79800 37500 41100 42700 44100 63100 90800 100000 147000 216000
2020-07-20 06:30 11.88 74400 315000 (1993) 36100 (2002) 79800 37500 41100 42700 44100 63100 90800 100000 147000 216000
2020-07-20 05:30 11.89 74500 315000 (1993) 36100 (2002) 79800 37500 41100 42700 44100 63100 90800 100000 147000 216000
2020-07-20 04:30 11.98 75200 315000 (1993) 36100 (2002) 79800 37500 41100 42700 44100 63100 90800 100000 147000 216000
2020-07-20 03:30 12.06 75800 315000 (1993) 36100 (2002) 79800 37500 41100 42700 44100 63100 90800 100000 147000 216000
2020-07-20 02:30 12.12 76300 315000 (1993) 36100 (2002) 79800 37500 41100 42700 44100 63100 90800 100000 147000 216000
2020-07-20 01:30 12.18 76700 315000 (1993) 36100 (2002) 79800 37500 41100 42700 44100 63100 90800 100000 147000 216000
2020-07-20 00:30 12.25 77300 315000 (1993) 36100 (2002) 79800 37500 41100 42700 44100 63100 90800 100000 147000 216000
2020-07-19 23:30 12.30 77700 328000 (1993) 36600 (2002) 79400 38300 40900 43600 45500 64800 91100 95400 149000 195000
2020-07-19 22:30 12.29 77600 328000 (1993) 36600 (2002) 79400 38300 40900 43600 45500 64800 91100 95400 149000 195000
2020-07-19 21:30 12.37 78200 328000 (1993) 36600 (2002) 79400 38300 40900 43600 45500 64800 91100 95400 149000 195000
2020-07-19 20:30 12.47 79100 328000 (1993) 36600 (2002) 79400 38300 40900 43600 45500 64800 91100 95400 149000 195000
2020-07-19 19:30 12.49 79200 328000 (1993) 36600 (2002) 79400 38300 40900 43600 45500 64800 91100 95400 149000 195000
2020-07-19 18:30 12.60 80100 328000 (1993) 36600 (2002) 79400 38300 40900 43600 45500 64800 91100 95400 149000 195000
2020-07-19 17:30 12.63 80400 328000 (1993) 36600 (2002) 79400 38300 40900 43600 45500 64800 91100 95400 149000 195000
2020-07-19 16:30 12.66 80600 328000 (1993) 36600 (2002) 79400 38300 40900 43600 45500 64800 91100 95400 149000 195000
2020-07-19 15:30 12.83 82000 328000 (1993) 36600 (2002) 79400 38300 40900 43600 45500 64800 91100 95400 149000 195000
2020-07-19 14:30 12.89 82500 328000 (1993) 36600 (2002) 79400 38300 40900 43600 45500 64800 91100 95400 149000 195000
2020-07-19 13:30 13.00 83500 328000 (1993) 36600 (2002) 79400 38300 40900 43600 45500 64800 91100 95400 149000 195000
2020-07-19 12:30 13.06 84000 328000 (1993) 36600 (2002) 79400 38300 40900 43600 45500 64800 91100 95400 149000 195000
2020-07-19 11:30 13.16 84800 328000 (1993) 36600 (2002) 79400 38300 40900 43600 45500 64800 91100 95400 149000 195000
2020-07-19 10:30 13.23 85400 328000 (1993) 36600 (2002) 79400 38300 40900 43600 45500 64800 91100 95400 149000 195000
2020-07-19 09:30 13.26 85700 328000 (1993) 36600 (2002) 79400 38300 40900 43600 45500 64800 91100 95400 149000 195000
2020-07-19 08:30 13.40 86900 328000 (1993) 36600 (2002) 79400 38300 40900 43600 45500 64800 91100 95400 149000 195000
2020-07-19 07:30 13.45 87300 328000 (1993) 36600 (2002) 79400 38300 40900 43600 45500 64800 91100 95400 149000 195000
2020-07-19 06:30 13.61 88700 328000 (1993) 36600 (2002) 79400 38300 40900 43600 45500 64800 91100 95400 149000 195000
2020-07-19 05:30 13.67 89300 328000 (1993) 36600 (2002) 79400 38300 40900 43600 45500 64800 91100 95400 149000 195000
2020-07-19 04:30 13.83 90700 328000 (1993) 36600 (2002) 79400 38300 40900 43600 45500 64800 91100 95400 149000 195000
2020-07-19 03:30 14.00 92300 328000 (1993) 36600 (2002) 79400 38300 40900 43600 45500 64800 91100 95400 149000 195000
2020-07-19 02:30 14.11 93300 328000 (1993) 36600 (2002) 79400 38300 40900 43600 45500 64800 91100 95400 149000 195000
2020-07-19 01:30 14.21 94200 328000 (1993) 36600 (2002) 79400 38300 40900 43600 45500 64800 91100 95400 149000 195000
2020-07-19 00:30 14.30 95000 328000 (1993) 36600 (2002) 79400 38300 40900 43600 45500 64800 91100 95400 149000 195000
2020-07-18 23:30 14.42 96200 353000 (1993) 37600 (2006) 80900 39100 43300 44900 45800 66100 92700 101000 149000 179000
2020-07-18 22:30 14.52 97100 353000 (1993) 37600 (2006) 80900 39100 43300 44900 45800 66100 92700 101000 149000 179000
2020-07-18 21:30 14.65 98400 353000 (1993) 37600 (2006) 80900 39100 43300 44900 45800 66100 92700 101000 149000 179000
2020-07-18 20:30 14.74 99200 353000 (1993) 37600 (2006) 80900 39100 43300 44900 45800 66100 92700 101000 149000 179000
2020-07-18 19:30 14.79 99700 353000 (1993) 37600 (2006) 80900 39100 43300 44900 45800 66100 92700 101000 149000 179000
2020-07-18 18:30 14.88 101000 353000 (1993) 37600 (2006) 80900 39100 43300 44900 45800 66100 92700 101000 149000 179000
2020-07-18 17:30 14.94 101000 353000 (1993) 37600 (2006) 80900 39100 43300 44900 45800 66100 92700 101000 149000 179000
2020-07-18 16:30 15.12 103000 353000 (1993) 37600 (2006) 80900 39100 43300 44900 45800 66100 92700 101000 149000 179000
2020-07-18 15:30 15.08 103000 353000 (1993) 37600 (2006) 80900 39100 43300 44900 45800 66100 92700 101000 149000 179000
2020-07-18 14:30 15.22 104000 353000 (1993) 37600 (2006) 80900 39100 43300 44900 45800 66100 92700 101000 149000 179000
2020-07-18 13:30 15.31 105000 353000 (1993) 37600 (2006) 80900 39100 43300 44900 45800 66100 92700 101000 149000 179000
2020-07-18 12:30 15.41 106000 353000 (1993) 37600 (2006) 80900 39100 43300 44900 45800 66100 92700 101000 149000 179000
2020-07-18 11:30 15.48 107000 353000 (1993) 37600 (2006) 80900 39100 43300 44900 45800 66100 92700 101000 149000 179000
2020-07-18 10:30 15.50 107000 353000 (1993) 37600 (2006) 80900 39100 43300 44900 45800 66100 92700 101000 149000 179000
2020-07-18 09:30 15.65 108000 353000 (1993) 37600 (2006) 80900 39100 43300 44900 45800 66100 92700 101000 149000 179000
2020-07-18 08:30 15.73 109000 353000 (1993) 37600 (2006) 80900 39100 43300 44900 45800 66100 92700 101000 149000 179000
2020-07-18 07:30 15.74 109000 353000 (1993) 37600 (2006) 80900 39100 43300 44900 45800 66100 92700 101000 149000 179000
2020-07-18 06:30 15.85 110000 353000 (1993) 37600 (2006) 80900 39100 43300 44900 45800 66100 92700 101000 149000 179000
2020-07-18 05:30 15.86 111000 353000 (1993) 37600 (2006) 80900 39100 43300 44900 45800 66100 92700 101000 149000 179000
2020-07-18 04:30 15.85 110000 353000 (1993) 37600 (2006) 80900 39100 43300 44900 45800 66100 92700 101000 149000 179000
2020-07-18 03:30 15.98 112000 353000 (1993) 37600 (2006) 80900 39100 43300 44900 45800 66100 92700 101000 149000 179000
2020-07-18 02:30 16.00 112000 353000 (1993) 37600 (2006) 80900 39100 43300 44900 45800 66100 92700 101000 149000 179000
2020-07-18 01:30 16.03 112000 353000 (1993) 37600 (2006) 80900 39100 43300 44900 45800 66100 92700 101000 149000 179000
2020-07-18 00:30 16.06 113000 353000 (1993) 37600 (2006) 80900 39100 43300 44900 45800 66100 92700 101000 149000 179000
2020-07-17 23:30 16.07 113000 383000 (1993) 38200 (2006) 82500 39300 42100 45100 47700 66800 94700 103000 146000 169000
2020-07-17 22:30 16.08 113000 383000 (1993) 38200 (2006) 82500 39300 42100 45100 47700 66800 94700 103000 146000 169000
2020-07-17 21:30 16.07 113000 383000 (1993) 38200 (2006) 82500 39300 42100 45100 47700 66800 94700 103000 146000 169000
2020-07-17 20:30 16.12 113000 383000 (1993) 38200 (2006) 82500 39300 42100 45100 47700 66800 94700 103000 146000 169000
2020-07-17 19:30 16.07 113000 383000 (1993) 38200 (2006) 82500 39300 42100 45100 47700 66800 94700 103000 146000 169000
2020-07-17 18:30 16.06 113000 383000 (1993) 38200 (2006) 82500 39300 42100 45100 47700 66800 94700 103000 146000 169000
2020-07-17 17:30 16.02 112000 383000 (1993) 38200 (2006) 82500 39300 42100 45100 47700 66800 94700 103000 146000 169000
2020-07-17 16:30 16.06 113000 383000 (1993) 38200 (2006) 82500 39300 42100 45100 47700 66800 94700 103000 146000 169000
2020-07-17 15:30 16.04 112000 383000 (1993) 38200 (2006) 82500 39300 42100 45100 47700 66800 94700 103000 146000 169000
2020-07-17 14:30 15.91 111000 383000 (1993) 38200 (2006) 82500 39300 42100 45100 47700 66800 94700 103000 146000 169000
2020-07-17 13:30 15.88 111000 383000 (1993) 38200 (2006) 82500 39300 42100 45100 47700 66800 94700 103000 146000 169000
2020-07-17 12:30 15.85 110000 383000 (1993) 38200 (2006) 82500 39300 42100 45100 47700 66800 94700 103000 146000 169000
2020-07-17 11:30 15.85 110000 383000 (1993) 38200 (2006) 82500 39300 42100 45100 47700 66800 94700 103000 146000 169000
2020-07-17 10:30 15.80 110000 383000 (1993) 38200 (2006) 82500 39300 42100 45100 47700 66800 94700 103000 146000 169000
2020-07-17 09:30 15.74 109000 383000 (1993) 38200 (2006) 82500 39300 42100 45100 47700 66800 94700 103000 146000 169000
2020-07-17 08:30 15.60 108000 383000 (1993) 38200 (2006) 82500 39300 42100 45100 47700 66800 94700 103000 146000 169000
2020-07-17 07:30 15.49 107000 383000 (1993) 38200 (2006) 82500 39300 42100 45100 47700 66800 94700 103000 146000 169000
2020-07-17 06:30 15.49 107000 383000 (1993) 38200 (2006) 82500 39300 42100 45100 47700 66800 94700 103000 146000 169000
2020-07-17 05:30 15.38 106000 383000 (1993) 38200 (2006) 82500 39300 42100 45100 47700 66800 94700 103000 146000 169000
2020-07-17 04:30 15.25 104000 383000 (1993) 38200 (2006) 82500 39300 42100 45100 47700 66800 94700 103000 146000 169000
2020-07-17 03:30 15.14 103000 383000 (1993) 38200 (2006) 82500 39300 42100 45100 47700 66800 94700 103000 146000 169000
2020-07-17 02:30 15.06 102000 383000 (1993) 38200 (2006) 82500 39300 42100 45100 47700 66800 94700 103000 146000 169000
2020-07-17 01:30 14.96 101000 383000 (1993) 38200 (2006) 82500 39300 42100 45100 47700 66800 94700 103000 146000 169000
2020-07-17 00:30 14.84 100000 383000 (1993) 38200 (2006) 82500 39300 42100 45100 47700 66800 94700 103000 146000 169000
2020-07-16 23:30 14.73 99100 405000 (1993) 37800 (1989) 84900 38900 40900 45000 47100 68300 99900 108000 148000 177000
2020-07-16 22:30 14.56 97500 405000 (1993) 37800 (1989) 84900 38900 40900 45000 47100 68300 99900 108000 148000 177000
2020-07-16 21:30 14.52 97100 405000 (1993) 37800 (1989) 84900 38900 40900 45000 47100 68300 99900 108000 148000 177000
2020-07-16 20:30 14.39 95900 405000 (1993) 37800 (1989) 84900 38900 40900 45000 47100 68300 99900 108000 148000 177000
2020-07-16 19:30 14.24 94500 405000 (1993) 37800 (1989) 84900 38900 40900 45000 47100 68300 99900 108000 148000 177000
2020-07-16 18:30 14.11 93300 405000 (1993) 37800 (1989) 84900 38900 40900 45000 47100 68300 99900 108000 148000 177000
2020-07-16 17:30 13.96 91900 405000 (1993) 37800 (1989) 84900 38900 40900 45000 47100 68300 99900 108000 148000 177000
2020-07-16 16:30 13.73 89800 405000 (1993) 37800 (1989) 84900 38900 40900 45000 47100 68300 99900 108000 148000 177000
2020-07-16 15:30 13.61 88700 405000 (1993) 37800 (1989) 84900 38900 40900 45000 47100 68300 99900 108000 148000 177000
2020-07-16 14:30 13.50 87800 405000 (1993) 37800 (1989) 84900 38900 40900 45000 47100 68300 99900 108000 148000 177000
2020-07-16 13:30 13.39 86800 405000 (1993) 37800 (1989) 84900 38900 40900 45000 47100 68300 99900 108000 148000 177000
2020-07-16 12:30 13.20 85200 405000 (1993) 37800 (1989) 84900 38900 40900 45000 47100 68300 99900 108000 148000 177000
2020-07-16 11:30 13.04 83800 405000 (1993) 37800 (1989) 84900 38900 40900 45000 47100 68300 99900 108000 148000 177000
2020-07-16 09:30 12.80 81800 405000 (1993) 37800 (1989) 84900 38900 40900 45000 47100 68300 99900 108000 148000 177000
2020-07-16 08:30 12.69 80900 405000 (1993) 37800 (1989) 84900 38900 40900 45000 47100 68300 99900 108000 148000 177000
2020-07-16 07:30 12.57 79900 405000 (1993) 37800 (1989) 84900 38900 40900 45000 47100 68300 99900 108000 148000 177000
2020-07-16 06:30 12.47 79100 405000 (1993) 37800 (1989) 84900 38900 40900 45000 47100 68300 99900 108000 148000 177000
2020-07-16 05:30 12.39 78400 405000 (1993) 37800 (1989) 84900 38900 40900 45000 47100 68300 99900 108000 148000 177000
2020-07-16 04:30 12.30 77700 405000 (1993) 37800 (1989) 84900 38900 40900 45000 47100 68300 99900 108000 148000 177000
2020-07-16 03:30 12.23 77100 405000 (1993) 37800 (1989) 84900 38900 40900 45000 47100 68300 99900 108000 148000 177000
2020-07-16 02:30 12.19 76800 405000 (1993) 37800 (1989) 84900 38900 40900 45000 47100 68300 99900 108000 148000 177000
2020-07-16 01:30 12.13 76300 405000 (1993) 37800 (1989) 84900 38900 40900 45000 47100 68300 99900 108000 148000 177000
2020-07-16 00:30 12.07 75900 405000 (1993) 37800 (1989) 84900 38900 40900 45000 47100 68300 99900 108000 148000 177000
2020-07-15 23:30 12.04 75600 439000 (1993) 37000 (1981) 88300 39000 40000 44600 47100 69600 102000 111000 153000 193000
2020-07-15 22:30 12.02 75500 439000 (1993) 37000 (1981) 88300 39000 40000 44600 47100 69600 102000 111000 153000 193000
2020-07-15 21:30 11.95 74900 439000 (1993) 37000 (1981) 88300 39000 40000 44600 47100 69600 102000 111000 153000 193000
2020-07-15 20:30 11.96 75000 439000 (1993) 37000 (1981) 88300 39000 40000 44600 47100 69600 102000 111000 153000 193000
2020-07-15 19:30 11.92 74700 439000 (1993) 37000 (1981) 88300 39000 40000 44600 47100 69600 102000 111000 153000 193000
2020-07-15 18:30 11.89 74500 439000 (1993) 37000 (1981) 88300 39000 40000 44600 47100 69600 102000 111000 153000 193000
2020-07-15 17:30 11.87 74300 439000 (1993) 37000 (1981) 88300 39000 40000 44600 47100 69600 102000 111000 153000 193000
2020-07-15 16:30 11.80 73800 439000 (1993) 37000 (1981) 88300 39000 40000 44600 47100 69600 102000 111000 153000 193000
2020-07-15 15:30 11.79 73700 439000 (1993) 37000 (1981) 88300 39000 40000 44600 47100 69600 102000 111000 153000 193000
2020-07-15 14:30 11.73 73200 439000 (1993) 37000 (1981) 88300 39000 40000 44600 47100 69600 102000 111000 153000 193000
2020-07-15 13:30 11.67 72800 439000 (1993) 37000 (1981) 88300 39000 40000 44600 47100 69600 102000 111000 153000 193000
2020-07-15 12:30 11.63 72500 439000 (1993) 37000 (1981) 88300 39000 40000 44600 47100 69600 102000 111000 153000 193000
2020-07-15 11:30 11.59 72200 439000 (1993) 37000 (1981) 88300 39000 40000 44600 47100 69600 102000 111000 153000 193000
2020-07-15 10:30 11.53 71700 439000 (1993) 37000 (1981) 88300 39000 40000 44600 47100 69600 102000 111000 153000 193000
2020-07-15 09:30 11.52 71600 439000 (1993) 37000 (1981) 88300 39000 40000 44600 47100 69600 102000 111000 153000 193000
2020-07-15 08:30 11.51 71600 439000 (1993) 37000 (1981) 88300 39000 40000 44600 47100 69600 102000 111000 153000 193000
2020-07-15 07:30 11.42 70900 439000 (1993) 37000 (1981) 88300 39000 40000 44600 47100 69600 102000 111000 153000 193000
2020-07-15 06:30 11.29 69900 439000 (1993) 37000 (1981) 88300 39000 40000 44600 47100 69600 102000 111000 153000 193000
2020-07-15 05:30 11.36 70400 439000 (1993) 37000 (1981) 88300 39000 40000 44600 47100 69600 102000 111000 153000 193000
2020-07-15 04:30 11.39 70700 439000 (1993) 37000 (1981) 88300 39000 40000 44600 47100 69600 102000 111000 153000 193000
2020-07-15 03:30 11.37 70500 439000 (1993) 37000 (1981) 88300 39000 40000 44600 47100 69600 102000 111000 153000 193000
2020-07-15 02:30 11.33 70200 439000 (1993) 37000 (1981) 88300 39000 40000 44600 47100 69600 102000 111000 153000 193000
2020-07-15 01:30 11.35 70400 439000 (1993) 37000 (1981) 88300 39000 40000 44600 47100 69600 102000 111000 153000 193000
2020-07-15 00:30 11.37 70500 439000 (1993) 37000 (1981) 88300 39000 40000 44600 47100 69600 102000 111000 153000 193000
2020-07-14 23:30 11.29 69900 458000 (1993) 38700 (1968) 89600 39000 41400 44200 47400 72600 105000 116000 169000 187000
2020-07-14 22:30 11.34 70300 458000 (1993) 38700 (1968) 89600 39000 41400 44200 47400 72600 105000 116000 169000 187000
2020-07-14 21:30 11.31 70100 458000 (1993) 38700 (1968) 89600 39000 41400 44200 47400 72600 105000 116000 169000 187000
2020-07-14 20:30 11.30 70000 458000 (1993) 38700 (1968) 89600 39000 41400 44200 47400 72600 105000 116000 169000 187000
2020-07-14 19:30 11.27 69800 458000 (1993) 38700 (1968) 89600 39000 41400 44200 47400 72600 105000 116000 169000 187000
2020-07-14 18:30 11.24 69500 458000 (1993) 38700 (1968) 89600 39000 41400 44200 47400 72600 105000 116000 169000 187000
2020-07-14 17:30 11.20 69200 458000 (1993) 38700 (1968) 89600 39000 41400 44200 47400 72600 105000 116000 169000 187000
2020-07-14 16:30 11.28 69800 458000 (1993) 38700 (1968) 89600 39000 41400 44200 47400 72600 105000 116000 169000 187000
2020-07-14 15:30 11.28 69800 458000 (1993) 38700 (1968) 89600 39000 41400 44200 47400 72600 105000 116000 169000 187000
2020-07-14 14:30 11.22 69400 458000 (1993) 38700 (1968) 89600 39000 41400 44200 47400 72600 105000 116000 169000 187000
2020-07-14 13:30 11.28 69800 458000 (1993) 38700 (1968) 89600 39000 41400 44200 47400 72600 105000 116000 169000 187000
2020-07-14 12:30 11.18 69100 458000 (1993) 38700 (1968) 89600 39000 41400 44200 47400 72600 105000 116000 169000 187000
2020-07-14 11:30 11.15 68900 458000 (1993) 38700 (1968) 89600 39000 41400 44200 47400 72600 105000 116000 169000 187000
2020-07-14 10:30 11.14 68800 458000 (1993) 38700 (1968) 89600 39000 41400 44200 47400 72600 105000 116000 169000 187000
2020-07-14 09:30 11.19 69200 458000 (1993) 38700 (1968) 89600 39000 41400 44200 47400 72600 105000 116000 169000 187000
2020-07-14 08:30 11.21 69300 458000 (1993) 38700 (1968) 89600 39000 41400 44200 47400 72600 105000 116000 169000 187000
2020-07-14 07:30 11.23 69500 458000 (1993) 38700 (1968) 89600 39000 41400 44200 47400 72600 105000 116000 169000 187000
2020-07-14 06:30 11.26 69700 458000 (1993) 38700 (1968) 89600 39000 41400 44200 47400 72600 105000 116000 169000 187000
2020-07-14 05:30 11.18 69100 458000 (1993) 38700 (1968) 89600 39000 41400 44200 47400 72600 105000 116000 169000 187000
2020-07-14 04:30 11.15 68900 458000 (1993) 38700 (1968) 89600 39000 41400 44200 47400 72600 105000 116000 169000 187000
2020-07-14 03:30 11.19 69200 458000 (1993) 38700 (1968) 89600 39000 41400 44200 47400 72600 105000 116000 169000 187000
2020-07-14 02:30 11.17 69000 458000 (1993) 38700 (1968) 89600 39000 41400 44200 47400 72600 105000 116000 169000 187000
2020-07-14 01:30 11.23 69500 458000 (1993) 38700 (1968) 89600 39000 41400 44200 47400 72600 105000 116000 169000 187000
2020-07-14 00:30 11.25 69600 458000 (1993) 38700 (1968) 89600 39000 41400 44200 47400 72600 105000 116000 169000 187000
2020-07-13 23:30 11.24 69500 400000 (1993) 36700 (2006) 89100 39800 41100 45300 47800 74900 103000 124000 173000 207000
2020-07-13 22:30 11.29 69900 400000 (1993) 36700 (2006) 89100 39800 41100 45300 47800 74900 103000 124000 173000 207000
2020-07-13 21:30 11.28 69800 400000 (1993) 36700 (2006) 89100 39800 41100 45300 47800 74900 103000 124000 173000 207000
2020-07-13 20:30 11.27 69800 400000 (1993) 36700 (2006) 89100 39800 41100 45300 47800 74900 103000 124000 173000 207000
2020-07-13 19:30 11.27 69800 400000 (1993) 36700 (2006) 89100 39800 41100 45300 47800 74900 103000 124000 173000 207000
2020-07-13 18:30 11.23 69500 400000 (1993) 36700 (2006) 89100 39800 41100 45300 47800 74900 103000 124000 173000 207000
2020-07-13 17:30 11.27 69800 400000 (1993) 36700 (2006) 89100 39800 41100 45300 47800 74900 103000 124000 173000 207000
2020-07-13 16:30 11.22 69400 400000 (1993) 36700 (2006) 89100 39800 41100 45300 47800 74900 103000 124000 173000 207000
2020-07-13 15:30 11.29 69900 400000 (1993) 36700 (2006) 89100 39800 41100 45300 47800 74900 103000 124000 173000 207000
2020-07-13 14:30 11.29 69900 400000 (1993) 36700 (2006) 89100 39800 41100 45300 47800 74900 103000 124000 173000 207000
2020-07-13 13:30 11.32 70100 400000 (1993) 36700 (2006) 89100 39800 41100 45300 47800 74900 103000 124000 173000 207000
2020-07-13 12:30 11.39 70700 400000 (1993) 36700 (2006) 89100 39800 41100 45300 47800 74900 103000 124000 173000 207000
2020-07-13 11:30 11.37 70500 400000 (1993) 36700 (2006) 89100 39800 41100 45300 47800 74900 103000 124000 173000 207000
2020-07-13 10:30 11.44 71000 400000 (1993) 36700 (2006) 89100 39800 41100 45300 47800 74900 103000 124000 173000 207000
2020-07-13 09:30 11.47 71300 400000 (1993) 36700 (2006) 89100 39800 41100 45300 47800 74900 103000 124000 173000 207000
2020-07-13 08:30 11.43 71000 400000 (1993) 36700 (2006) 89100 39800 41100 45300 47800 74900 103000 124000 173000 207000
2020-07-13 07:30 11.45 71100 400000 (1993) 36700 (2006) 89100 39800 41100 45300 47800 74900 103000 124000 173000 207000
2020-07-13 06:30 11.52 71600 400000 (1993) 36700 (2006) 89100 39800 41100 45300 47800 74900 103000 124000 173000 207000
2020-07-13 05:30 11.54 71800 400000 (1993) 36700 (2006) 89100 39800 41100 45300 47800 74900 103000 124000 173000 207000
2020-07-13 04:30 11.55 71900 400000 (1993) 36700 (2006) 89100 39800 41100 45300 47800 74900 103000 124000 173000 207000
2020-07-13 03:30 11.57 72000 400000 (1993) 36700 (2006) 89100 39800 41100 45300 47800 74900 103000 124000 173000 207000
2020-07-13 02:30 11.61 72300 400000 (1993) 36700 (2006) 89100 39800 41100 45300 47800 74900 103000 124000 173000 207000
2020-07-13 01:30 11.63 72500 400000 (1993) 36700 (2006) 89100 39800 41100 45300 47800 74900 103000 124000 173000 207000
2020-07-13 00:30 11.63 72500 400000 (1993) 36700 (2006) 89100 39800 41100 45300 47800 74900 103000 124000 173000 207000
2020-07-12 23:30 11.65 72600 375000 (1993) 36000 (2006) 88500 39500 40800 46500 48900 70900 106000 120000 159000 230000
2020-07-12 22:30 11.67 72800 375000 (1993) 36000 (2006) 88500 39500 40800 46500 48900 70900 106000 120000 159000 230000
2020-07-12 21:30 11.56 71900 375000 (1993) 36000 (2006) 88500 39500 40800 46500 48900 70900 106000 120000 159000 230000
2020-07-12 20:30 11.70 73000 375000 (1993) 36000 (2006) 88500 39500 40800 46500 48900 70900 106000 120000 159000 230000
2020-07-12 19:30 11.71 73100 375000 (1993) 36000 (2006) 88500 39500 40800 46500 48900 70900 106000 120000 159000 230000
2020-07-12 18:30 11.73 73200 375000 (1993) 36000 (2006) 88500 39500 40800 46500 48900 70900 106000 120000 159000 230000
2020-07-12 17:30 11.73 73200 375000 (1993) 36000 (2006) 88500 39500 40800 46500 48900 70900 106000 120000 159000 230000
2020-07-12 16:30 11.76 73400 375000 (1993) 36000 (2006) 88500 39500 40800 46500 48900 70900 106000 120000 159000 230000
2020-07-12 15:30 11.67 72800 375000 (1993) 36000 (2006) 88500 39500 40800 46500 48900 70900 106000 120000 159000 230000
2020-07-12 14:30 11.74 73300 375000 (1993) 36000 (2006) 88500 39500 40800 46500 48900 70900 106000 120000 159000 230000
2020-07-12 13:30 11.71 73100 375000 (1993) 36000 (2006) 88500 39500 40800 46500 48900 70900 106000 120000 159000 230000
2020-07-12 12:30 11.78 73600 375000 (1993) 36000 (2006) 88500 39500 40800 46500 48900 70900 106000 120000 159000 230000
2020-07-12 11:30 11.77 73500 375000 (1993) 36000 (2006) 88500 39500 40800 46500 48900 70900 106000 120000 159000 230000
2020-07-12 10:30 11.81 73800 375000 (1993) 36000 (2006) 88500 39500 40800 46500 48900 70900 106000 120000 159000 230000
2020-07-12 09:30 11.78 73600 375000 (1993) 36000 (2006) 88500 39500 40800 46500 48900 70900 106000 120000 159000 230000
2020-07-12 08:30 11.80 73800 375000 (1993) 36000 (2006) 88500 39500 40800 46500 48900 70900 106000 120000 159000 230000
2020-07-12 07:30 11.83 74000 375000 (1993) 36000 (2006) 88500 39500 40800 46500 48900 70900 106000 120000 159000 230000
2020-07-12 06:30 11.84 74100 375000 (1993) 36000 (2006) 88500 39500 40800 46500 48900 70900 106000 120000 159000 230000
2020-07-12 05:30 11.85 74100 375000 (1993) 36000 (2006) 88500 39500 40800 46500 48900 70900 106000 120000 159000 230000
2020-07-12 04:30 11.87 74300 375000 (1993) 36000 (2006) 88500 39500 40800 46500 48900 70900 106000 120000 159000 230000
2020-07-12 03:30 11.89 74500 375000 (1993) 36000 (2006) 88500 39500 40800 46500 48900 70900 106000 120000 159000 230000
2020-07-12 02:30 11.89 74500 375000 (1993) 36000 (2006) 88500 39500 40800 46500 48900 70900 106000 120000 159000 230000
2020-07-12 01:30 11.91 74600 375000 (1993) 36000 (2006) 88500 39500 40800 46500 48900 70900 106000 120000 159000 230000
2020-07-12 00:30 11.89 74500 375000 (1993) 36000 (2006) 88500 39500 40800 46500 48900 70900 106000 120000 159000 230000
2020-07-11 23:30 11.90 74500 318000 (1993) 35300 (2006) 87100 39400 42100 47900 49500 67200 104000 120000 163000 212000
2020-07-11 22:30 11.93 74800 318000 (1993) 35300 (2006) 87100 39400 42100 47900 49500 67200 104000 120000 163000 212000
2020-07-11 21:30 11.92 74700 318000 (1993) 35300 (2006) 87100 39400 42100 47900 49500 67200 104000 120000 163000 212000
2020-07-11 20:30 11.92 74700 318000 (1993) 35300 (2006) 87100 39400 42100 47900 49500 67200 104000 120000 163000 212000
2020-07-11 19:30 11.93 74800 318000 (1993) 35300 (2006) 87100 39400 42100 47900 49500 67200 104000 120000 163000 212000
2020-07-11 18:30 11.93 74800 318000 (1993) 35300 (2006) 87100 39400 42100 47900 49500 67200 104000 120000 163000 212000
2020-07-11 17:30 11.96 75000 318000 (1993) 35300 (2006) 87100 39400 42100 47900 49500 67200 104000 120000 163000 212000
2020-07-11 16:30 11.97 75100 318000 (1993) 35300 (2006) 87100 39400 42100 47900 49500 67200 104000 120000 163000 212000
2020-07-11 15:30 11.97 75100 318000 (1993) 35300 (2006) 87100 39400 42100 47900 49500 67200 104000 120000 163000 212000
2020-07-11 14:30 11.98 75200 318000 (1993) 35300 (2006) 87100 39400 42100 47900 49500 67200 104000 120000 163000 212000
2020-07-11 13:30 11.99 75200 318000 (1993) 35300 (2006) 87100 39400 42100 47900 49500 67200 104000 120000 163000 212000
2020-07-11 12:30 11.93 74800 318000 (1993) 35300 (2006) 87100 39400 42100 47900 49500 67200 104000 120000 163000 212000
2020-07-11 11:30 12.01 75400 318000 (1993) 35300 (2006) 87100 39400 42100 47900 49500 67200 104000 120000 163000 212000
2020-07-11 10:30 12.02 75500 318000 (1993) 35300 (2006) 87100 39400 42100 47900 49500 67200 104000 120000 163000 212000
2020-07-11 09:30 12.05 75700 318000 (1993) 35300 (2006) 87100 39400 42100 47900 49500 67200 104000 120000 163000 212000
2020-07-11 08:30 12.05 75700 318000 (1993) 35300 (2006) 87100 39400 42100 47900 49500 67200 104000 120000 163000 212000
2020-07-11 07:30 12.04 75600 318000 (1993) 35300 (2006) 87100 39400 42100 47900 49500 67200 104000 120000 163000 212000
2020-07-11 06:30 12.09 76000 318000 (1993) 35300 (2006) 87100 39400 42100 47900 49500 67200 104000 120000 163000 212000
2020-07-11 05:30 12.11 76200 318000 (1993) 35300 (2006) 87100 39400 42100 47900 49500 67200 104000 120000 163000 212000
2020-07-11 04:30 12.11 76200 318000 (1993) 35300 (2006) 87100 39400 42100 47900 49500 67200 104000 120000 163000 212000
2020-07-11 03:30 12.12 76300 318000 (1993) 35300 (2006) 87100 39400 42100 47900 49500 67200 104000 120000 163000 212000
2020-07-11 02:30 12.14 76400 318000 (1993) 35300 (2006) 87100 39400 42100 47900 49500 67200 104000 120000 163000 212000
2020-07-11 01:30 12.16 76600 318000 (1993) 35300 (2006) 87100 39400 42100 47900 49500 67200 104000 120000 163000 212000
2020-07-11 00:30 12.17 76600 318000 (1993) 35300 (2006) 87100 39400 42100 47900 49500 67200 104000 120000 163000 212000
2020-07-10 23:30 12.17 76600 301000 (1993) 35500 (2006) 88200 39400 41900 48600 50200 70400 109000 121000 174000 197000
2020-07-10 22:30 12.20 76900 301000 (1993) 35500 (2006) 88200 39400 41900 48600 50200 70400 109000 121000 174000 197000
2020-07-10 21:30 12.21 77000 301000 (1993) 35500 (2006) 88200 39400 41900 48600 50200 70400 109000 121000 174000 197000
2020-07-10 20:30 12.21 77000 301000 (1993) 35500 (2006) 88200 39400 41900 48600 50200 70400 109000 121000 174000 197000
2020-07-10 19:30 12.23 77100 301000 (1993) 35500 (2006) 88200 39400 41900 48600 50200 70400 109000 121000 174000 197000
2020-07-10 18:30 12.25 77300 301000 (1993) 35500 (2006) 88200 39400 41900 48600 50200 70400 109000 121000 174000 197000
2020-07-10 17:30 12.26 77400 301000 (1993) 35500 (2006) 88200 39400 41900 48600 50200 70400 109000 121000 174000 197000
2020-07-10 16:30 12.29 77600 301000 (1993) 35500 (2006) 88200 39400 41900 48600 50200 70400 109000 121000 174000 197000
2020-07-10 15:30 12.31 77800 301000 (1993) 35500 (2006) 88200 39400 41900 48600 50200 70400 109000 121000 174000 197000
2020-07-10 14:30 12.32 77800 301000 (1993) 35500 (2006) 88200 39400 41900 48600 50200 70400 109000 121000 174000 197000
2020-07-10 13:30 12.34 78000 301000 (1993) 35500 (2006) 88200 39400 41900 48600 50200 70400 109000 121000 174000 197000
2020-07-10 12:30 12.34 78000 301000 (1993) 35500 (2006) 88200 39400 41900 48600 50200 70400 109000 121000 174000 197000
2020-07-10 11:30 12.34 78000 301000 (1993) 35500 (2006) 88200 39400 41900 48600 50200 70400 109000 121000 174000 197000
2020-07-10 10:30 12.36 78200 301000 (1993) 35500 (2006) 88200 39400 41900 48600 50200 70400 109000 121000 174000 197000
2020-07-10 09:30 12.36 78200 301000 (1993) 35500 (2006) 88200 39400 41900 48600 50200 70400 109000 121000 174000 197000
2020-07-10 08:30 12.34 78000 301000 (1993) 35500 (2006) 88200 39400 41900 48600 50200 70400 109000 121000 174000 197000
2020-07-10 07:30 12.39 78400 301000 (1993) 35500 (2006) 88200 39400 41900 48600 50200 70400 109000 121000 174000 197000
2020-07-10 06:30 12.41 78600 301000 (1993) 35500 (2006) 88200 39400 41900 48600 50200 70400 109000 121000 174000 197000
2020-07-10 05:30 12.41 78600 301000 (1993) 35500 (2006) 88200 39400 41900 48600 50200 70400 109000 121000 174000 197000
2020-07-10 04:30 12.42 78700 301000 (1993) 35500 (2006) 88200 39400 41900 48600 50200 70400 109000 121000 174000 197000
2020-07-10 03:30 12.43 78700 301000 (1993) 35500 (2006) 88200 39400 41900 48600 50200 70400 109000 121000 174000 197000
2020-07-10 02:30 12.44 78800 301000 (1993) 35500 (2006) 88200 39400 41900 48600 50200 70400 109000 121000 174000 197000
2020-07-10 01:30 12.46 79000 301000 (1993) 35500 (2006) 88200 39400 41900 48600 50200 70400 109000 121000 174000 197000
2020-07-10 00:30 12.46 79000 301000 (1993) 35500 (2006) 88200 39400 41900 48600 50200 70400 109000 121000 174000 197000
2020-07-09 23:30 12.48 79100 312000 (1993) 36000 (2006) 91700 39000 43300 49100 51500 71300 109000 124000 191000 210000
2020-07-09 22:30 12.49 79200 312000 (1993) 36000 (2006) 91700 39000 43300 49100 51500 71300 109000 124000 191000 210000
2020-07-09 21:30 12.51 79400 312000 (1993) 36000 (2006) 91700 39000 43300 49100 51500 71300 109000 124000 191000 210000
2020-07-09 20:30 12.50 79300 312000 (1993) 36000 (2006) 91700 39000 43300 49100 51500 71300 109000 124000 191000 210000
2020-07-09 19:30 12.46 79000 312000 (1993) 36000 (2006) 91700 39000 43300 49100 51500 71300 109000 124000 191000 210000
2020-07-09 18:30 12.36 78200 312000 (1993) 36000 (2006) 91700 39000 43300 49100 51500 71300 109000 124000 191000 210000
2020-07-09 17:30 12.41 78600 312000 (1993) 36000 (2006) 91700 39000 43300 49100 51500 71300 109000 124000 191000 210000
2020-07-09 16:30 12.46 79000 312000 (1993) 36000 (2006) 91700 39000 43300 49100 51500 71300 109000 124000 191000 210000
2020-07-09 15:30 12.49 79200 312000 (1993) 36000 (2006) 91700 39000 43300 49100 51500 71300 109000 124000 191000 210000
2020-07-09 14:30 12.48 79100 312000 (1993) 36000 (2006) 91700 39000 43300 49100 51500 71300 109000 124000 191000 210000
2020-07-09 13:30 12.55 79700 312000 (1993) 36000 (2006) 91700 39000 43300 49100 51500 71300 109000 124000 191000 210000
2020-07-09 12:30 12.51 79400 312000 (1993) 36000 (2006) 91700 39000 43300 49100 51500 71300 109000 124000 191000 210000
2020-07-09 11:30 12.51 79400 312000 (1993) 36000 (2006) 91700 39000 43300 49100 51500 71300 109000 124000 191000 210000
2020-07-09 10:30 12.49 79200 312000 (1993) 36000 (2006) 91700 39000 43300 49100 51500 71300 109000 124000 191000 210000
2020-07-09 09:30 12.52 79500 312000 (1993) 36000 (2006) 91700 39000 43300 49100 51500 71300 109000 124000 191000 210000
2020-07-09 08:30 12.54 79600 312000 (1993) 36000 (2006) 91700 39000 43300 49100 51500 71300 109000 124000 191000 210000
2020-07-09 07:30 12.57 79900 312000 (1993) 36000 (2006) 91700 39000 43300 49100 51500 71300 109000 124000 191000 210000
2020-07-09 06:30 12.58 80000 312000 (1993) 36000 (2006) 91700 39000 43300 49100 51500 71300 109000 124000 191000 210000
2020-07-09 05:30 12.57 79900 312000 (1993) 36000 (2006) 91700 39000 43300 49100 51500 71300 109000 124000 191000 210000
2020-07-09 04:30 12.58 80000 312000 (1993) 36000 (2006) 91700 39000 43300 49100 51500 71300 109000 124000 191000 210000
2020-07-09 03:30 12.59 80000 312000 (1993) 36000 (2006) 91700 39000 43300 49100 51500 71300 109000 124000 191000 210000
2020-07-09 02:30 12.61 80200 312000 (1993) 36000 (2006) 91700 39000 43300 49100 51500 71300 109000 124000 191000 210000
2020-07-09 01:30 12.61 80200 312000 (1993) 36000 (2006) 91700 39000 43300 49100 51500 71300 109000 124000 191000 210000
2020-07-09 00:30 12.63 80400 312000 (1993) 36000 (2006) 91700 39000 43300 49100 51500 71300 109000 124000 191000 210000
2020-07-08 23:30 12.65 80500 303000 (1993) 36600 (2006) 92700 39300 44400 49500 51800 79000 105000 127000 190000 216000
2020-07-08 22:30 12.65 80500 303000 (1993) 36600 (2006) 92700 39300 44400 49500 51800 79000 105000 127000 190000 216000
2020-07-08 21:30 12.67 80700 303000 (1993) 36600 (2006) 92700 39300 44400 49500 51800 79000 105000 127000 190000 216000
2020-07-08 20:30 12.68 80800 303000 (1993) 36600 (2006) 92700 39300 44400 49500 51800 79000 105000 127000 190000 216000
2020-07-08 19:30 12.68 80800 303000 (1993) 36600 (2006) 92700 39300 44400 49500 51800 79000 105000 127000 190000 216000
2020-07-08 18:30 12.70 80900 303000 (1993) 36600 (2006) 92700 39300 44400 49500 51800 79000 105000 127000 190000 216000
2020-07-08 17:30 12.72 81100 303000 (1993) 36600 (2006) 92700 39300 44400 49500 51800 79000 105000 127000 190000 216000
2020-07-08 16:30 12.71 81000 303000 (1993) 36600 (2006) 92700 39300 44400 49500 51800 79000 105000 127000 190000 216000
2020-07-08 15:30 12.77 81500 303000 (1993) 36600 (2006) 92700 39300 44400 49500 51800 79000 105000 127000 190000 216000
2020-07-08 14:30 12.80 81800 303000 (1993) 36600 (2006) 92700 39300 44400 49500 51800 79000 105000 127000 190000 216000
2020-07-08 13:30 12.83 82000 303000 (1993) 36600 (2006) 92700 39300 44400 49500 51800 79000 105000 127000 190000 216000
2020-07-08 12:30 12.84 82100 303000 (1993) 36600 (2006) 92700 39300 44400 49500 51800 79000 105000 127000 190000 216000
2020-07-08 11:30 12.82 81900 303000 (1993) 36600 (2006) 92700 39300 44400 49500 51800 79000 105000 127000 190000 216000
2020-07-08 10:30 12.81 81900 303000 (1993) 36600 (2006) 92700 39300 44400 49500 51800 79000 105000 127000 190000 216000
2020-07-08 09:30 12.88 82400 303000 (1993) 36600 (2006) 92700 39300 44400 49500 51800 79000 105000 127000 190000 216000
2020-07-08 08:30 12.91 82700 303000 (1993) 36600 (2006) 92700 39300 44400 49500 51800 79000 105000 127000 190000 216000
2020-07-08 07:30 12.94 82900 303000 (1993) 36600 (2006) 92700 39300 44400 49500 51800 79000 105000 127000 190000 216000
2020-07-08 06:30 12.97 83200 303000 (1993) 36600 (2006) 92700 39300 44400 49500 51800 79000 105000 127000 190000 216000
2020-07-08 05:30 12.99 83400 303000 (1993) 36600 (2006) 92700 39300 44400 49500 51800 79000 105000 127000 190000 216000
2020-07-08 04:30 12.99 83400 303000 (1993) 36600 (2006) 92700 39300 44400 49500 51800 79000 105000 127000 190000 216000
2020-07-08 03:30 13.01 83500 303000 (1993) 36600 (2006) 92700 39300 44400 49500 51800 79000 105000 127000 190000 216000
2020-07-08 02:30 13.05 83900 303000 (1993) 36600 (2006) 92700 39300 44400 49500 51800 79000 105000 127000 190000 216000
2020-07-08 01:30 13.08 84100 303000 (1993) 36600 (2006) 92700 39300 44400 49500 51800 79000 105000 127000 190000 216000
2020-07-08 00:30 13.10 84300 303000 (1993) 36600 (2006) 92700 39300 44400 49500 51800 79000 105000 127000 190000 216000
2020-07-07 23:30 13.13 84600 283000 (1993) 38000 (2006) 92300 39900 44200 48900 52700 82300 106000 113000 176000 208000
2020-07-07 22:30 13.17 84900 283000 (1993) 38000 (2006) 92300 39900 44200 48900 52700 82300 106000 113000 176000 208000
2020-07-07 21:30 13.18 85000 283000 (1993) 38000 (2006) 92300 39900 44200 48900 52700 82300 106000 113000 176000 208000
2020-07-07 20:30 13.21 85200 283000 (1993) 38000 (2006) 92300 39900 44200 48900 52700 82300 106000 113000 176000 208000
2020-07-07 19:30 13.21 85200 283000 (1993) 38000 (2006) 92300 39900 44200 48900 52700 82300 106000 113000 176000 208000
2020-07-07 18:30 13.23 85400 283000 (1993) 38000 (2006) 92300 39900 44200 48900 52700 82300 106000 113000 176000 208000
2020-07-07 17:30 13.20 85200 283000 (1993) 38000 (2006) 92300 39900 44200 48900 52700 82300 106000 113000 176000 208000
2020-07-07 16:30 13.30 86000 283000 (1993) 38000 (2006) 92300 39900 44200 48900 52700 82300 106000 113000 176000 208000
2020-07-07 15:30 13.32 86200 283000 (1993) 38000 (2006) 92300 39900 44200 48900 52700 82300 106000 113000 176000 208000
2020-07-07 14:30 13.33 86300 283000 (1993) 38000 (2006) 92300 39900 44200 48900 52700 82300 106000 113000 176000 208000
2020-07-07 13:30 13.35 86500 283000 (1993) 38000 (2006) 92300 39900 44200 48900 52700 82300 106000 113000 176000 208000
2020-07-07 12:30 13.35 86500 283000 (1993) 38000 (2006) 92300 39900 44200 48900 52700 82300 106000 113000 176000 208000
2020-07-07 11:30 13.35 86500 283000 (1993) 38000 (2006) 92300 39900 44200 48900 52700 82300 106000 113000 176000 208000
2020-07-07 10:30 13.30 86000 283000 (1993) 38000 (2006) 92300 39900 44200 48900 52700 82300 106000 113000 176000 208000
2020-07-07 09:30 13.46 87400 283000 (1993) 38000 (2006) 92300 39900 44200 48900 52700 82300 106000 113000 176000 208000
2020-07-07 08:30 13.49 87700 283000 (1993) 38000 (2006) 92300 39900 44200 48900 52700 82300 106000 113000 176000 208000
2020-07-07 07:30 13.51 87900 283000 (1993) 38000 (2006) 92300 39900 44200 48900 52700 82300 106000 113000 176000 208000
2020-07-07 06:30 13.55 88200 283000 (1993) 38000 (2006) 92300 39900 44200 48900 52700 82300 106000 113000 176000 208000
2020-07-07 05:30 13.56 88300 283000 (1993) 38000 (2006) 92300 39900 44200 48900 52700 82300 106000 113000 176000 208000
2020-07-07 04:30 13.59 88600 283000 (1993) 38000 (2006) 92300 39900 44200 48900 52700 82300 106000 113000 176000 208000
2020-07-07 03:30 13.61 88700 283000 (1993) 38000 (2006) 92300 39900 44200 48900 52700 82300 106000 113000 176000 208000
2020-07-07 02:30 13.64 89000 283000 (1993) 38000 (2006) 92300 39900 44200 48900 52700 82300 106000 113000 176000 208000
2020-07-07 01:30 13.68 89400 283000 (1993) 38000 (2006) 92300 39900 44200 48900 52700 82300 106000 113000 176000 208000
2020-07-07 00:30 13.72 89700 283000 (1993) 38000 (2006) 92300 39900 44200 48900 52700 82300 106000 113000 176000 208000
2020-07-06 23:30 13.73 89800 273000 (1993) 38500 (2006) 94300 40400 43400 49800 54900 82500 119000 129000 168000 215000
2020-07-06 22:30 13.81 90500 273000 (1993) 38500 (2006) 94300 40400 43400 49800 54900 82500 119000 129000 168000 215000
2020-07-06 21:30 13.85 90900 273000 (1993) 38500 (2006) 94300 40400 43400 49800 54900 82500 119000 129000 168000 215000
2020-07-06 20:30 13.86 91000 273000 (1993) 38500 (2006) 94300 40400 43400 49800 54900 82500 119000 129000 168000 215000
2020-07-06 19:30 13.91 91400 273000 (1993) 38500 (2006) 94300 40400 43400 49800 54900 82500 119000 129000 168000 215000
2020-07-06 18:30 13.93 91600 273000 (1993) 38500 (2006) 94300 40400 43400 49800 54900 82500 119000 129000 168000 215000
2020-07-06 17:30 13.97 92000 273000 (1993) 38500 (2006) 94300 40400 43400 49800 54900 82500 119000 129000 168000 215000
2020-07-06 16:30 14.02 92400 273000 (1993) 38500 (2006) 94300 40400 43400 49800 54900 82500 119000 129000 168000 215000
2020-07-06 15:30 14.03 92500 273000 (1993) 38500 (2006) 94300 40400 43400 49800 54900 82500 119000 129000 168000 215000
2020-07-06 14:30 14.10 93200 273000 (1993) 38500 (2006) 94300 40400 43400 49800 54900 82500 119000 129000 168000 215000
2020-07-06 13:30 14.12 93400 273000 (1993) 38500 (2006) 94300 40400 43400 49800 54900 82500 119000 129000 168000 215000
2020-07-06 12:30 14.16 93700 273000 (1993) 38500 (2006) 94300 40400 43400 49800 54900 82500 119000 129000 168000 215000
2020-07-06 11:30 14.22 94300 273000 (1993) 38500 (2006) 94300 40400 43400 49800 54900 82500 119000 129000 168000 215000
2020-07-06 10:30 14.24 94500 273000 (1993) 38500 (2006) 94300 40400 43400 49800 54900 82500 119000 129000 168000 215000
2020-07-06 09:30 14.32 95200 273000 (1993) 38500 (2006) 94300 40400 43400 49800 54900 82500 119000 129000 168000 215000
2020-07-06 08:30 14.34 95400 273000 (1993) 38500 (2006) 94300 40400 43400 49800 54900 82500 119000 129000 168000 215000
2020-07-06 07:30 14.41 96100 273000 (1993) 38500 (2006) 94300 40400 43400 49800 54900 82500 119000 129000 168000 215000
2020-07-06 06:30 14.46 96500 273000 (1993) 38500 (2006) 94300 40400 43400 49800 54900 82500 119000 129000 168000 215000
2020-07-06 05:30 14.54 97300 273000 (1993) 38500 (2006) 94300 40400 43400 49800 54900 82500 119000 129000 168000 215000
2020-07-06 04:30 14.60 97900 273000 (1993) 38500 (2006) 94300 40400 43400 49800 54900 82500 119000 129000 168000 215000
2020-07-06 03:30 14.62 98100 273000 (1993) 38500 (2006) 94300 40400 43400 49800 54900 82500 119000 129000 168000 215000
2020-07-06 02:30 14.65 98400 273000 (1993) 38500 (2006) 94300 40400 43400 49800 54900 82500 119000 129000 168000 215000
2020-07-06 01:30 14.68 98600 273000 (1993) 38500 (2006) 94300 40400 43400 49800 54900 82500 119000 129000 168000 215000
2020-07-06 00:30 14.72 99000 273000 (1993) 38500 (2006) 94300 40400 43400 49800 54900 82500 119000 129000 168000 215000
2020-07-05 23:30 14.68 98600 282000 (1993) 39700 (2002) 96300 41800 44100 51800 53400 77600 132000 136000 172000 217000
2020-07-05 22:30 14.75 99300 282000 (1993) 39700 (2002) 96300 41800 44100 51800 53400 77600 132000 136000 172000 217000
2020-07-05 21:30 14.78 99600 282000 (1993) 39700 (2002) 96300 41800 44100 51800 53400 77600 132000 136000 172000 217000
2020-07-05 20:30 14.80 99800 282000 (1993) 39700 (2002) 96300 41800 44100 51800 53400 77600 132000 136000 172000 217000
2020-07-05 19:30 14.85 100000 282000 (1993) 39700 (2002) 96300 41800 44100 51800 53400 77600 132000 136000 172000 217000
2020-07-05 18:30 14.87 100000 282000 (1993) 39700 (2002) 96300 41800 44100 51800 53400 77600 132000 136000 172000 217000
2020-07-05 17:30 14.90 101000 282000 (1993) 39700 (2002) 96300 41800 44100 51800 53400 77600 132000 136000 172000 217000
2020-07-05 16:30 14.90 101000 282000 (1993) 39700 (2002) 96300 41800 44100 51800 53400 77600 132000 136000 172000 217000
2020-07-05 15:30 14.88 101000 282000 (1993) 39700 (2002) 96300 41800 44100 51800 53400 77600 132000 136000 172000 217000
2020-07-05 14:30 14.90 101000 282000 (1993) 39700 (2002) 96300 41800 44100 51800 53400 77600 132000 136000 172000 217000
2020-07-05 13:30 14.85 100000 282000 (1993) 39700 (2002) 96300 41800 44100 51800 53400 77600 132000 136000 172000 217000
2020-07-05 12:30 14.88 101000 282000 (1993) 39700 (2002) 96300 41800 44100 51800 53400 77600 132000 136000 172000 217000
2020-07-05 11:30 14.88 101000 282000 (1993) 39700 (2002) 96300 41800 44100 51800 53400 77600 132000 136000 172000 217000
2020-07-05 10:30 14.92 101000 282000 (1993) 39700 (2002) 96300 41800 44100 51800 53400 77600 132000 136000 172000 217000
2020-07-05 09:30 14.93 101000 282000 (1993) 39700 (2002) 96300 41800 44100 51800 53400 77600 132000 136000 172000 217000
2020-07-05 08:30 14.96 101000 282000 (1993) 39700 (2002) 96300 41800 44100 51800 53400 77600 132000 136000 172000 217000
2020-07-05 07:30 14.98 102000 282000 (1993) 39700 (2002) 96300 41800 44100 51800 53400 77600 132000 136000 172000 217000
2020-07-05 06:30 15.02 102000 282000 (1993) 39700 (2002) 96300 41800 44100 51800 53400 77600 132000 136000 172000 217000
2020-07-05 05:30 15.05 102000 282000 (1993) 39700 (2002) 96300 41800 44100 51800 53400 77600 132000 136000 172000 217000
2020-07-05 04:30 15.05 102000 282000 (1993) 39700 (2002) 96300 41800 44100 51800 53400 77600 132000 136000 172000 217000
2020-07-05 03:30 15.05 102000 282000 (1993) 39700 (2002) 96300 41800 44100 51800 53400 77600 132000 136000 172000 217000
2020-07-05 02:30 15.08 103000 282000 (1993) 39700 (2002) 96300 41800 44100 51800 53400 77600 132000 136000 172000 217000
2020-07-05 01:30 15.10 103000 282000 (1993) 39700 (2002) 96300 41800 44100 51800 53400 77600 132000 136000 172000 217000
2020-07-05 00:30 15.13 103000 282000 (1993) 39700 (2002) 96300 41800 44100 51800 53400 77600 132000 136000 172000 217000
2020-07-04 23:30 15.16 103000 275000 (1993) 39600 (2002) 98000 41500 46200 49800 51800 71100 133000 148000 192000 224000
2020-07-04 22:30 15.18 104000 275000 (1993) 39600 (2002) 98000 41500 46200 49800 51800 71100 133000 148000 192000 224000
2020-07-04 21:30 15.18 104000 275000 (1993) 39600 (2002) 98000 41500 46200 49800 51800 71100 133000 148000 192000 224000
2020-07-04 20:30 15.22 104000 275000 (1993) 39600 (2002) 98000 41500 46200 49800 51800 71100 133000 148000 192000 224000
2020-07-04 19:30 15.20 104000 275000 (1993) 39600 (2002) 98000 41500 46200 49800 51800 71100 133000 148000 192000 224000
2020-07-04 18:30 15.20 104000 275000 (1993) 39600 (2002) 98000 41500 46200 49800 51800 71100 133000 148000 192000 224000
2020-07-04 17:30 15.16 103000 275000 (1993) 39600 (2002) 98000 41500 46200 49800 51800 71100 133000 148000 192000 224000
2020-07-04 16:30 15.16 103000 275000 (1993) 39600 (2002) 98000 41500 46200 49800 51800 71100 133000 148000 192000 224000
2020-07-04 15:30 15.17 103000 275000 (1993) 39600 (2002) 98000 41500 46200 49800 51800 71100 133000 148000 192000 224000
2020-07-04 14:30 15.12 103000 275000 (1993) 39600 (2002) 98000 41500 46200 49800 51800 71100 133000 148000 192000 224000
2020-07-04 13:30 15.06 102000 275000 (1993) 39600 (2002) 98000 41500 46200 49800 51800 71100 133000 148000 192000 224000
2020-07-04 12:30 15.15 103000 275000 (1993) 39600 (2002) 98000 41500 46200 49800 51800 71100 133000 148000 192000 224000
2020-07-04 11:30 15.08 103000 275000 (1993) 39600 (2002) 98000 41500 46200 49800 51800 71100 133000 148000 192000 224000
2020-07-04 10:30 15.03 102000 275000 (1993) 39600 (2002) 98000 41500 46200 49800 51800 71100 133000 148000 192000 224000
2020-07-04 09:30 15.01 102000 275000 (1993) 39600 (2002) 98000 41500 46200 49800 51800 71100 133000 148000 192000 224000
2020-07-04 08:30 15.03 102000 275000 (1993) 39600 (2002) 98000 41500 46200 49800 51800 71100 133000 148000 192000 224000
2020-07-04 07:30 15.07 102000 275000 (1993) 39600 (2002) 98000 41500 46200 49800 51800 71100 133000 148000 192000 224000
2020-07-04 06:30 15.06 102000 275000 (1993) 39600 (2002) 98000 41500 46200 49800 51800 71100 133000 148000 192000 224000
2020-07-04 05:30 15.04 102000 275000 (1993) 39600 (2002) 98000 41500 46200 49800 51800 71100 133000 148000 192000 224000
2020-07-04 04:30 15.07 102000 275000 (1993) 39600 (2002) 98000 41500 46200 49800 51800 71100 133000 148000 192000 224000
2020-07-04 03:30 14.95 101000 275000 (1993) 39600 (2002) 98000 41500 46200 49800 51800 71100 133000 148000 192000 224000
2020-07-04 02:30 14.94 101000 275000 (1993) 39600 (2002) 98000 41500 46200 49800 51800 71100 133000 148000 192000 224000
2020-07-04 01:30 14.96 101000 275000 (1993) 39600 (2002) 98000 41500 46200 49800 51800 71100 133000 148000 192000 224000
2020-07-04 00:30 14.96 101000 275000 (1993) 39600 (2002) 98000 41500 46200 49800 51800 71100 133000 148000 192000 224000
2020-07-03 23:30 14.94 101000 256000 (1993) 37800 (2006) 99100 40700 45600 50100 54100 73700 132000 153000 195000 240000
2020-07-03 22:30 14.89 101000 256000 (1993) 37800 (2006) 99100 40700 45600 50100 54100 73700 132000 153000 195000 240000
2020-07-03 21:30 14.87 100000 256000 (1993) 37800 (2006) 99100 40700 45600 50100 54100 73700 132000 153000 195000 240000
2020-07-03 20:30 14.91 101000 256000 (1993) 37800 (2006) 99100 40700 45600 50100 54100 73700 132000 153000 195000 240000
2020-07-03 19:30 14.85 100000 256000 (1993) 37800 (2006) 99100 40700 45600 50100 54100 73700 132000 153000 195000 240000
2020-07-03 18:30 14.81 99900 256000 (1993) 37800 (2006) 99100 40700 45600 50100 54100 73700 132000 153000 195000 240000
2020-07-03 17:30 14.85 100000 256000 (1993) 37800 (2006) 99100 40700 45600 50100 54100 73700 132000 153000 195000 240000
2020-07-03 16:30 14.95 101000 256000 (1993) 37800 (2006) 99100 40700 45600 50100 54100 73700 132000 153000 195000 240000
2020-07-03 15:30 14.95 101000 256000 (1993) 37800 (2006) 99100 40700 45600 50100 54100 73700 132000 153000 195000 240000
2020-07-03 14:30 14.93 101000 256000 (1993) 37800 (2006) 99100 40700 45600 50100 54100 73700 132000 153000 195000 240000
2020-07-03 13:30 14.97 101000 256000 (1993) 37800 (2006) 99100 40700 45600 50100 54100 73700 132000 153000 195000 240000
2020-07-03 12:30 14.90 101000 256000 (1993) 37800 (2006) 99100 40700 45600 50100 54100 73700 132000 153000 195000 240000
2020-07-03 11:30 14.89 101000 256000 (1993) 37800 (2006) 99100 40700 45600 50100 54100 73700 132000 153000 195000 240000
2020-07-03 10:30 14.89 101000 256000 (1993) 37800 (2006) 99100 40700 45600 50100 54100 73700 132000 153000 195000 240000
2020-07-03 09:30 14.93 101000 256000 (1993) 37800 (2006) 99100 40700 45600 50100 54100 73700 132000 153000 195000 240000
2020-07-03 08:30 14.91 101000 256000 (1993) 37800 (2006) 99100 40700 45600 50100 54100 73700 132000 153000 195000 240000
2020-07-03 07:30 14.94 101000 256000 (1993) 37800 (2006) 99100 40700 45600 50100 54100 73700 132000 153000 195000 240000
2020-07-03 06:30 14.99 102000 256000 (1993) 37800 (2006) 99100 40700 45600 50100 54100 73700 132000 153000 195000 240000
2020-07-03 05:30 14.97 101000 256000 (1993) 37800 (2006) 99100 40700 45600 50100 54100 73700 132000 153000 195000 240000
2020-07-03 04:30 14.93 101000 256000 (1993) 37800 (2006) 99100 40700 45600 50100 54100 73700 132000 153000 195000 240000
2020-07-03 03:30 14.95 101000 256000 (1993) 37800 (2006) 99100 40700 45600 50100 54100 73700 132000 153000 195000 240000
2020-07-03 02:30 14.86 100000 256000 (1993) 37800 (2006) 99100 40700 45600 50100 54100 73700 132000 153000 195000 240000
2020-07-03 01:30 14.89 101000 256000 (1993) 37800 (2006) 99100 40700 45600 50100 54100 73700 132000 153000 195000 240000
2020-07-03 00:30 14.87 100000 256000 (1993) 37800 (2006) 99100 40700 45600 50100 54100 73700 132000 153000 195000 240000
2020-07-02 23:30 14.86 100000 266000 (2019) 38400 (2006) 100000 40700 44000 50300 54800 71700 136000 145000 202000 241000
2020-07-02 22:30 14.82 100000 266000 (2019) 38400 (2006) 100000 40700 44000 50300 54800 71700 136000 145000 202000 241000
2020-07-02 21:30 14.79 99700 266000 (2019) 38400 (2006) 100000 40700 44000 50300 54800 71700 136000 145000 202000 241000
2020-07-02 20:30 14.74 99200 266000 (2019) 38400 (2006) 100000 40700 44000 50300 54800 71700 136000 145000 202000 241000
2020-07-02 19:30 14.69 98700 266000 (2019) 38400 (2006) 100000 40700 44000 50300 54800 71700 136000 145000 202000 241000
2020-07-02 18:30 14.67 98600 266000 (2019) 38400 (2006) 100000 40700 44000 50300 54800 71700 136000 145000 202000 241000
2020-07-02 17:30 14.56 97500 266000 (2019) 38400 (2006) 100000 40700 44000 50300 54800 71700 136000 145000 202000 241000
2020-07-02 16:30 14.57 97600 266000 (2019) 38400 (2006) 100000 40700 44000 50300 54800 71700 136000 145000 202000 241000
2020-07-02 15:30 14.52 97100 266000 (2019) 38400 (2006) 100000 40700 44000 50300 54800 71700 136000 145000 202000 241000
2020-07-02 14:30 14.47 96600 266000 (2019) 38400 (2006) 100000 40700 44000 50300 54800 71700 136000 145000 202000 241000
2020-07-02 13:30 14.44 96400 266000 (2019) 38400 (2006) 100000 40700 44000 50300 54800 71700 136000 145000 202000 241000
2020-07-02 12:30 14.35 95500 266000 (2019) 38400 (2006) 100000 40700 44000 50300 54800 71700 136000 145000 202000 241000
2020-07-02 11:30 14.35 95500 266000 (2019) 38400 (2006) 100000 40700 44000 50300 54800 71700 136000 145000 202000 241000
2020-07-02 10:30 14.29 94900 266000 (2019) 38400 (2006) 100000 40700 44000 50300 54800 71700 136000 145000 202000 241000
2020-07-02 09:30 14.24 94500 266000 (2019) 38400 (2006) 100000 40700 44000 50300 54800 71700 136000 145000 202000 241000
2020-07-02 08:30 14.25 94600 266000 (2019) 38400 (2006) 100000 40700 44000 50300 54800 71700 136000 145000 202000 241000
2020-07-02 07:30 14.25 94600 266000 (2019) 38400 (2006) 100000 40700 44000 50300 54800 71700 136000 145000 202000 241000
2020-07-02 06:30 14.20 94100 266000 (2019) 38400 (2006) 100000 40700 44000 50300 54800 71700 136000 145000 202000 241000
2020-07-02 05:30 14.19 94000 266000 (2019) 38400 (2006) 100000 40700 44000 50300 54800 71700 136000 145000 202000 241000
2020-07-02 04:30 14.21 94200 266000 (2019) 38400 (2006) 100000 40700 44000 50300 54800 71700 136000 145000 202000 241000
2020-07-02 03:30 14.19 94000 266000 (2019) 38400 (2006) 100000 40700 44000 50300 54800 71700 136000 145000 202000 241000
2020-07-02 02:30 14.18 93900 266000 (2019) 38400 (2006) 100000 40700 44000 50300 54800 71700 136000 145000 202000 241000
2020-07-02 01:30 14.18 93900 266000 (2019) 38400 (2006) 100000 40700 44000 50300 54800 71700 136000 145000 202000 241000
2020-07-02 00:30 14.15 93600 266000 (2019) 38400 (2006) 100000 40700 44000 50300 54800 71700 136000 145000 202000 241000
2020-07-01 23:30 14.20 94100 288000 (2019) 37100 (1988) 102000 42600 44900 50800 57300 74800 131000 155000 197000 246000
2020-07-01 22:30 14.20 94100 288000 (2019) 37100 (1988) 102000 42600 44900 50800 57300 74800 131000 155000 197000 246000
2020-07-01 21:30 14.22 94300 288000 (2019) 37100 (1988) 102000 42600 44900 50800 57300 74800 131000 155000 197000 246000
2020-07-01 20:30 14.19 94000 288000 (2019) 37100 (1988) 102000 42600 44900 50800 57300 74800 131000 155000 197000 246000
2020-07-01 19:30 14.27 94800 288000 (2019) 37100 (1988) 102000 42600 44900 50800 57300 74800 131000 155000 197000 246000
2020-07-01 18:30 14.29 94900 288000 (2019) 37100 (1988) 102000 42600 44900 50800 57300 74800 131000 155000 197000 246000
2020-07-01 17:30 14.27 94800 288000 (2019) 37100 (1988) 102000 42600 44900 50800 57300 74800 131000 155000 197000 246000
2020-07-01 16:30 14.25 94600 288000 (2019) 37100 (1988) 102000 42600 44900 50800 57300 74800 131000 155000 197000 246000
2020-07-01 15:30 14.35 95500 288000 (2019) 37100 (1988) 102000 42600 44900 50800 57300 74800 131000 155000 197000 246000
2020-07-01 14:30 14.39 98000 288000 (2019) 37100 (1988) 102000 42600 44900 50800 57300 74800 131000 155000 197000 246000
2020-07-01 13:30 14.42 98300 288000 (2019) 37100 (1988) 102000 42600 44900 50800 57300 74800 131000 155000 197000 246000
2020-07-01 12:30 14.45 98600 288000 (2019) 37100 (1988) 102000 42600 44900 50800 57300 74800 131000 155000 197000 246000
2020-07-01 11:30 14.43 98400 288000 (2019) 37100 (1988) 102000 42600 44900 50800 57300 74800 131000 155000 197000 246000
2020-07-01 10:30 14.32 97300 288000 (2019) 37100 (1988) 102000 42600 44900 50800 57300 74800 131000 155000 197000 246000
2020-07-01 09:30 14.44 98500 288000 (2019) 37100 (1988) 102000 42600 44900 50800 57300 74800 131000 155000 197000 246000
2020-07-01 08:30 14.49 98900 288000 (2019) 37100 (1988) 102000 42600 44900 50800 57300 74800 131000 155000 197000 246000
2020-07-01 07:30 14.61 100000 288000 (2019) 37100 (1988) 102000 42600 44900 50800 57300 74800 131000 155000 197000 246000
2020-07-01 06:30 14.67 101000 288000 (2019) 37100 (1988) 102000 42600 44900 50800 57300 74800 131000 155000 197000 246000
2020-07-01 05:30 14.69 101000 288000 (2019) 37100 (1988) 102000 42600 44900 50800 57300 74800 131000 155000 197000 246000
2020-07-01 04:30 14.74 101000 288000 (2019) 37100 (1988) 102000 42600 44900 50800 57300 74800 131000 155000 197000 246000
2020-07-01 03:30 14.77 102000 288000 (2019) 37100 (1988) 102000 42600 44900 50800 57300 74800 131000 155000 197000 246000
2020-07-01 02:30 14.79 102000 288000 (2019) 37100 (1988) 102000 42600 44900 50800 57300 74800 131000 155000 197000 246000
2020-07-01 01:30 14.79 102000 288000 (2019) 37100 (1988) 102000 42600 44900 50800 57300 74800 131000 155000 197000 246000
2020-07-01 00:30 14.78 102000 288000 (2019) 37100 (1988) 102000 42600 44900 50800 57300 74800 131000 155000 197000 246000
2020-06-30 23:30 14.82 102000 307000 (2019) 37200 (1988) 101000 40700 45700 54500 57500 74200 128000 140000 192000 249000
2020-06-30 22:30 14.88 103000 307000 (2019) 37200 (1988) 101000 40700 45700 54500 57500 74200 128000 140000 192000 249000
2020-06-30 21:30 14.90 103000 307000 (2019) 37200 (1988) 101000 40700 45700 54500 57500 74200 128000 140000 192000 249000
2020-06-30 20:30 14.97 104000 307000 (2019) 37200 (1988) 101000 40700 45700 54500 57500 74200 128000 140000 192000 249000
2020-06-30 19:30 15.07 105000 307000 (2019) 37200 (1988) 101000 40700 45700 54500 57500 74200 128000 140000 192000 249000
2020-06-30 18:30 15.07 105000 307000 (2019) 37200 (1988) 101000 40700 45700 54500 57500 74200 128000 140000 192000 249000
2020-06-30 17:30 15.06 105000 307000 (2019) 37200 (1988) 101000 40700 45700 54500 57500 74200 128000 140000 192000 249000
2020-06-30 16:30 15.09 105000 307000 (2019) 37200 (1988) 101000 40700 45700 54500 57500 74200 128000 140000 192000 249000
2020-06-30 15:30 15.25 106000 307000 (2019) 37200 (1988) 101000 40700 45700 54500 57500 74200 128000 140000 192000 249000
2020-06-30 14:30 15.26 107000 307000 (2019) 37200 (1988) 101000 40700 45700 54500 57500 74200 128000 140000 192000 249000
2020-06-30 13:30 15.31 107000 307000 (2019) 37200 (1988) 101000 40700 45700 54500 57500 74200 128000 140000 192000 249000
2020-06-30 12:30 15.31 107000 307000 (2019) 37200 (1988) 101000 40700 45700 54500 57500 74200 128000 140000 192000 249000
2020-06-30 11:30 15.35 108000 307000 (2019) 37200 (1988) 101000 40700 45700 54500 57500 74200 128000 140000 192000 249000
2020-06-30 10:30 15.41 108000 307000 (2019) 37200 (1988) 101000 40700 45700 54500 57500 74200 128000 140000 192000 249000
2020-06-30 09:30 15.43 108000 307000 (2019) 37200 (1988) 101000 40700 45700 54500 57500 74200 128000 140000 192000 249000
2020-06-30 08:30 15.46 109000 307000 (2019) 37200 (1988) 101000 40700 45700 54500 57500 74200 128000 140000 192000 249000
2020-06-30 07:30 15.50 109000 307000 (2019) 37200 (1988) 101000 40700 45700 54500 57500 74200 128000 140000 192000 249000
2020-06-30 06:30 15.49 109000 307000 (2019) 37200 (1988) 101000 40700 45700 54500 57500 74200 128000 140000 192000 249000
2020-06-30 05:30 15.53 109000 307000 (2019) 37200 (1988) 101000 40700 45700 54500 57500 74200 128000 140000 192000 249000
2020-06-30 04:30 15.54 109000 307000 (2019) 37200 (1988) 101000 40700 45700 54500 57500 74200 128000 140000 192000 249000
2020-06-30 03:30 15.52 109000 307000 (2019) 37200 (1988) 101000 40700 45700 54500 57500 74200 128000 140000 192000 249000
2020-06-30 02:30 15.53 109000 307000 (2019) 37200 (1988) 101000 40700 45700 54500 57500 74200 128000 140000 192000 249000
2020-06-30 01:30 15.54 109000 307000 (2019) 37200 (1988) 101000 40700 45700 54500 57500 74200 128000 140000 192000 249000
2020-06-30 00:30 15.53 109000 307000 (2019) 37200 (1988) 101000 40700 45700 54500 57500 74200 128000 140000 192000 249000
2020-06-29 23:30 15.51 109000 319000 (2019) 37800 (1988) 101000 41800 49200 55300 61700 75600 115000 129000 201000 253000
2020-06-29 22:30 15.51 109000 319000 (2019) 37800 (1988) 101000 41800 49200 55300 61700 75600 115000 129000 201000 253000
2020-06-29 21:30 15.44 108000 319000 (2019) 37800 (1988) 101000 41800 49200 55300 61700 75600 115000 129000 201000 253000
2020-06-29 20:30 15.43 108000 319000 (2019) 37800 (1988) 101000 41800 49200 55300 61700 75600 115000 129000 201000 253000
2020-06-29 19:30 15.41 108000 319000 (2019) 37800 (1988) 101000 41800 49200 55300 61700 75600 115000 129000 201000 253000
2020-06-29 18:30 15.37 108000 319000 (2019) 37800 (1988) 101000 41800 49200 55300 61700 75600 115000 129000 201000 253000
2020-06-29 17:30 15.39 108000 319000 (2019) 37800 (1988) 101000 41800 49200 55300 61700 75600 115000 129000 201000 253000
2020-06-29 16:30 15.35 108000 319000 (2019) 37800 (1988) 101000 41800 49200 55300 61700 75600 115000 129000 201000 253000
2020-06-29 15:30 15.28 107000 319000 (2019) 37800 (1988) 101000 41800 49200 55300 61700 75600 115000 129000 201000 253000
2020-06-29 14:30 15.27 107000 319000 (2019) 37800 (1988) 101000 41800 49200 55300 61700 75600 115000 129000 201000 253000
2020-06-29 13:30 15.22 106000 319000 (2019) 37800 (1988) 101000 41800 49200 55300 61700 75600 115000 129000 201000 253000
2020-06-29 12:30 15.20 106000 319000 (2019) 37800 (1988) 101000 41800 49200 55300 61700 75600 115000 129000 201000 253000
2020-06-29 11:30 15.14 105000 319000 (2019) 37800 (1988) 101000 41800 49200 55300 61700 75600 115000 129000 201000 253000
2020-06-29 10:30 14.99 104000 319000 (2019) 37800 (1988) 101000 41800 49200 55300 61700 75600 115000 129000 201000 253000
2020-06-29 09:30 14.96 104000 319000 (2019) 37800 (1988) 101000 41800 49200 55300 61700 75600 115000 129000 201000 253000
2020-06-29 08:30 14.92 103000 319000 (2019) 37800 (1988) 101000 41800 49200 55300 61700 75600 115000 129000 201000 253000
2020-06-29 07:30 14.90 103000 319000 (2019) 37800 (1988) 101000 41800 49200 55300 61700 75600 115000 129000 201000 253000
2020-06-29 06:30 14.83 102000 319000 (2019) 37800 (1988) 101000 41800 49200 55300 61700 75600 115000 129000 201000 253000
2020-06-29 05:30 14.80 102000 319000 (2019) 37800 (1988) 101000 41800 49200 55300 61700 75600 115000 129000 201000 253000
2020-06-29 04:30 14.73 101000 319000 (2019) 37800 (1988) 101000 41800 49200 55300 61700 75600 115000 129000 201000 253000
2020-06-29 03:30 14.67 101000 319000 (2019) 37800 (1988) 101000 41800 49200 55300 61700 75600 115000 129000 201000 253000
2020-06-29 02:30 14.59 99900 319000 (2019) 37800 (1988) 101000 41800 49200 55300 61700 75600 115000 129000 201000 253000
2020-06-29 01:30 14.53 99300 319000 (2019) 37800 (1988) 101000 41800 49200 55300 61700 75600 115000 129000 201000 253000
2020-06-29 00:30 14.46 98600 319000 (2019) 37800 (1988) 101000 41800 49200 55300 61700 75600 115000 129000 201000 253000
2020-06-28 23:30 14.41 98200 323000 (2019) 37700 (1988) 102000 43400 50400 55600 57600 76200 121000 128000 203000 247000
2020-06-28 22:30 14.32 97300 323000 (2019) 37700 (1988) 102000 43400 50400 55600 57600 76200 121000 128000 203000 247000
2020-06-28 21:30 14.23 96500 323000 (2019) 37700 (1988) 102000 43400 50400 55600 57600 76200 121000 128000 203000 247000
2020-06-28 20:30 14.23 96500 323000 (2019) 37700 (1988) 102000 43400 50400 55600 57600 76200 121000 128000 203000 247000
2020-06-28 19:30 14.20 96200 323000 (2019) 37700 (1988) 102000 43400 50400 55600 57600 76200 121000 128000 203000 247000
2020-06-28 18:30 14.14 95600 323000 (2019) 37700 (1988) 102000 43400 50400 55600 57600 76200 121000 128000 203000 247000
2020-06-28 17:30 14.11 95300 323000 (2019) 37700 (1988) 102000 43400 50400 55600 57600 76200 121000 128000 203000 247000
2020-06-28 16:30 13.99 94200 323000 (2019) 37700 (1988) 102000 43400 50400 55600 57600 76200 121000 128000 203000 247000
2020-06-28 15:30 13.99 94200 323000 (2019) 37700 (1988) 102000 43400 50400 55600 57600 76200 121000 128000 203000 247000
2020-06-28 14:30 13.91 93500 323000 (2019) 37700 (1988) 102000 43400 50400 55600 57600 76200 121000 128000 203000 247000
2020-06-28 13:30 13.88 93200 323000 (2019) 37700 (1988) 102000 43400 50400 55600 57600 76200 121000 128000 203000 247000
2020-06-28 12:30 13.94 93700 323000 (2019) 37700 (1988) 102000 43400 50400 55600 57600 76200 121000 128000 203000 247000
2020-06-28 11:30 13.89 93300 323000 (2019) 37700 (1988) 102000 43400 50400 55600 57600 76200 121000 128000 203000 247000
2020-06-28 10:30 13.85 92900 323000 (2019) 37700 (1988) 102000 43400 50400 55600 57600 76200 121000 128000 203000 247000
2020-06-28 09:30 13.86 93000 323000 (2019) 37700 (1988) 102000 43400 50400 55600 57600 76200 121000 128000 203000 247000
2020-06-28 08:30 13.85 92900 323000 (2019) 37700 (1988) 102000 43400 50400 55600 57600 76200 121000 128000 203000 247000
2020-06-28 07:30 13.88 93200 323000 (2019) 37700 (1988) 102000 43400 50400 55600 57600 76200 121000 128000 203000 247000
2020-06-28 06:30 13.87 93100 323000 (2019) 37700 (1988) 102000 43400 50400 55600 57600 76200 121000 128000 203000 247000
2020-06-28 05:30 13.83 92700 323000 (2019) 37700 (1988) 102000 43400 50400 55600 57600 76200 121000 128000 203000 247000
2020-06-28 04:30 13.83 92700 323000 (2019) 37700 (1988) 102000 43400 50400 55600 57600 76200 121000 128000 203000 247000
2020-06-28 03:30 13.84 92800 323000 (2019) 37700 (1988) 102000 43400 50400 55600 57600 76200 121000 128000 203000 247000
2020-06-28 02:30 13.81 92500 323000 (2019) 37700 (1988) 102000 43400 50400 55600 57600 76200 121000 128000 203000 247000
2020-06-28 01:30 13.87 93100 323000 (2019) 37700 (1988) 102000 43400 50400 55600 57600 76200 121000 128000 203000 247000
2020-06-28 00:30 13.86 93000 323000 (2019) 37700 (1988) 102000 43400 50400 55600 57600 76200 121000 128000 203000 247000
2020-06-27 23:30 13.84 92800 320000 (2019) 37800 (1988) 102000 43400 47500 54400 57300 78100 121000 132000 207000 236000
2020-06-27 22:30 13.85 92900 320000 (2019) 37800 (1988) 102000 43400 47500 54400 57300 78100 121000 132000 207000 236000
2020-06-27 21:30 13.87 93100 320000 (2019) 37800 (1988) 102000 43400 47500 54400 57300 78100 121000 132000 207000 236000
2020-06-27 20:30 13.86 93000 320000 (2019) 37800 (1988) 102000 43400 47500 54400 57300 78100 121000 132000 207000 236000
2020-06-27 19:30 13.89 93300 320000 (2019) 37800 (1988) 102000 43400 47500 54400 57300 78100 121000 132000 207000 236000
2020-06-27 18:30 13.77 92200 320000 (2019) 37800 (1988) 102000 43400 47500 54400 57300 78100 121000 132000 207000 236000
2020-06-27 17:30 13.88 93200 320000 (2019) 37800 (1988) 102000 43400 47500 54400 57300 78100 121000 132000 207000 236000
2020-06-27 16:30 13.89 93300 320000 (2019) 37800 (1988) 102000 43400 47500 54400 57300 78100 121000 132000 207000 236000
2020-06-27 15:30 13.86 93000 320000 (2019) 37800 (1988) 102000 43400 47500 54400 57300 78100 121000 132000 207000 236000
2020-06-27 14:30 13.91 93500 320000 (2019) 37800 (1988) 102000 43400 47500 54400 57300 78100 121000 132000 207000 236000
2020-06-27 13:30 13.89 93300 320000 (2019) 37800 (1988) 102000 43400 47500 54400 57300 78100 121000 132000 207000 236000
2020-06-27 12:30 13.91 93500 320000 (2019) 37800 (1988) 102000 43400 47500 54400 57300 78100 121000 132000 207000 236000
2020-06-27 11:30 13.90 93400 320000 (2019) 37800 (1988) 102000 43400 47500 54400 57300 78100 121000 132000 207000 236000
2020-06-27 10:30 13.80 92400 320000 (2019) 37800 (1988) 102000 43400 47500 54400 57300 78100 121000 132000 207000 236000
2020-06-27 09:30 13.92 93500 320000 (2019) 37800 (1988) 102000 43400 47500 54400 57300 78100 121000 132000 207000 236000
2020-06-27 08:30 13.90 93400 320000 (2019) 37800 (1988) 102000 43400 47500 54400 57300 78100 121000 132000 207000 236000
2020-06-27 07:30 13.92 93500 320000 (2019) 37800 (1988) 102000 43400 47500 54400 57300 78100 121000 132000 207000 236000
2020-06-27 06:30 13.94 93700 320000 (2019) 37800 (1988) 102000 43400 47500 54400 57300 78100 121000 132000 207000 236000
2020-06-27 05:30 13.95 93800 320000 (2019) 37800 (1988) 102000 43400 47500 54400 57300 78100 121000 132000 207000 236000
2020-06-27 04:30 13.95 93800 320000 (2019) 37800 (1988) 102000 43400 47500 54400 57300 78100 121000 132000 207000 236000
2020-06-27 03:30 13.98 94100 320000 (2019) 37800 (1988) 102000 43400 47500 54400 57300 78100 121000 132000 207000 236000
2020-06-27 02:30 13.96 93900 320000 (2019) 37800 (1988) 102000 43400 47500 54400 57300 78100 121000 132000 207000 236000
2020-06-27 01:30 13.98 94100 320000 (2019) 37800 (1988) 102000 43400 47500 54400 57300 78100 121000 132000 207000 236000
2020-06-27 00:30 13.98 94100 320000 (2019) 37800 (1988) 102000 43400 47500 54400 57300 78100 121000 132000 207000 236000
2020-06-26 23:30 13.98 94100 310000 (2019) 38300 (1988) 102000 42100 45700 53900 57400 78700 129000 151000 196000 220000
2020-06-26 22:30 13.95 93800 310000 (2019) 38300 (1988) 102000 42100 45700 53900 57400 78700 129000 151000 196000 220000
2020-06-26 21:30 13.99 94200 310000 (2019) 38300 (1988) 102000 42100 45700 53900 57400 78700 129000 151000 196000 220000
2020-06-26 20:30 13.98 94100 310000 (2019) 38300 (1988) 102000 42100 45700 53900 57400 78700 129000 151000 196000 220000
2020-06-26 19:30 14.00 94300 310000 (2019) 38300 (1988) 102000 42100 45700 53900 57400 78700 129000 151000 196000 220000
2020-06-26 18:30 14.01 94400 310000 (2019) 38300 (1988) 102000 42100 45700 53900 57400 78700 129000 151000 196000 220000
2020-06-26 17:30 14.00 94300 310000 (2019) 38300 (1988) 102000 42100 45700 53900 57400 78700 129000 151000 196000 220000
2020-06-26 16:30 13.96 93900 310000 (2019) 38300 (1988) 102000 42100 45700 53900 57400 78700 129000 151000 196000 220000
2020-06-26 15:30 13.95 93800 310000 (2019) 38300 (1988) 102000 42100 45700 53900 57400 78700 129000 151000 196000 220000
2020-06-26 14:30 13.98 94100 310000 (2019) 38300 (1988) 102000 42100 45700 53900 57400 78700 129000 151000 196000 220000
2020-06-26 13:30 14.04 94700 310000 (2019) 38300 (1988) 102000 42100 45700 53900 57400 78700 129000 151000 196000 220000
2020-06-26 12:30 14.04 94700 310000 (2019) 38300 (1988) 102000 42100 45700 53900 57400 78700 129000 151000 196000 220000
2020-06-26 11:30 14.08 95000 310000 (2019) 38300 (1988) 102000 42100 45700 53900 57400 78700 129000 151000 196000 220000
2020-06-26 10:30 14.10 95200 310000 (2019) 38300 (1988) 102000 42100 45700 53900 57400 78700 129000 151000 196000 220000
2020-06-26 09:30 14.06 94900 310000 (2019) 38300 (1988) 102000 42100 45700 53900 57400 78700 129000 151000 196000 220000
2020-06-26 08:30 14.13 95500 310000 (2019) 38300 (1988) 102000 42100 45700 53900 57400 78700 129000 151000 196000 220000
2020-06-26 07:30 14.15 95700 310000 (2019) 38300 (1988) 102000 42100 45700 53900 57400 78700 129000 151000 196000 220000
2020-06-26 06:30 14.19 96100 310000 (2019) 38300 (1988) 102000 42100 45700 53900 57400 78700 129000 151000 196000 220000
2020-06-26 05:30 14.20 96200 310000 (2019) 38300 (1988) 102000 42100 45700 53900 57400 78700 129000 151000 196000 220000
2020-06-26 04:30 14.21 96300 310000 (2019) 38300 (1988) 102000 42100 45700 53900 57400 78700 129000 151000 196000 220000
2020-06-26 03:30 14.23 96500 310000 (2019) 38300 (1988) 102000 42100 45700 53900 57400 78700 129000 151000 196000 220000
2020-06-26 02:30 14.21 96300 310000 (2019) 38300 (1988) 102000 42100 45700 53900 57400 78700 129000 151000 196000 220000
2020-06-26 01:30 14.27 96800 310000 (2019) 38300 (1988) 102000 42100 45700 53900 57400 78700 129000 151000 196000 220000
2020-06-26 00:30 14.28 96900 310000 (2019) 38300 (1988) 102000 42100 45700 53900 57400 78700 129000 151000 196000 220000
2020-06-25 23:30 14.32 97300 292000 (2019) 38000 (1989) 101000 39900 44700 55400 59500 80200 129000 147000 181000 235000
2020-06-25 22:30 14.33 97400 292000 (2019) 38000 (1989) 101000 39900 44700 55400 59500 80200 129000 147000 181000 235000
2020-06-25 21:30 14.36 97700 292000 (2019) 38000 (1989) 101000 39900 44700 55400 59500 80200 129000 147000 181000 235000
2020-06-25 20:30 14.40 98100 292000 (2019) 38000 (1989) 101000 39900 44700 55400 59500 80200 129000 147000 181000 235000
2020-06-25 19:30 14.41 98200 292000 (2019) 38000 (1989) 101000 39900 44700 55400 59500 80200 129000 147000 181000 235000
2020-06-25 18:30 14.47 98700 292000 (2019) 38000 (1989) 101000 39900 44700 55400 59500 80200 129000 147000 181000 235000
2020-06-25 17:30 14.50 99000 292000 (2019) 38000 (1989) 101000 39900 44700 55400 59500 80200 129000 147000 181000 235000
2020-06-25 16:30 14.51 99100 292000 (2019) 38000 (1989) 101000 39900 44700 55400 59500 80200 129000 147000 181000 235000
2020-06-25 15:30 14.56 99600 292000 (2019) 38000 (1989) 101000 39900 44700 55400 59500 80200 129000 147000 181000 235000
2020-06-25 14:30 14.57 99700 292000 (2019) 38000 (1989) 101000 39900 44700 55400 59500 80200 129000 147000 181000 235000
2020-06-25 13:30 14.59 103000 292000 (2019) 38000 (1989) 101000 39900 44700 55400 59500 80200 129000 147000 181000 235000
2020-06-25 12:30 14.55 103000 292000 (2019) 38000 (1989) 101000 39900 44700 55400 59500 80200 129000 147000 181000 235000
2020-06-25 11:30 14.60 103000 292000 (2019) 38000 (1989) 101000 39900 44700 55400 59500 80200 129000 147000 181000 235000
2020-06-25 10:30 14.63 104000 292000 (2019) 38000 (1989) 101000 39900 44700 55400 59500 80200 129000 147000 181000 235000
2020-06-25 09:30 14.61 104000 292000 (2019) 38000 (1989) 101000 39900 44700 55400 59500 80200 129000 147000 181000 235000
2020-06-25 08:30 14.70 104000 292000 (2019) 38000 (1989) 101000 39900 44700 55400 59500 80200 129000 147000 181000 235000
2020-06-25 07:30 14.76 105000 292000 (2019) 38000 (1989) 101000 39900 44700 55400 59500 80200 129000 147000 181000 235000
2020-06-25 06:30 14.75 105000 292000 (2019) 38000 (1989) 101000 39900 44700 55400 59500 80200 129000 147000 181000 235000
2020-06-25 05:30 14.78 105000 292000 (2019) 38000 (1989) 101000 39900 44700 55400 59500 80200 129000 147000 181000 235000
2020-06-25 04:30 14.82 106000 292000 (2019) 38000 (1989) 101000 39900 44700 55400 59500 80200 129000 147000 181000 235000
2020-06-25 03:30 14.84 106000 292000 (2019) 38000 (1989) 101000 39900 44700 55400 59500 80200 129000 147000 181000 235000
2020-06-25 02:30 14.88 106000 292000 (2019) 38000 (1989) 101000 39900 44700 55400 59500 80200 129000 147000 181000 235000
2020-06-25 01:30 14.91 107000 292000 (2019) 38000 (1989) 101000 39900 44700 55400 59500 80200 129000 147000 181000 235000
2020-06-25 00:30 14.96 107000 292000 (2019) 38000 (1989) 101000 39900 44700 55400 59500 80200 129000 147000 181000 235000
2020-06-24 23:30 14.98 107000 273000 (1967) 37300 (1989) 100000 39100 42200 53700 57900 80400 130000 139000 182000 240000
2020-06-24 22:30 15.00 108000 273000 (1967) 37300 (1989) 100000 39100 42200 53700 57900 80400 130000 139000 182000 240000
2020-06-24 21:30 14.89 106000 273000 (1967) 37300 (1989) 100000 39100 42200 53700 57900 80400 130000 139000 182000 240000
2020-06-24 20:30 15.06 108000 273000 (1967) 37300 (1989) 100000 39100 42200 53700 57900 80400 130000 139000 182000 240000
2020-06-24 19:30 15.08 108000 273000 (1967) 37300 (1989) 100000 39100 42200 53700 57900 80400 130000 139000 182000 240000
2020-06-24 18:30 15.00 108000 273000 (1967) 37300 (1989) 100000 39100 42200 53700 57900 80400 130000 139000 182000 240000
2020-06-24 17:30 15.13 109000 273000 (1967) 37300 (1989) 100000 39100 42200 53700 57900 80400 130000 139000 182000 240000
2020-06-24 16:30 15.08 108000 273000 (1967) 37300 (1989) 100000 39100 42200 53700 57900 80400 130000 139000 182000 240000
2020-06-24 15:30 15.16 109000 273000 (1967) 37300 (1989) 100000 39100 42200 53700 57900 80400 130000 139000 182000 240000
2020-06-24 14:30 15.15 109000 273000 (1967) 37300 (1989) 100000 39100 42200 53700 57900 80400 130000 139000 182000 240000
2020-06-24 13:30 15.20 110000 273000 (1967) 37300 (1989) 100000 39100 42200 53700 57900 80400 130000 139000 182000 240000
2020-06-24 12:30 15.20 110000 273000 (1967) 37300 (1989) 100000 39100 42200 53700 57900 80400 130000 139000 182000 240000
2020-06-24 11:30 15.21 110000 273000 (1967) 37300 (1989) 100000 39100 42200 53700 57900 80400 130000 139000 182000 240000
2020-06-24 10:30 15.19 109000 273000 (1967) 37300 (1989) 100000 39100 42200 53700 57900 80400 130000 139000 182000 240000
2020-06-24 09:30 15.22 110000 273000 (1967) 37300 (1989) 100000 39100 42200 53700 57900 80400 130000 139000 182000 240000
2020-06-24 08:30 15.21 110000 273000 (1967) 37300 (1989) 100000 39100 42200 53700 57900 80400 130000 139000 182000 240000
2020-06-24 07:30 15.19 109000 273000 (1967) 37300 (1989) 100000 39100 42200 53700 57900 80400 130000 139000 182000 240000
2020-06-24 06:30 15.20 110000 273000 (1967) 37300 (1989) 100000 39100 42200 53700 57900 80400 130000 139000 182000 240000
2020-06-24 05:30 15.20 110000 273000 (1967) 37300 (1989) 100000 39100 42200 53700 57900 80400 130000 139000 182000 240000
2020-06-24 04:30 15.19 109000 273000 (1967) 37300 (1989) 100000 39100 42200 53700 57900 80400 130000 139000 182000 240000
2020-06-24 03:30 15.16 109000 273000 (1967) 37300 (1989) 100000 39100 42200 53700 57900 80400 130000 139000 182000 240000
2020-06-24 02:30 15.13 109000 273000 (1967) 37300 (1989) 100000 39100 42200 53700 57900 80400 130000 139000 182000 240000
2020-06-24 01:30 15.13 109000 273000 (1967) 37300 (1989) 100000 39100 42200 53700 57900 80400 130000 139000 182000 240000
2020-06-24 00:30 15.11 109000 273000 (1967) 37300 (1989) 100000 39100 42200 53700 57900 80400 130000 139000 182000 240000
2020-06-23 23:30 15.09 108000 269000 (1967) 37700 (1989) 101000 39100 42100 53700 59900 80900 130000 145000 188000 237000
2020-06-23 22:30 15.09 108000 269000 (1967) 37700 (1989) 101000 39100 42100 53700 59900 80900 130000 145000 188000 237000
2020-06-23 21:30 15.04 108000 269000 (1967) 37700 (1989) 101000 39100 42100 53700 59900 80900 130000 145000 188000 237000
2020-06-23 20:30 15.05 108000 269000 (1967) 37700 (1989) 101000 39100 42100 53700 59900 80900 130000 145000 188000 237000
2020-06-23 19:30 15.01 108000 269000 (1967) 37700 (1989) 101000 39100 42100 53700 59900 80900 130000 145000 188000 237000
2020-06-23 18:30 14.98 107000 269000 (1967) 37700 (1989) 101000 39100 42100 53700 59900 80900 130000 145000 188000 237000
2020-06-23 17:30 14.93 107000 269000 (1967) 37700 (1989) 101000 39100 42100 53700 59900 80900 130000 145000 188000 237000
2020-06-23 16:30 14.96 107000 269000 (1967) 37700 (1989) 101000 39100 42100 53700 59900 80900 130000 145000 188000 237000
2020-06-23 15:30 14.96 107000 269000 (1967) 37700 (1989) 101000 39100 42100 53700 59900 80900 130000 145000 188000 237000
2020-06-23 14:30 14.96 107000 269000 (1967) 37700 (1989) 101000 39100 42100 53700 59900 80900 130000 145000 188000 237000
2020-06-23 13:30 14.96 107000 269000 (1967) 37700 (1989) 101000 39100 42100 53700 59900 80900 130000 145000 188000 237000
2020-06-23 12:30 14.96 107000 269000 (1967) 37700 (1989) 101000 39100 42100 53700 59900 80900 130000 145000 188000 237000
2020-06-23 11:30 14.98 107000 269000 (1967) 37700 (1989) 101000 39100 42100 53700 59900 80900 130000 145000 188000 237000
2020-06-23 10:30 15.01 108000 269000 (1967) 37700 (1989) 101000 39100 42100 53700 59900 80900 130000 145000 188000 237000
2020-06-23 09:30 15.02 108000 269000 (1967) 37700 (1989) 101000 39100 42100 53700 59900 80900 130000 145000 188000 237000
2020-06-23 08:30 15.04 108000 269000 (1967) 37700 (1989) 101000 39100 42100 53700 59900 80900 130000 145000 188000 237000
2020-06-23 07:30 14.99 107000 269000 (1967) 37700 (1989) 101000 39100 42100 53700 59900 80900 130000 145000 188000 237000
2020-06-23 06:30 15.07 108000 269000 (1967) 37700 (1989) 101000 39100 42100 53700 59900 80900 130000 145000 188000 237000
2020-06-23 05:30 15.07 108000 269000 (1967) 37700 (1989) 101000 39100 42100 53700 59900 80900 130000 145000 188000 237000
2020-06-23 04:30 15.09 108000 269000 (1967) 37700 (1989) 101000 39100 42100 53700 59900 80900 130000 145000 188000 237000
2020-06-23 03:30 15.11 109000 269000 (1967) 37700 (1989) 101000 39100 42100 53700 59900 80900 130000 145000 188000 237000
2020-06-23 02:30 15.12 109000 269000 (1967) 37700 (1989) 101000 39100 42100 53700 59900 80900 130000 145000 188000 237000
2020-06-23 01:30 15.11 109000 269000 (1967) 37700 (1989) 101000 39100 42100 53700 59900 80900 130000 145000 188000 237000
2020-06-23 00:30 15.12 109000 269000 (1967) 37700 (1989) 101000 39100 42100 53700 59900 80900 130000 145000 188000 237000
2020-06-22 23:30 15.11 109000 267000 (1967) 37400 (2006) 102000 39200 44100 54700 60700 83800 127000 144000 196000 237000
2020-06-22 22:30 15.10 109000 267000 (1967) 37400 (2006) 102000 39200 44100 54700 60700 83800 127000 144000 196000 237000
2020-06-22 21:30 15.10 109000 267000 (1967) 37400 (2006) 102000 39200 44100 54700 60700 83800 127000 144000 196000 237000
2020-06-22 20:30 15.10 109000 267000 (1967) 37400 (2006) 102000 39200 44100 54700 60700 83800 127000 144000 196000 237000
2020-06-22 19:30 15.10 109000 267000 (1967) 37400 (2006) 102000 39200 44100 54700 60700 83800 127000 144000 196000 237000
2020-06-22 18:30 15.09 108000 267000 (1967) 37400 (2006) 102000 39200 44100 54700 60700 83800 127000 144000 196000 237000
2020-06-22 17:30 15.09 108000 267000 (1967) 37400 (2006) 102000 39200 44100 54700 60700 83800 127000 144000 196000 237000
2020-06-22 16:30 15.07 108000 267000 (1967) 37400 (2006) 102000 39200 44100 54700 60700 83800 127000 144000 196000 237000
2020-06-22 15:30 15.05 108000 267000 (1967) 37400 (2006) 102000 39200 44100 54700 60700 83800 127000 144000 196000 237000
2020-06-22 14:30 15.02 108000 267000 (1967) 37400 (2006) 102000 39200 44100 54700 60700 83800 127000 144000 196000 237000
2020-06-22 13:30 14.98 107000 267000 (1967) 37400 (2006) 102000 39200 44100 54700 60700 83800 127000 144000 196000 237000
2020-06-22 12:30 14.94 107000 267000 (1967) 37400 (2006) 102000 39200 44100 54700 60700 83800 127000 144000 196000 237000
2020-06-22 11:30 14.90 106000 267000 (1967) 37400 (2006) 102000 39200 44100 54700 60700 83800 127000 144000 196000 237000
2020-06-22 10:30 14.89 106000 267000 (1967) 37400 (2006) 102000 39200 44100 54700 60700 83800 127000 144000 196000 237000
2020-06-22 09:30 14.80 105000 267000 (1967) 37400 (2006) 102000 39200 44100 54700 60700 83800 127000 144000 196000 237000
2020-06-22 08:30 14.84 106000 267000 (1967) 37400 (2006) 102000 39200 44100 54700 60700 83800 127000 144000 196000 237000
2020-06-22 07:30 14.80 105000 267000 (1967) 37400 (2006) 102000 39200 44100 54700 60700 83800 127000 144000 196000 237000
2020-06-22 06:30 14.77 105000 267000 (1967) 37400 (2006) 102000 39200 44100 54700 60700 83800 127000 144000 196000 237000
2020-06-22 05:30 14.73 105000 267000 (1967) 37400 (2006) 102000 39200 44100 54700 60700 83800 127000 144000 196000 237000
2020-06-22 04:30 14.70 104000 267000 (1967) 37400 (2006) 102000 39200 44100 54700 60700 83800 127000 144000 196000 237000
2020-06-22 03:30 14.65 104000 267000 (1967) 37400 (2006) 102000 39200 44100 54700 60700 83800 127000 144000 196000 237000
2020-06-22 02:30 14.64 104000 267000 (1967) 37400 (2006) 102000 39200 44100 54700 60700 83800 127000 144000 196000 237000
2020-06-22 01:30 14.62 104000 267000 (1967) 37400 (2006) 102000 39200 44100 54700 60700 83800 127000 144000 196000 237000
2020-06-22 00:30 14.60 103000 267000 (1967) 37400 (2006) 102000 39200 44100 54700 60700 83800 127000 144000 196000 237000
2020-06-21 23:30 14.54 103000 263000 (2010) 37600 (2006) 101000 40000 46600 56600 61600 80700 135000 146000 192000 238000
2020-06-21 22:30 14.37 101000 263000 (2010) 37600 (2006) 101000 40000 46600 56600 61600 80700 135000 146000 192000 238000
2020-06-21 21:30 14.52 103000 263000 (2010) 37600 (2006) 101000 40000 46600 56600 61600 80700 135000 146000 192000 238000
2020-06-21 20:30 14.51 103000 263000 (2010) 37600 (2006) 101000 40000 46600 56600 61600 80700 135000 146000 192000 238000
2020-06-21 19:30 14.52 103000 263000 (2010) 37600 (2006) 101000 40000 46600 56600 61600 80700 135000 146000 192000 238000
2020-06-21 18:30 14.48 102000 263000 (2010) 37600 (2006) 101000 40000 46600 56600 61600 80700 135000 146000 192000 238000
2020-06-21 17:30 14.49 102000 263000 (2010) 37600 (2006) 101000 40000 46600 56600 61600 80700 135000 146000 192000 238000
2020-06-21 16:30 14.47 102000 263000 (2010) 37600 (2006) 101000 40000 46600 56600 61600 80700 135000 146000 192000 238000
2020-06-21 15:30 14.50 102000 263000 (2010) 37600 (2006) 101000 40000 46600 56600 61600 80700 135000 146000 192000 238000
2020-06-21 14:30 14.48 102000 263000 (2010) 37600 (2006) 101000 40000 46600 56600 61600 80700 135000 146000 192000 238000
2020-06-21 13:30 14.45 102000 263000 (2010) 37600 (2006) 101000 40000 46600 56600 61600 80700 135000 146000 192000 238000
2020-06-21 12:30 14.47 102000 263000 (2010) 37600 (2006) 101000 40000 46600 56600 61600 80700 135000 146000 192000 238000
2020-06-21 11:30 14.45 102000 263000 (2010) 37600 (2006) 101000 40000 46600 56600 61600 80700 135000 146000 192000 238000
2020-06-21 10:30 14.47 102000 263000 (2010) 37600 (2006) 101000 40000 46600 56600 61600 80700 135000 146000 192000 238000
2020-06-21 09:30 14.44 102000 263000 (2010) 37600 (2006) 101000 40000 46600 56600 61600 80700 135000 146000 192000 238000
2020-06-21 08:30 14.46 102000 263000 (2010) 37600 (2006) 101000 40000 46600 56600 61600 80700 135000 146000 192000 238000
2020-06-21 07:30 14.47 102000 263000 (2010) 37600 (2006) 101000 40000 46600 56600 61600 80700 135000 146000 192000 238000
2020-06-21 06:30 14.48 102000 263000 (2010) 37600 (2006) 101000 40000 46600 56600 61600 80700 135000 146000 192000 238000
2020-06-21 05:30 14.46 102000 263000 (2010) 37600 (2006) 101000 40000 46600 56600 61600 80700 135000 146000 192000 238000
2020-06-21 04:30 14.47 102000 263000 (2010) 37600 (2006) 101000 40000 46600 56600 61600 80700 135000 146000 192000 238000
2020-06-21 03:30 14.46 102000 263000 (2010) 37600 (2006) 101000 40000 46600 56600 61600 80700 135000 146000 192000 238000
2020-06-21 02:30 14.46 102000 263000 (2010) 37600 (2006) 101000 40000 46600 56600 61600 80700 135000 146000 192000 238000
2020-06-21 01:30 14.44 102000 263000 (2010) 37600 (2006) 101000 40000 46600 56600 61600 80700 135000 146000 192000 238000
2020-06-21 00:30 14.42 102000 263000 (2010) 37600 (2006) 101000 40000 46600 56600 61600 80700 135000 146000 192000 238000
2020-06-20 23:30 14.43 102000 280000 (2010) 37700 (2006) 101000 41200 48500 58200 60500 81600 132000 154000 185000 239000
2020-06-20 22:30 14.43 102000 280000 (2010) 37700 (2006) 101000 41200 48500 58200 60500 81600 132000 154000 185000 239000
2020-06-20 21:30 14.41 102000 280000 (2010) 37700 (2006) 101000 41200 48500 58200 60500 81600 132000 154000 185000 239000
2020-06-20 20:30 14.40 101000 280000 (2010) 37700 (2006) 101000 41200 48500 58200 60500 81600 132000 154000 185000 239000
2020-06-20 19:30 14.41 102000 280000 (2010) 37700 (2006) 101000 41200 48500 58200 60500 81600 132000 154000 185000 239000
2020-06-20 18:30 14.38 101000 280000 (2010) 37700 (2006) 101000 41200 48500 58200 60500 81600 132000 154000 185000 239000
2020-06-20 17:30 14.39 101000 280000 (2010) 37700 (2006) 101000 41200 48500 58200 60500 81600 132000 154000 185000 239000
2020-06-20 16:30 14.40 101000 280000 (2010) 37700 (2006) 101000 41200 48500 58200 60500 81600 132000 154000 185000 239000
2020-06-20 15:30 14.37 101000 280000 (2010) 37700 (2006) 101000 41200 48500 58200 60500 81600 132000 154000 185000 239000
2020-06-20 14:30 14.37 101000 280000 (2010) 37700 (2006) 101000 41200 48500 58200 60500 81600 132000 154000 185000 239000
2020-06-20 13:30 14.39 101000 280000 (2010) 37700 (2006) 101000 41200 48500 58200 60500 81600 132000 154000 185000 239000
2020-06-20 12:30 14.39 101000 280000 (2010) 37700 (2006) 101000 41200 48500 58200 60500 81600 132000 154000 185000 239000
2020-06-20 11:30 14.38 101000 280000 (2010) 37700 (2006) 101000 41200 48500 58200 60500 81600 132000 154000 185000 239000
2020-06-20 10:30 14.38 101000 280000 (2010) 37700 (2006) 101000 41200 48500 58200 60500 81600 132000 154000 185000 239000
2020-06-20 09:30 14.39 101000 280000 (2010) 37700 (2006) 101000 41200 48500 58200 60500 81600 132000 154000 185000 239000
2020-06-20 08:30 14.42 102000 280000 (2010) 37700 (2006) 101000 41200 48500 58200 60500 81600 132000 154000 185000 239000
2020-06-20 07:30 14.43 102000 280000 (2010) 37700 (2006) 101000 41200 48500 58200 60500 81600 132000 154000 185000 239000
2020-06-20 06:30 14.43 102000 280000 (2010) 37700 (2006) 101000 41200 48500 58200 60500 81600 132000 154000 185000 239000
2020-06-20 05:30 14.33 101000 280000 (2010) 37700 (2006) 101000 41200 48500 58200 60500 81600 132000 154000 185000 239000
2020-06-20 04:30 14.25 100000 280000 (2010) 37700 (2006) 101000 41200 48500 58200 60500 81600 132000 154000 185000 239000
2020-06-20 03:30 14.15 99000 280000 (2010) 37700 (2006) 101000 41200 48500 58200 60500 81600 132000 154000 185000 239000
2020-06-20 02:30 14.07 98300 280000 (2010) 37700 (2006) 101000 41200 48500 58200 60500 81600 132000 154000 185000 239000
2020-06-20 01:30 14.05 98100 280000 (2010) 37700 (2006) 101000 41200 48500 58200 60500 81600 132000 154000 185000 239000
2020-06-20 00:30 14.04 98000 280000 (2010) 37700 (2006) 101000 41200 48500 58200 60500 81600 132000 154000 185000 239000
2020-06-19 23:30 14.03 97900 279000 (2010) 38100 (2006) 105000 42100 44900 58100 64800 83700 126000 160000 198000 243000
2020-06-19 22:30 14.01 97700 279000 (2010) 38100 (2006) 105000 42100 44900 58100 64800 83700 126000 160000 198000 243000
2020-06-19 21:30 14.03 97900 279000 (2010) 38100 (2006) 105000 42100 44900 58100 64800 83700 126000 160000 198000 243000
2020-06-19 20:30 13.99 97500 279000 (2010) 38100 (2006) 105000 42100 44900 58100 64800 83700 126000 160000 198000 243000
2020-06-19 19:30 13.99 97500 279000 (2010) 38100 (2006) 105000 42100 44900 58100 64800 83700 126000 160000 198000 243000
2020-06-19 18:30 13.89 96500 279000 (2010) 38100 (2006) 105000 42100 44900 58100 64800 83700 126000 160000 198000 243000
2020-06-19 17:30 13.97 97300 279000 (2010) 38100 (2006) 105000 42100 44900 58100 64800 83700 126000 160000 198000 243000
2020-06-19 16:30 13.96 97200 279000 (2010) 38100 (2006) 105000 42100 44900 58100 64800 83700 126000 160000 198000 243000
2020-06-19 15:30 13.99 97500 279000 (2010) 38100 (2006) 105000 42100 44900 58100 64800 83700 126000 160000 198000 243000
2020-06-19 14:30 13.98 97400 279000 (2010) 38100 (2006) 105000 42100 44900 58100 64800 83700 126000 160000 198000 243000
2020-06-19 13:30 13.99 97500 279000 (2010) 38100 (2006) 105000 42100 44900 58100 64800 83700 126000 160000 198000 243000
2020-06-19 12:30 14.00 97600 279000 (2010) 38100 (2006) 105000 42100 44900 58100 64800 83700 126000 160000 198000 243000
2020-06-19 11:30 13.95 97100 279000 (2010) 38100 (2006) 105000 42100 44900 58100 64800 83700 126000 160000 198000 243000
2020-06-19 10:30 13.95 97100 279000 (2010) 38100 (2006) 105000 42100 44900 58100 64800 83700 126000 160000 198000 243000
2020-06-19 09:30 13.94 97000 279000 (2010) 38100 (2006) 105000 42100 44900 58100 64800 83700 126000 160000 198000 243000
2020-06-19 08:30 14.00 97600 279000 (2010) 38100 (2006) 105000 42100 44900 58100 64800 83700 126000 160000 198000 243000
2020-06-19 07:30 13.98 97400 279000 (2010) 38100 (2006) 105000 42100 44900 58100 64800 83700 126000 160000 198000 243000
2020-06-19 06:30 14.00 97600 279000 (2010) 38100 (2006) 105000 42100 44900 58100 64800 83700 126000 160000 198000 243000
2020-06-19 05:30 14.02 97800 279000 (2010) 38100 (2006) 105000 42100 44900 58100 64800 83700 126000 160000 198000 243000
2020-06-19 04:30 14.01 97700 279000 (2010) 38100 (2006) 105000 42100 44900 58100 64800 83700 126000 160000 198000 243000
2020-06-19 03:30 14.02 97800 279000 (2010) 38100 (2006) 105000 42100 44900 58100 64800 83700 126000 160000 198000 243000
2020-06-19 02:30 14.03 97900 279000 (2010) 38100 (2006) 105000 42100 44900 58100 64800 83700 126000 160000 198000 243000
2020-06-19 01:30 14.00 97600 279000 (2010) 38100 (2006) 105000 42100 44900 58100 64800 83700 126000 160000 198000 243000
2020-06-19 00:30 14.04 98000 279000 (2010) 38100 (2006) 105000 42100 44900 58100 64800 83700 126000 160000 198000 243000
2020-06-18 23:30 14.06 98200 270000 (2010) 38200 (1989) 109000 40200 44900 61200 69600 87300 131000 153000 227000 257000
2020-06-18 22:30 14.08 98400 270000 (2010) 38200 (1989) 109000 40200 44900 61200 69600 87300 131000 153000 227000 257000
2020-06-18 21:30 14.05 98100 270000 (2010) 38200 (1989) 109000 40200 44900 61200 69600 87300 131000 153000 227000 257000
2020-06-18 20:30 14.08 98400 270000 (2010) 38200 (1989) 109000 40200 44900 61200 69600 87300 131000 153000 227000 257000
2020-06-18 19:30 14.10 98600 270000 (2010) 38200 (1989) 109000 40200 44900 61200 69600 87300 131000 153000 227000 257000
2020-06-18 18:30 14.09 98500 270000 (2010) 38200 (1989) 109000 40200 44900 61200 69600 87300 131000 153000 227000 257000
2020-06-18 17:30 14.05 98100 270000 (2010) 38200 (1989) 109000 40200 44900 61200 69600 87300 131000 153000 227000 257000
2020-06-18 16:30 14.06 98200 270000 (2010) 38200 (1989) 109000 40200 44900 61200 69600 87300 131000 153000 227000 257000
2020-06-18 15:30 14.12 98700 270000 (2010) 38200 (1989) 109000 40200 44900 61200 69600 87300 131000 153000 227000 257000
2020-06-18 14:30 14.14 98900 270000 (2010) 38200 (1989) 109000 40200 44900 61200 69600 87300 131000 153000 227000 257000
2020-06-18 12:30 14.09 98500 270000 (2010) 38200 (1989) 109000 40200 44900 61200 69600 87300 131000 153000 227000 257000
2020-06-18 11:30 14.07 93500 270000 (2010) 38200 (1989) 109000 40200 44900 61200 69600 87300 131000 153000 227000 257000
2020-06-18 10:30 14.09 93700 270000 (2010) 38200 (1989) 109000 40200 44900 61200 69600 87300 131000 153000 227000 257000
2020-06-18 09:30 14.09 93700 270000 (2010) 38200 (1989) 109000 40200 44900 61200 69600 87300 131000 153000 227000 257000
2020-06-18 08:30 14.07 93500 270000 (2010) 38200 (1989) 109000 40200 44900 61200 69600 87300 131000 153000 227000 257000
2020-06-18 07:30 14.14 94200 270000 (2010) 38200 (1989) 109000 40200 44900 61200 69600 87300 131000 153000 227000 257000
2020-06-18 06:30 14.15 94300 270000 (2010) 38200 (1989) 109000 40200 44900 61200 69600 87300 131000 153000 227000 257000
2020-06-18 05:30 14.20 94800 270000 (2010) 38200 (1989) 109000 40200 44900 61200 69600 87300 131000 153000 227000 257000
2020-06-18 04:30 14.20 94800 270000 (2010) 38200 (1989) 109000 40200 44900 61200 69600 87300 131000 153000 227000 257000
2020-06-18 03:30 14.18 94600 270000 (2010) 38200 (1989) 109000 40200 44900 61200 69600 87300 131000 153000 227000 257000
2020-06-18 02:30 14.23 95000 270000 (2010) 38200 (1989) 109000 40200 44900 61200 69600 87300 131000 153000 227000 257000
2020-06-18 01:30 14.22 94900 270000 (2010) 38200 (1989) 109000 40200 44900 61200 69600 87300 131000 153000 227000 257000
2020-06-18 00:30 14.25 95200 270000 (2010) 38200 (1989) 109000 40200 44900 61200 69600 87300 131000 153000 227000 257000
2020-06-17 23:30 14.26 95300 270000 (2008) 38300 (1989) 111000 40300 46400 62700 73500 90400 132000 155000 211000 256000
2020-06-17 22:30 14.24 95100 270000 (2008) 38300 (1989) 111000 40300 46400 62700 73500 90400 132000 155000 211000 256000
2020-06-17 21:30 14.27 95400 270000 (2008) 38300 (1989) 111000 40300 46400 62700 73500 90400 132000 155000 211000 256000
2020-06-17 20:30 14.28 95500 270000 (2008) 38300 (1989) 111000 40300 46400 62700 73500 90400 132000 155000 211000 256000
2020-06-17 19:30 14.26 95300 270000 (2008) 38300 (1989) 111000 40300 46400 62700 73500 90400 132000 155000 211000 256000
2020-06-17 18:30 14.27 95400 270000 (2008) 38300 (1989) 111000 40300 46400 62700 73500 90400 132000 155000 211000 256000
2020-06-17 17:30 14.27 95400 270000 (2008) 38300 (1989) 111000 40300 46400 62700 73500 90400 132000 155000 211000 256000
2020-06-17 16:30 14.31 95800 270000 (2008) 38300 (1989) 111000 40300 46400 62700 73500 90400 132000 155000 211000 256000
2020-06-17 15:30 14.31 95800 270000 (2008) 38300 (1989) 111000 40300 46400 62700 73500 90400 132000 155000 211000 256000
2020-06-17 14:30 14.29 95600 270000 (2008) 38300 (1989) 111000 40300 46400 62700 73500 90400 132000 155000 211000 256000
2020-06-17 13:30 14.26 95300 270000 (2008) 38300 (1989) 111000 40300 46400 62700 73500 90400 132000 155000 211000 256000
2020-06-17 12:30 14.31 95800 270000 (2008) 38300 (1989) 111000 40300 46400 62700 73500 90400 132000 155000 211000 256000
2020-06-17 11:30 14.30 95700 270000 (2008) 38300 (1989) 111000 40300 46400 62700 73500 90400 132000 155000 211000 256000
2020-06-17 10:30 14.28 95500 270000 (2008) 38300 (1989) 111000 40300 46400 62700 73500 90400 132000 155000 211000 256000
2020-06-17 09:30 14.24 95100 270000 (2008) 38300 (1989) 111000 40300 46400 62700 73500 90400 132000 155000 211000 256000
2020-06-17 08:30 14.33 96000 270000 (2008) 38300 (1989) 111000 40300 46400 62700 73500 90400 132000 155000 211000 256000
2020-06-17 07:30 14.34 96100 270000 (2008) 38300 (1989) 111000 40300 46400 62700 73500 90400 132000 155000 211000 256000
2020-06-17 06:30 14.35 96200 270000 (2008) 38300 (1989) 111000 40300 46400 62700 73500 90400 132000 155000 211000 256000
2020-06-17 05:30 14.34 96100 270000 (2008) 38300 (1989) 111000 40300 46400 62700 73500 90400 132000 155000 211000 256000
2020-06-17 04:30 14.35 96200 270000 (2008) 38300 (1989) 111000 40300 46400 62700 73500 90400 132000 155000 211000 256000
2020-06-17 03:30 14.35 96200 270000 (2008) 38300 (1989) 111000 40300 46400 62700 73500 90400 132000 155000 211000 256000
2020-06-17 02:30 14.36 96300 270000 (2008) 38300 (1989) 111000 40300 46400 62700 73500 90400 132000 155000 211000 256000
2020-06-17 01:30 14.34 96100 270000 (2008) 38300 (1989) 111000 40300 46400 62700 73500 90400 132000 155000 211000 256000
2020-06-17 00:30 14.33 96000 270000 (2008) 38300 (1989) 111000 40300 46400 62700 73500 90400 132000 155000 211000 256000
2020-06-16 23:30 14.34 96100 263000 (2008) 38100 (1963) 109000 42000 49000 64200 70200 93600 129000 142000 214000 256000
2020-06-16 22:30 14.34 96100 263000 (2008) 38100 (1963) 109000 42000 49000 64200 70200 93600 129000 142000 214000 256000
2020-06-16 21:30 14.38 96500 263000 (2008) 38100 (1963) 109000 42000 49000 64200 70200 93600 129000 142000 214000 256000
2020-06-16 20:30 14.33 96000 263000 (2008) 38100 (1963) 109000 42000 49000 64200 70200 93600 129000 142000 214000 256000
2020-06-16 19:30 14.29 95600 263000 (2008) 38100 (1963) 109000 42000 49000 64200 70200 93600 129000 142000 214000 256000
2020-06-16 18:30 14.22 94900 263000 (2008) 38100 (1963) 109000 42000 49000 64200 70200 93600 129000 142000 214000 256000
2020-06-16 17:30 14.28 95500 263000 (2008) 38100 (1963) 109000 42000 49000 64200 70200 93600 129000 142000 214000 256000
2020-06-16 16:30 14.26 95300 263000 (2008) 38100 (1963) 109000 42000 49000 64200 70200 93600 129000 142000 214000 256000
2020-06-16 15:30 14.27 95400 263000 (2008) 38100 (1963) 109000 42000 49000 64200 70200 93600 129000 142000 214000 256000
2020-06-16 14:30 14.28 95500 263000 (2008) 38100 (1963) 109000 42000 49000 64200 70200 93600 129000 142000 214000 256000
2020-06-16 13:30 14.30 95700 263000 (2008) 38100 (1963) 109000 42000 49000 64200 70200 93600 129000 142000 214000 256000
2020-06-16 12:30 14.33 96000 263000 (2008) 38100 (1963) 109000 42000 49000 64200 70200 93600 129000 142000 214000 256000
2020-06-16 11:30 14.37 96400 263000 (2008) 38100 (1963) 109000 42000 49000 64200 70200 93600 129000 142000 214000 256000
2020-06-16 10:30 14.34 96100 263000 (2008) 38100 (1963) 109000 42000 49000 64200 70200 93600 129000 142000 214000 256000
2020-06-16 09:30 14.33 96000 263000 (2008) 38100 (1963) 109000 42000 49000 64200 70200 93600 129000 142000 214000 256000
2020-06-16 08:30 14.36 96300 263000 (2008) 38100 (1963) 109000 42000 49000 64200 70200 93600 129000 142000 214000 256000
2020-06-16 06:30 14.37 96400 263000 (2008) 38100 (1963) 109000 42000 49000 64200 70200 93600 129000 142000 214000 256000
2020-06-16 05:30 14.33 96000 263000 (2008) 38100 (1963) 109000 42000 49000 64200 70200 93600 129000 142000 214000 256000
2020-06-16 04:30 14.41 96700 263000 (2008) 38100 (1963) 109000 42000 49000 64200 70200 93600 129000 142000 214000 256000
2020-06-16 03:30 14.43 96900 263000 (2008) 38100 (1963) 109000 42000 49000 64200 70200 93600 129000 142000 214000 256000
2020-06-16 02:30 14.41 96700 263000 (2008) 38100 (1963) 109000 42000 49000 64200 70200 93600 129000 142000 214000 256000
2020-06-16 01:30 14.50 97600 263000 (2008) 38100 (1963) 109000 42000 49000 64200 70200 93600 129000 142000 214000 256000
2020-06-16 00:30 14.51 97700 263000 (2008) 38100 (1963) 109000 42000 49000 64200 70200 93600 129000 142000 214000 256000
2020-06-15 23:30 14.51 97700 275000 (2019) 38400 (1963) 109000 42600 49900 57600 65700 93800 123000 152000 223000 251000
2020-06-15 22:30 14.48 97400 275000 (2019) 38400 (1963) 109000 42600 49900 57600 65700 93800 123000 152000 223000 251000
2020-06-15 21:30 14.56 98200 275000 (2019) 38400 (1963) 109000 42600 49900 57600 65700 93800 123000 152000 223000 251000
2020-06-15 20:30 14.56 98200 275000 (2019) 38400 (1963) 109000 42600 49900 57600 65700 93800 123000 152000 223000 251000
2020-06-15 19:30 14.58 98400 275000 (2019) 38400 (1963) 109000 42600 49900 57600 65700 93800 123000 152000 223000 251000
2020-06-15 18:30 14.59 98500 275000 (2019) 38400 (1963) 109000 42600 49900 57600 65700 93800 123000 152000 223000 251000
2020-06-15 17:30 14.68 99300 275000 (2019) 38400 (1963) 109000 42600 49900 57600 65700 93800 123000 152000 223000 251000
2020-06-15 16:30 14.69 99400 275000 (2019) 38400 (1963) 109000 42600 49900 57600 65700 93800 123000 152000 223000 251000
2020-06-15 15:30 14.73 99800 275000 (2019) 38400 (1963) 109000 42600 49900 57600 65700 93800 123000 152000 223000 251000
2020-06-15 14:30 14.78 100000 275000 (2019) 38400 (1963) 109000 42600 49900 57600 65700 93800 123000 152000 223000 251000
2020-06-15 13:30 14.78 100000 275000 (2019) 38400 (1963) 109000 42600 49900 57600 65700 93800 123000 152000 223000 251000
2020-06-15 12:30 14.83 101000 275000 (2019) 38400 (1963) 109000 42600 49900 57600 65700 93800 123000 152000 223000 251000
2020-06-15 11:30 14.88 101000 275000 (2019) 38400 (1963) 109000 42600 49900 57600 65700 93800 123000 152000 223000 251000
2020-06-15 10:30 14.96 102000 275000 (2019) 38400 (1963) 109000 42600 49900 57600 65700 93800 123000 152000 223000 251000
2020-06-15 09:30 15.00 102000 275000 (2019) 38400 (1963) 109000 42600 49900 57600 65700 93800 123000 152000 223000 251000
2020-06-15 08:30 15.03 103000 275000 (2019) 38400 (1963) 109000 42600 49900 57600 65700 93800 123000 152000 223000 251000
2020-06-15 07:30 15.10 103000 275000 (2019) 38400 (1963) 109000 42600 49900 57600 65700 93800 123000 152000 223000 251000
2020-06-15 06:30 15.13 104000 275000 (2019) 38400 (1963) 109000 42600 49900 57600 65700 93800 123000 152000 223000 251000
2020-06-15 05:30 15.17 104000 275000 (2019) 38400 (1963) 109000 42600 49900 57600 65700 93800 123000 152000 223000 251000
2020-06-15 04:30 15.22 105000 275000 (2019) 38400 (1963) 109000 42600 49900 57600 65700 93800 123000 152000 223000 251000
2020-06-15 03:30 15.27 105000 275000 (2019) 38400 (1963) 109000 42600 49900 57600 65700 93800 123000 152000 223000 251000
2020-06-15 02:30 15.34 106000 275000 (2019) 38400 (1963) 109000 42600 49900 57600 65700 93800 123000 152000 223000 251000
2020-06-15 01:30 15.37 106000 275000 (2019) 38400 (1963) 109000 42600 49900 57600 65700 93800 123000 152000 223000 251000
2020-06-15 00:30 15.41 107000 275000 (2019) 38400 (1963) 109000 42600 49900 57600 65700 93800 123000 152000 223000 251000
2020-06-14 23:30 15.44 107000 288000 (2019) 37600 (1963) 107000 45300 49300 55000 65200 87000 127000 140000 216000 248000
2020-06-14 22:30 15.53 108000 288000 (2019) 37600 (1963) 107000 45300 49300 55000 65200 87000 127000 140000 216000 248000
2020-06-14 21:30 15.62 109000 288000 (2019) 37600 (1963) 107000 45300 49300 55000 65200 87000 127000 140000 216000 248000
2020-06-14 20:30 15.63 109000 288000 (2019) 37600 (1963) 107000 45300 49300 55000 65200 87000 127000 140000 216000 248000
2020-06-14 19:30 15.69 109000 288000 (2019) 37600 (1963) 107000 45300 49300 55000 65200 87000 127000 140000 216000 248000
2020-06-14 18:30 15.73 110000 288000 (2019) 37600 (1963) 107000 45300 49300 55000 65200 87000 127000 140000 216000 248000
2020-06-14 17:30 15.77 110000 288000 (2019) 37600 (1963) 107000 45300 49300 55000 65200 87000 127000 140000 216000 248000
2020-06-14 16:30 15.79 111000 288000 (2019) 37600 (1963) 107000 45300 49300 55000 65200 87000 127000 140000 216000 248000
2020-06-14 15:30 15.88 111000 288000 (2019) 37600 (1963) 107000 45300 49300 55000 65200 87000 127000 140000 216000 248000
2020-06-14 14:30 15.90 112000 288000 (2019) 37600 (1963) 107000 45300 49300 55000 65200 87000 127000 140000 216000 248000
2020-06-14 13:30 15.96 112000 288000 (2019) 37600 (1963) 107000 45300 49300 55000 65200 87000 127000 140000 216000 248000
2020-06-14 12:30 15.96 112000 288000 (2019) 37600 (1963) 107000 45300 49300 55000 65200 87000 127000 140000 216000 248000
2020-06-14 11:30 16.04 113000 288000 (2019) 37600 (1963) 107000 45300 49300 55000 65200 87000 127000 140000 216000 248000
2020-06-14 10:30 16.06 113000 288000 (2019) 37600 (1963) 107000 45300 49300 55000 65200 87000 127000 140000 216000 248000
2020-06-14 09:30 16.09 114000 288000 (2019) 37600 (1963) 107000 45300 49300 55000 65200 87000 127000 140000 216000 248000
2020-06-14 08:30 16.17 115000 288000 (2019) 37600 (1963) 107000 45300 49300 55000 65200 87000 127000 140000 216000 248000
2020-06-14 07:30 16.18 115000 288000 (2019) 37600 (1963) 107000 45300 49300 55000 65200 87000 127000 140000 216000 248000
2020-06-14 06:30 16.26 116000 288000 (2019) 37600 (1963) 107000 45300 49300 55000 65200 87000 127000 140000 216000 248000
2020-06-14 05:30 16.30 116000 288000 (2019) 37600 (1963) 107000 45300 49300 55000 65200 87000 127000 140000 216000 248000
2020-06-14 04:30 16.30 116000 288000 (2019) 37600 (1963) 107000 45300 49300 55000 65200 87000 127000 140000 216000 248000
2020-06-14 03:30 16.33 116000 288000 (2019) 37600 (1963) 107000 45300 49300 55000 65200 87000 127000 140000 216000 248000
2020-06-14 02:30 16.37 117000 288000 (2019) 37600 (1963) 107000 45300 49300 55000 65200 87000 127000 140000 216000 248000
2020-06-14 01:30 16.37 117000 288000 (2019) 37600 (1963) 107000 45300 49300 55000 65200 87000 127000 140000 216000 248000
2020-06-14 00:30 16.39 117000 288000 (2019) 37600 (1963) 107000 45300 49300 55000 65200 87000 127000 140000 216000 248000
2020-06-13 23:30 16.42 117000 302000 (2019) 36500 (1963) 105000 44100 46700 55900 61100 86300 129000 139000 204000 249000
2020-06-13 22:30 16.42 117000 302000 (2019) 36500 (1963) 105000 44100 46700 55900 61100 86300 129000 139000 204000 249000
2020-06-13 21:30 16.43 117000 302000 (2019) 36500 (1963) 105000 44100 46700 55900 61100 86300 129000 139000 204000 249000
2020-06-13 20:30 16.42 117000 302000 (2019) 36500 (1963) 105000 44100 46700 55900 61100 86300 129000 139000 204000 249000
2020-06-13 19:30 16.39 117000 302000 (2019) 36500 (1963) 105000 44100 46700 55900 61100 86300 129000 139000 204000 249000
2020-06-13 18:30 16.32 116000 302000 (2019) 36500 (1963) 105000 44100 46700 55900 61100 86300 129000 139000 204000 249000
2020-06-13 17:30 16.36 117000 302000 (2019) 36500 (1963) 105000 44100 46700 55900 61100 86300 129000 139000 204000 249000
2020-06-13 16:30 16.32 116000 302000 (2019) 36500 (1963) 105000 44100 46700 55900 61100 86300 129000 139000 204000 249000
2020-06-13 15:30 16.31 116000 302000 (2019) 36500 (1963) 105000 44100 46700 55900 61100 86300 129000 139000 204000 249000
2020-06-13 14:30 16.25 115000 302000 (2019) 36500 (1963) 105000 44100 46700 55900 61100 86300 129000 139000 204000 249000
2020-06-13 13:30 16.22 115000 302000 (2019) 36500 (1963) 105000 44100 46700 55900 61100 86300 129000 139000 204000 249000
2020-06-13 12:30 16.26 116000 302000 (2019) 36500 (1963) 105000 44100 46700 55900 61100 86300 129000 139000 204000 249000
2020-06-13 11:30 16.18 115000 302000 (2019) 36500 (1963) 105000 44100 46700 55900 61100 86300 129000 139000 204000 249000
2020-06-13 10:30 16.21 115000 302000 (2019) 36500 (1963) 105000 44100 46700 55900 61100 86300 129000 139000 204000 249000
2020-06-13 09:30 16.16 114000 302000 (2019) 36500 (1963) 105000 44100 46700 55900 61100 86300 129000 139000 204000 249000
2020-06-13 08:30 16.09 114000 302000 (2019) 36500 (1963) 105000 44100 46700 55900 61100 86300 129000 139000 204000 249000
2020-06-13 07:30 16.11 114000 302000 (2019) 36500 (1963) 105000 44100 46700 55900 61100 86300 129000 139000 204000 249000
2020-06-13 06:30 16.08 114000 302000 (2019) 36500 (1963) 105000 44100 46700 55900 61100 86300 129000 139000 204000 249000
2020-06-13 05:30 16.05 113000 302000 (2019) 36500 (1963) 105000 44100 46700 55900 61100 86300 129000 139000 204000 249000
2020-06-13 04:30 16.02 113000 302000 (2019) 36500 (1963) 105000 44100 46700 55900 61100 86300 129000 139000 204000 249000
2020-06-13 03:30 15.98 113000 302000 (2019) 36500 (1963) 105000 44100 46700 55900 61100 86300 129000 139000 204000 249000
2020-06-13 02:30 15.96 112000 302000 (2019) 36500 (1963) 105000 44100 46700 55900 61100 86300 129000 139000 204000 249000
2020-06-13 01:30 15.93 112000 302000 (2019) 36500 (1963) 105000 44100 46700 55900 61100 86300 129000 139000 204000 249000
2020-06-13 00:30 15.91 112000 302000 (2019) 36500 (1963) 105000 44100 46700 55900 61100 86300 129000 139000 204000 249000
2020-06-12 23:30 15.89 112000 315000 (2019) 39000 (1989) 104000 41400 44000 49400 55500 88100 132000 140000 191000 266000
2020-06-12 22:30 15.90 112000 315000 (2019) 39000 (1989) 104000 41400 44000 49400 55500 88100 132000 140000 191000 266000
2020-06-12 21:30 15.89 112000 315000 (2019) 39000 (1989) 104000 41400 44000 49400 55500 88100 132000 140000 191000 266000
2020-06-12 20:30 15.87 111000 315000 (2019) 39000 (1989) 104000 41400 44000 49400 55500 88100 132000 140000 191000 266000
2020-06-12 19:30 15.87 111000 315000 (2019) 39000 (1989) 104000 41400 44000 49400 55500 88100 132000 140000 191000 266000
2020-06-12 18:30 15.87 111000 315000 (2019) 39000 (1989) 104000 41400 44000 49400 55500 88100 132000 140000 191000 266000
2020-06-12 17:30 15.85 111000 315000 (2019) 39000 (1989) 104000 41400 44000 49400 55500 88100 132000 140000 191000 266000
2020-06-12 16:30 15.86 111000 315000 (2019) 39000 (1989) 104000 41400 44000 49400 55500 88100 132000 140000 191000 266000
2020-06-12 15:30 15.87 111000 315000 (2019) 39000 (1989) 104000 41400 44000 49400 55500 88100 132000 140000 191000 266000
2020-06-12 14:30 15.86 111000 315000 (2019) 39000 (1989) 104000 41400 44000 49400 55500 88100 132000 140000 191000 266000
2020-06-12 13:30 15.89 112000 315000 (2019) 39000 (1989) 104000 41400 44000 49400 55500 88100 132000 140000 191000 266000
2020-06-12 12:30 15.89 112000 315000 (2019) 39000 (1989) 104000 41400 44000 49400 55500 88100 132000 140000 191000 266000
2020-06-12 11:30 15.93 112000 315000 (2019) 39000 (1989) 104000 41400 44000 49400 55500 88100 132000 140000 191000 266000
2020-06-12 10:30 15.83 102000 315000 (2019) 39000 (1989) 104000 41400 44000 49400 55500 88100 132000 140000 191000 266000
2020-06-12 09:30 15.90 102000 315000 (2019) 39000 (1989) 104000 41400 44000 49400 55500 88100 132000 140000 191000 266000
2020-06-12 08:30 15.91 103000 315000 (2019) 39000 (1989) 104000 41400 44000 49400 55500 88100 132000 140000 191000 266000
2020-06-12 07:30 15.97 103000 315000 (2019) 39000 (1989) 104000 41400 44000 49400 55500 88100 132000 140000 191000 266000
2020-06-12 06:30 16.01 104000 315000 (2019) 39000 (1989) 104000 41400 44000 49400 55500 88100 132000 140000 191000 266000
2020-06-12 05:30 16.02 104000 315000 (2019) 39000 (1989) 104000 41400 44000 49400 55500 88100 132000 140000 191000 266000
2020-06-12 04:30 16.06 104000 315000 (2019) 39000 (1989) 104000 41400 44000 49400 55500 88100 132000 140000 191000 266000
2020-06-12 03:30 16.09 104000 315000 (2019) 39000 (1989) 104000 41400 44000 49400 55500 88100 132000 140000 191000 266000
2020-06-12 02:30 16.13 105000 315000 (2019) 39000 (1989) 104000 41400 44000 49400 55500 88100 132000 140000 191000 266000
2020-06-12 01:30 16.17 105000 315000 (2019) 39000 (1989) 104000 41400 44000 49400 55500 88100 132000 140000 191000 266000
2020-06-12 00:30 16.21 106000 315000 (2019) 39000 (1989) 104000 41400 44000 49400 55500 88100 132000 140000 191000 266000
2020-06-11 23:30 16.24 106000 322000 (2019) 38000 (1989) 105000 41200 42800 47900 54900 84700 138000 156000 196000 261000
2020-06-11 22:30 16.28 106000 322000 (2019) 38000 (1989) 105000 41200 42800 47900 54900 84700 138000 156000 196000 261000
2020-06-11 21:30 16.34 107000 322000 (2019) 38000 (1989) 105000 41200 42800 47900 54900 84700 138000 156000 196000 261000
2020-06-11 20:30 16.37 107000 322000 (2019) 38000 (1989) 105000 41200 42800 47900 54900 84700 138000 156000 196000 261000
2020-06-11 19:30 16.44 108000 322000 (2019) 38000 (1989) 105000 41200 42800 47900 54900 84700 138000 156000 196000 261000
2020-06-11 18:30 16.47 108000 322000 (2019) 38000 (1989) 105000 41200 42800 47900 54900 84700 138000 156000 196000 261000
2020-06-11 17:30 16.54 109000 322000 (2019) 38000 (1989) 105000 41200 42800 47900 54900 84700 138000 156000 196000 261000
2020-06-11 16:30 16.60 110000 322000 (2019) 38000 (1989) 105000 41200 42800 47900 54900 84700 138000 156000 196000 261000
2020-06-11 15:30 16.67 110000 322000 (2019) 38000 (1989) 105000 41200 42800 47900 54900 84700 138000 156000 196000 261000
2020-06-11 14:30 16.76 111000 322000 (2019) 38000 (1989) 105000 41200 42800 47900 54900 84700 138000 156000 196000 261000
2020-06-11 13:30 16.76 111000 322000 (2019) 38000 (1989) 105000 41200 42800 47900 54900 84700 138000 156000 196000 261000
2020-06-11 12:30 16.93 113000 322000 (2019) 38000 (1989) 105000 41200 42800 47900 54900 84700 138000 156000 196000 261000
2020-06-11 11:30 17.03 114000 322000 (2019) 38000 (1989) 105000 41200 42800 47900 54900 84700 138000 156000 196000 261000
2020-06-11 10:30 17.12 115000 322000 (2019) 38000 (1989) 105000 41200 42800 47900 54900 84700 138000 156000 196000 261000
2020-06-11 09:30 17.22 116000 322000 (2019) 38000 (1989) 105000 41200 42800 47900 54900 84700 138000 156000 196000 261000
2020-06-11 08:30 17.34 118000 322000 (2019) 38000 (1989) 105000 41200 42800 47900 54900 84700 138000 156000 196000 261000
2020-06-11 07:30 17.43 119000 322000 (2019) 38000 (1989) 105000 41200 42800 47900 54900 84700 138000 156000 196000 261000
2020-06-11 06:30 17.56 120000 322000 (2019) 38000 (1989) 105000 41200 42800 47900 54900 84700 138000 156000 196000 261000
2020-06-11 05:30 17.66 121000 322000 (2019) 38000 (1989) 105000 41200 42800 47900 54900 84700 138000 156000 196000 261000
2020-06-11 04:30 17.75 122000 322000 (2019) 38000 (1989) 105000 41200 42800 47900 54900 84700 138000 156000 196000 261000
2020-06-11 03:30 17.86 123000 322000 (2019) 38000 (1989) 105000 41200 42800 47900 54900 84700 138000 156000 196000 261000
2020-06-11 02:30 17.96 125000 322000 (2019) 38000 (1989) 105000 41200 42800 47900 54900 84700 138000 156000 196000 261000
2020-06-11 01:30 18.06 126000 322000 (2019) 38000 (1989) 105000 41200 42800 47900 54900 84700 138000 156000 196000 261000
2020-06-11 00:30 18.14 127000 322000 (2019) 38000 (1989) 105000 41200 42800 47900 54900 84700 138000 156000 196000 261000
2020-06-10 23:30 18.24 128000 329000 (2019) 38500 (1989) 106000 40600 44700 51400 53500 89800 128000 164000 216000 244000
2020-06-10 22:30 18.33 129000 329000 (2019) 38500 (1989) 106000 40600 44700 51400 53500 89800 128000 164000 216000 244000
2020-06-10 21:30 18.39 130000 329000 (2019) 38500 (1989) 106000 40600 44700 51400 53500 89800 128000 164000 216000 244000
2020-06-10 20:30 18.47 131000 329000 (2019) 38500 (1989) 106000 40600 44700 51400 53500 89800 128000 164000 216000 244000
2020-06-10 19:30 18.53 131000 329000 (2019) 38500 (1989) 106000 40600 44700 51400 53500 89800 128000 164000 216000 244000
2020-06-10 18:30 18.50 131000 329000 (2019) 38500 (1989) 106000 40600 44700 51400 53500 89800 128000 164000 216000 244000
2020-06-10 17:30 18.62 132000 329000 (2019) 38500 (1989) 106000 40600 44700 51400 53500 89800 128000 164000 216000 244000
2020-06-10 16:30 18.61 132000 329000 (2019) 38500 (1989) 106000 40600 44700 51400 53500 89800 128000 164000 216000 244000
2020-06-10 15:30 18.68 133000 329000 (2019) 38500 (1989) 106000 40600 44700 51400 53500 89800 128000 164000 216000 244000
2020-06-10 14:30 18.72 134000 329000 (2019) 38500 (1989) 106000 40600 44700 51400 53500 89800 128000 164000 216000 244000
2020-06-10 13:30 18.76 134000 329000 (2019) 38500 (1989) 106000 40600 44700 51400 53500 89800 128000 164000 216000 244000
2020-06-10 12:30 18.72 134000 329000 (2019) 38500 (1989) 106000 40600 44700 51400 53500 89800 128000 164000 216000 244000
2020-06-10 11:30 18.78 134000 329000 (2019) 38500 (1989) 106000 40600 44700 51400 53500 89800 128000 164000 216000 244000
2020-06-10 10:30 18.97 137000 329000 (2019) 38500 (1989) 106000 40600 44700 51400 53500 89800 128000 164000 216000 244000
2020-06-10 09:30 18.99 137000 329000 (2019) 38500 (1989) 106000 40600 44700 51400 53500 89800 128000 164000 216000 244000
2020-06-10 08:30 19.03 137000 329000 (2019) 38500 (1989) 106000 40600 44700 51400 53500 89800 128000 164000 216000 244000
2020-06-10 07:30 19.07 138000 329000 (2019) 38500 (1989) 106000 40600 44700 51400 53500 89800 128000 164000 216000 244000
2020-06-10 06:30 19.05 138000 329000 (2019) 38500 (1989) 106000 40600 44700 51400 53500 89800 128000 164000 216000 244000
2020-06-10 05:30 19.14 139000 329000 (2019) 38500 (1989) 106000 40600 44700 51400 53500 89800 128000 164000 216000 244000
2020-06-10 04:30 19.15 139000 329000 (2019) 38500 (1989) 106000 40600 44700 51400 53500 89800 128000 164000 216000 244000
2020-06-10 03:30 19.16 139000 329000 (2019) 38500 (1989) 106000 40600 44700 51400 53500 89800 128000 164000 216000 244000
2020-06-10 02:30 19.11 138000 329000 (2019) 38500 (1989) 106000 40600 44700 51400 53500 89800 128000 164000 216000 244000
2020-06-10 01:30 19.12 138000 329000 (2019) 38500 (1989) 106000 40600 44700 51400 53500 89800 128000 164000 216000 244000
2020-06-10 00:30 19.09 138000 329000 (2019) 38500 (1989) 106000 40600 44700 51400 53500 89800 128000 164000 216000 244000
2020-06-09 23:30 19.03 137000 337000 (2019) 39800 (1968) 107000 40800 44600 54200 59600 90200 129000 160000 210000 237000
2020-06-09 22:30 18.93 136000 337000 (2019) 39800 (1968) 107000 40800 44600 54200 59600 90200 129000 160000 210000 237000
2020-06-09 21:30 18.71 133000 337000 (2019) 39800 (1968) 107000 40800 44600 54200 59600 90200 129000 160000 210000 237000
2020-06-09 20:30 18.65 133000 337000 (2019) 39800 (1968) 107000 40800 44600 54200 59600 90200 129000 160000 210000 237000
2020-06-09 19:30 18.58 132000 337000 (2019) 39800 (1968) 107000 40800 44600 54200 59600 90200 129000 160000 210000 237000
2020-06-09 18:30 18.44 130000 337000 (2019) 39800 (1968) 107000 40800 44600 54200 59600 90200 129000 160000 210000 237000
2020-06-09 17:30 18.31 129000 337000 (2019) 39800 (1968) 107000 40800 44600 54200 59600 90200 129000 160000 210000 237000
2020-06-09 16:30 18.17 127000 337000 (2019) 39800 (1968) 107000 40800 44600 54200 59600 90200 129000 160000 210000 237000
2020-06-09 15:30 18.01 125000 337000 (2019) 39800 (1968) 107000 40800 44600 54200 59600 90200 129000 160000 210000 237000
2020-06-09 14:30 17.78 122000 337000 (2019) 39800 (1968) 107000 40800 44600 54200 59600 90200 129000 160000 210000 237000
2020-06-09 13:30 17.61 121000 337000 (2019) 39800 (1968) 107000 40800 44600 54200 59600 90200 129000 160000 210000 237000
2020-06-09 12:30 17.35 118000 337000 (2019) 39800 (1968) 107000 40800 44600 54200 59600 90200 129000 160000 210000 237000
2020-06-09 11:30 17.18 116000 337000 (2019) 39800 (1968) 107000 40800 44600 54200 59600 90200 129000 160000 210000 237000
2020-06-09 10:30 17.00 114000 337000 (2019) 39800 (1968) 107000 40800 44600 54200 59600 90200 129000 160000 210000 237000
2020-06-09 09:30 16.79 112000 337000 (2019) 39800 (1968) 107000 40800 44600 54200 59600 90200 129000 160000 210000 237000
2020-06-09 08:30 16.53 109000 337000 (2019) 39800 (1968) 107000 40800 44600 54200 59600 90200 129000 160000 210000 237000
2020-06-09 07:30 16.35 107000 337000 (2019) 39800 (1968) 107000 40800 44600 54200 59600 90200 129000 160000 210000 237000
2020-06-09 06:30 16.36 107000 337000 (2019) 39800 (1968) 107000 40800 44600 54200 59600 90200 129000 160000 210000 237000
2020-06-09 05:30 16.35 107000 337000 (2019) 39800 (1968) 107000 40800 44600 54200 59600 90200 129000 160000 210000 237000
2020-06-09 04:30 16.39 107000 337000 (2019) 39800 (1968) 107000 40800 44600 54200 59600 90200 129000 160000 210000 237000
2020-06-09 03:30 16.49 108000 337000 (2019) 39800 (1968) 107000 40800 44600 54200 59600 90200 129000 160000 210000 237000
2020-06-09 02:30 16.56 109000 337000 (2019) 39800 (1968) 107000 40800 44600 54200 59600 90200 129000 160000 210000 237000
2020-06-09 01:30 16.62 110000 337000 (2019) 39800 (1968) 107000 40800 44600 54200 59600 90200 129000 160000 210000 237000
2020-06-09 00:30 16.68 110000 337000 (2019) 39800 (1968) 107000 40800 44600 54200 59600 90200 129000 160000 210000 237000
2020-06-08 23:30 16.76 111000 346000 (2019) 40000 (2006) 106000 42400 45700 53400 59300 86300 132000 141000 204000 268000
2020-06-08 22:30 16.89 113000 346000 (2019) 40000 (2006) 106000 42400 45700 53400 59300 86300 132000 141000 204000 268000
2020-06-08 21:30 16.94 113000 346000 (2019) 40000 (2006) 106000 42400 45700 53400 59300 86300 132000 141000 204000 268000
2020-06-08 20:30 17.03 114000 346000 (2019) 40000 (2006) 106000 42400 45700 53400 59300 86300 132000 141000 204000 268000
2020-06-08 19:30 17.12 115000 346000 (2019) 40000 (2006) 106000 42400 45700 53400 59300 86300 132000 141000 204000 268000
2020-06-08 18:30 17.16 116000 346000 (2019) 40000 (2006) 106000 42400 45700 53400 59300 86300 132000 141000 204000 268000
2020-06-08 17:30 17.26 117000 346000 (2019) 40000 (2006) 106000 42400 45700 53400 59300 86300 132000 141000 204000 268000
2020-06-08 16:30 17.33 117000 346000 (2019) 40000 (2006) 106000 42400 45700 53400 59300 86300 132000 141000 204000 268000
2020-06-08 15:30 17.46 119000 346000 (2019) 40000 (2006) 106000 42400 45700 53400 59300 86300 132000 141000 204000 268000
2020-06-08 14:30 17.59 120000 346000 (2019) 40000 (2006) 106000 42400 45700 53400 59300 86300 132000 141000 204000 268000
2020-06-08 13:30 17.66 121000 346000 (2019) 40000 (2006) 106000 42400 45700 53400 59300 86300 132000 141000 204000 268000
2020-06-08 12:30 17.75 122000 346000 (2019) 40000 (2006) 106000 42400 45700 53400 59300 86300 132000 141000 204000 268000
2020-06-08 11:30 17.86 123000 346000 (2019) 40000 (2006) 106000 42400 45700 53400 59300 86300 132000 141000 204000 268000
2020-06-08 10:30 17.96 125000 346000 (2019) 40000 (2006) 106000 42400 45700 53400 59300 86300 132000 141000 204000 268000
2020-06-08 09:30 18.03 125000 346000 (2019) 40000 (2006) 106000 42400 45700 53400 59300 86300 132000 141000 204000 268000
2020-06-08 08:30 18.21 127000 346000 (2019) 40000 (2006) 106000 42400 45700 53400 59300 86300 132000 141000 204000 268000
2020-06-08 07:30 18.30 129000 346000 (2019) 40000 (2006) 106000 42400 45700 53400 59300 86300 132000 141000 204000 268000
2020-06-08 06:30 18.39 130000 346000 (2019) 40000 (2006) 106000 42400 45700 53400 59300 86300 132000 141000 204000 268000
2020-06-08 05:30 18.47 131000 346000 (2019) 40000 (2006) 106000 42400 45700 53400 59300 86300 132000 141000 204000 268000
2020-06-08 04:30 18.55 131000 346000 (2019) 40000 (2006) 106000 42400 45700 53400 59300 86300 132000 141000 204000 268000
2020-06-08 03:30 18.66 133000 346000 (2019) 40000 (2006) 106000 42400 45700 53400 59300 86300 132000 141000 204000 268000
2020-06-08 02:30 18.78 134000 346000 (2019) 40000 (2006) 106000 42400 45700 53400 59300 86300 132000 141000 204000 268000
2020-06-08 01:30 18.83 135000 346000 (2019) 40000 (2006) 106000 42400 45700 53400 59300 86300 132000 141000 204000 268000
2020-06-08 00:30 18.94 136000 346000 (2019) 40000 (2006) 106000 42400 45700 53400 59300 86300 132000 141000 204000 268000
2020-06-07 23:30 18.97 137000 354000 (2019) 38700 (2006) 105000 43500 45300 54900 60400 81800 128000 144000 190000 254000
2020-06-07 22:30 19.10 138000 354000 (2019) 38700 (2006) 105000 43500 45300 54900 60400 81800 128000 144000 190000 254000
2020-06-07 21:30 19.15 139000 354000 (2019) 38700 (2006) 105000 43500 45300 54900 60400 81800 128000 144000 190000 254000
2020-06-07 20:30 19.26 140000 354000 (2019) 38700 (2006) 105000 43500 45300 54900 60400 81800 128000 144000 190000 254000
2020-06-07 19:30 19.28 141000 354000 (2019) 38700 (2006) 105000 43500 45300 54900 60400 81800 128000 144000 190000 254000
2020-06-07 18:30 19.35 141000 354000 (2019) 38700 (2006) 105000 43500 45300 54900 60400 81800 128000 144000 190000 254000
2020-06-07 17:30 19.40 142000 354000 (2019) 38700 (2006) 105000 43500 45300 54900 60400 81800 128000 144000 190000 254000
2020-06-07 16:30 19.52 144000 354000 (2019) 38700 (2006) 105000 43500 45300 54900 60400 81800 128000 144000 190000 254000
2020-06-07 15:30 19.52 144000 354000 (2019) 38700 (2006) 105000 43500 45300 54900 60400 81800 128000 144000 190000 254000
2020-06-07 14:30 19.62 145000 354000 (2019) 38700 (2006) 105000 43500 45300 54900 60400 81800 128000 144000 190000 254000
2020-06-07 13:30 19.66 145000 354000 (2019) 38700 (2006) 105000 43500 45300 54900 60400 81800 128000 144000 190000 254000
2020-06-07 12:30 19.79 147000 354000 (2019) 38700 (2006) 105000 43500 45300 54900 60400 81800 128000 144000 190000 254000
2020-06-07 11:30 19.83 148000 354000 (2019) 38700 (2006) 105000 43500 45300 54900 60400 81800 128000 144000 190000 254000
2020-06-07 10:30 19.90 149000 354000 (2019) 38700 (2006) 105000 43500 45300 54900 60400 81800 128000 144000 190000 254000
2020-06-07 09:30 19.95 149000 354000 (2019) 38700 (2006) 105000 43500 45300 54900 60400 81800 128000 144000 190000 254000
2020-06-07 08:30 19.99 150000 354000 (2019) 38700 (2006) 105000 43500 45300 54900 60400 81800 128000 144000 190000 254000
2020-06-07 07:30 20.05 151000 354000 (2019) 38700 (2006) 105000 43500 45300 54900 60400 81800 128000 144000 190000 254000
2020-06-07 06:30 20.13 152000 354000 (2019) 38700 (2006) 105000 43500 45300 54900 60400 81800 128000 144000 190000 254000
2020-06-07 05:30 20.23 153000 354000 (2019) 38700 (2006) 105000 43500 45300 54900 60400 81800 128000 144000 190000 254000
2020-06-07 04:30 20.27 153000 354000 (2019) 38700 (2006) 105000 43500 45300 54900 60400 81800 128000 144000 190000 254000
2020-06-07 03:30 20.32 154000 354000 (2019) 38700 (2006) 105000 43500 45300 54900 60400 81800 128000 144000 190000 254000
2020-06-07 02:30 20.38 155000 354000 (2019) 38700 (2006) 105000 43500 45300 54900 60400 81800 128000 144000 190000 254000
2020-06-07 01:30 20.45 156000 354000 (2019) 38700 (2006) 105000 43500 45300 54900 60400 81800 128000 144000 190000 254000
2020-06-07 00:30 20.52 157000 354000 (2019) 38700 (2006) 105000 43500 45300 54900 60400 81800 128000 144000 190000 254000
2020-06-06 23:30 20.56 157000 356000 (2019) 40100 (2006) 105000 44800 48600 57400 60700 87000 140000 147000 189000 231000
2020-06-06 22:30 20.65 159000 356000 (2019) 40100 (2006) 105000 44800 48600 57400 60700 87000 140000 147000 189000 231000
2020-06-06 21:30 20.70 159000 356000 (2019) 40100 (2006) 105000 44800 48600 57400 60700 87000 140000 147000 189000 231000
2020-06-06 20:30 20.77 160000 356000 (2019) 40100 (2006) 105000 44800 48600 57400 60700 87000 140000 147000 189000 231000
2020-06-06 19:30 20.83 161000 356000 (2019) 40100 (2006) 105000 44800 48600 57400 60700 87000 140000 147000 189000 231000
2020-06-06 18:30 20.87 162000 356000 (2019) 40100 (2006) 105000 44800 48600 57400 60700 87000 140000 147000 189000 231000
2020-06-06 17:30 20.88 162000 356000 (2019) 40100 (2006) 105000 44800 48600 57400 60700 87000 140000 147000 189000 231000
2020-06-06 16:30 20.99 163000 356000 (2019) 40100 (2006) 105000 44800 48600 57400 60700 87000 140000 147000 189000 231000
2020-06-06 15:30 21.06 164000 356000 (2019) 40100 (2006) 105000 44800 48600 57400 60700 87000 140000 147000 189000 231000
2020-06-06 14:30 21.07 164000 356000 (2019) 40100 (2006) 105000 44800 48600 57400 60700 87000 140000 147000 189000 231000
2020-06-06 13:30 21.13 165000 356000 (2019) 40100 (2006) 105000 44800 48600 57400 60700 87000 140000 147000 189000 231000
2020-06-06 12:30 21.19 166000 356000 (2019) 40100 (2006) 105000 44800 48600 57400 60700 87000 140000 147000 189000 231000
2020-06-06 11:30 21.17 166000 356000 (2019) 40100 (2006) 105000 44800 48600 57400 60700 87000 140000 147000 189000 231000
2020-06-06 10:30 21.28 167000 356000 (2019) 40100 (2006) 105000 44800 48600 57400 60700 87000 140000 147000 189000 231000
2020-06-06 09:30 21.35 168000 356000 (2019) 40100 (2006) 105000 44800 48600 57400 60700 87000 140000 147000 189000 231000
2020-06-06 08:30 21.40 169000 356000 (2019) 40100 (2006) 105000 44800 48600 57400 60700 87000 140000 147000 189000 231000
2020-06-06 07:30 21.49 170000 356000 (2019) 40100 (2006) 105000 44800 48600 57400 60700 87000 140000 147000 189000 231000
2020-06-06 06:30 21.55 171000 356000 (2019) 40100 (2006) 105000 44800 48600 57400 60700 87000 140000 147000 189000 231000
2020-06-06 05:30 21.59 172000 356000 (2019) 40100 (2006) 105000 44800 48600 57400 60700 87000 140000 147000 189000 231000
2020-06-06 04:30 21.60 172000 356000 (2019) 40100 (2006) 105000 44800 48600 57400 60700 87000 140000 147000 189000 231000
2020-06-06 03:30 21.65 173000 356000 (2019) 40100 (2006) 105000 44800 48600 57400 60700 87000 140000 147000 189000 231000
2020-06-06 02:30 21.69 173000 356000 (2019) 40100 (2006) 105000 44800 48600 57400 60700 87000 140000 147000 189000 231000
2020-06-06 01:30 21.73 174000 356000 (2019) 40100 (2006) 105000 44800 48600 57400 60700 87000 140000 147000 189000 231000
2020-06-06 00:30 21.80 175000 356000 (2019) 40100 (2006) 105000 44800 48600 57400 60700 87000 140000 147000 189000 231000
2020-06-05 23:30 21.83 175000 356000 (2019) 43000 (2006) 105000 43600 45400 53900 60600 91900 124000 143000 201000 211000
2020-06-05 22:30 21.84 176000 356000 (2019) 43000 (2006) 105000 43600 45400 53900 60600 91900 124000 143000 201000 211000
2020-06-05 21:30 21.87 176000 356000 (2019) 43000 (2006) 105000 43600 45400 53900 60600 91900 124000 143000 201000 211000
2020-06-05 20:30 21.88 176000 356000 (2019) 43000 (2006) 105000 43600 45400 53900 60600 91900 124000 143000 201000 211000
2020-06-05 19:30 21.85 176000 356000 (2019) 43000 (2006) 105000 43600 45400 53900 60600 91900 124000 143000 201000 211000
2020-06-05 18:30 21.84 176000 356000 (2019) 43000 (2006) 105000 43600 45400 53900 60600 91900 124000 143000 201000 211000
2020-06-05 17:30 21.82 175000 356000 (2019) 43000 (2006) 105000 43600 45400 53900 60600 91900 124000 143000 201000 211000
2020-06-05 16:30 21.78 175000 356000 (2019) 43000 (2006) 105000 43600 45400 53900 60600 91900 124000 143000 201000 211000
2020-06-05 15:30 21.77 175000 356000 (2019) 43000 (2006) 105000 43600 45400 53900 60600 91900 124000 143000 201000 211000
2020-06-05 14:30 21.74 174000 356000 (2019) 43000 (2006) 105000 43600 45400 53900 60600 91900 124000 143000 201000 211000
2020-06-05 13:30 21.68 173000 356000 (2019) 43000 (2006) 105000 43600 45400 53900 60600 91900 124000 143000 201000 211000
2020-06-05 12:30 21.62 172000 356000 (2019) 43000 (2006) 105000 43600 45400 53900 60600 91900 124000 143000 201000 211000
2020-06-05 11:30 21.55 171000 356000 (2019) 43000 (2006) 105000 43600 45400 53900 60600 91900 124000 143000 201000 211000
2020-06-05 10:30 21.49 170000 356000 (2019) 43000 (2006) 105000 43600 45400 53900 60600 91900 124000 143000 201000 211000
2020-06-05 09:30 21.36 169000 356000 (2019) 43000 (2006) 105000 43600 45400 53900 60600 91900 124000 143000 201000 211000
2020-06-05 08:30 21.36 169000 356000 (2019) 43000 (2006) 105000 43600 45400 53900 60600 91900 124000 143000 201000 211000
2020-06-05 07:30 21.25 167000 356000 (2019) 43000 (2006) 105000 43600 45400 53900 60600 91900 124000 143000 201000 211000
2020-06-05 06:30 21.21 166000 356000 (2019) 43000 (2006) 105000 43600 45400 53900 60600 91900 124000 143000 201000 211000
2020-06-05 05:30 21.15 166000 356000 (2019) 43000 (2006) 105000 43600 45400 53900 60600 91900 124000 143000 201000 211000
2020-06-05 04:30 21.10 165000 356000 (2019) 43000 (2006) 105000 43600 45400 53900 60600 91900 124000 143000 201000 211000
2020-06-05 03:30 21.06 164000 356000 (2019) 43000 (2006) 105000 43600 45400 53900 60600 91900 124000 143000 201000 211000
2020-06-05 02:30 21.01 164000 356000 (2019) 43000 (2006) 105000 43600 45400 53900 60600 91900 124000 143000 201000 211000
2020-06-05 01:30 20.97 163000 356000 (2019) 43000 (2006) 105000 43600 45400 53900 60600 91900 124000 143000 201000 211000
2020-06-05 00:30 20.92 162000 356000 (2019) 43000 (2006) 105000 43600 45400 53900 60600 91900 124000 143000 201000 211000
2020-06-04 23:30 20.85 161000 354000 (2019) 41000 (1963) 104000 41900 45400 55100 58900 91400 121000 151000 185000 230000
2020-06-04 22:30 20.87 162000 354000 (2019) 41000 (1963) 104000 41900 45400 55100 58900 91400 121000 151000 185000 230000
2020-06-04 21:30 20.83 161000 354000 (2019) 41000 (1963) 104000 41900 45400 55100 58900 91400 121000 151000 185000 230000
2020-06-04 20:30 20.77 160000 354000 (2019) 41000 (1963) 104000 41900 45400 55100 58900 91400 121000 151000 185000 230000
2020-06-04 19:30 20.75 160000 354000 (2019) 41000 (1963) 104000 41900 45400 55100 58900 91400 121000 151000 185000 230000
2020-06-04 18:30 20.69 159000 354000 (2019) 41000 (1963) 104000 41900 45400 55100 58900 91400 121000 151000 185000 230000
2020-06-04 17:30 20.61 158000 354000 (2019) 41000 (1963) 104000 41900 45400 55100 58900 91400 121000 151000 185000 230000
2020-06-04 16:30 20.49 156000 354000 (2019) 41000 (1963) 104000 41900 45400 55100 58900 91400 121000 151000 185000 230000
2020-06-04 15:30 20.37 155000 354000 (2019) 41000 (1963) 104000 41900 45400 55100 58900 91400 121000 151000 185000 230000
2020-06-04 14:30 20.26 153000 354000 (2019) 41000 (1963) 104000 41900 45400 55100 58900 91400 121000 151000 185000 230000
2020-06-04 13:30 20.12 151000 354000 (2019) 41000 (1963) 104000 41900 45400 55100 58900 91400 121000 151000 185000 230000
2020-06-04 12:30 19.93 149000 354000 (2019) 41000 (1963) 104000 41900 45400 55100 58900 91400 121000 151000 185000 230000
2020-06-04 11:30 19.64 145000 354000 (2019) 41000 (1963) 104000 41900 45400 55100 58900 91400 121000 151000 185000 230000
2020-06-04 10:30 19.54 144000 354000 (2019) 41000 (1963) 104000 41900 45400 55100 58900 91400 121000 151000 185000 230000
2020-06-04 09:30 19.35 141000 354000 (2019) 41000 (1963) 104000 41900 45400 55100 58900 91400 121000 151000 185000 230000
2020-06-04 08:30 19.15 139000 354000 (2019) 41000 (1963) 104000 41900 45400 55100 58900 91400 121000 151000 185000 230000
2020-06-04 07:30 18.93 136000 354000 (2019) 41000 (1963) 104000 41900 45400 55100 58900 91400 121000 151000 185000 230000
2020-06-04 06:30 18.72 134000 354000 (2019) 41000 (1963) 104000 41900 45400 55100 58900 91400 121000 151000 185000 230000
2020-06-04 05:30 18.52 131000 354000 (2019) 41000 (1963) 104000 41900 45400 55100 58900 91400 121000 151000 185000 230000
2020-06-04 04:30 18.36 129000 354000 (2019) 41000 (1963) 104000 41900 45400 55100 58900 91400 121000 151000 185000 230000
2020-06-04 03:30 18.33 129000 354000 (2019) 41000 (1963) 104000 41900 45400 55100 58900 91400 121000 151000 185000 230000
2020-06-04 02:30 18.33 129000 354000 (2019) 41000 (1963) 104000 41900 45400 55100 58900 91400 121000 151000 185000 230000
2020-06-04 01:30 18.40 130000 354000 (2019) 41000 (1963) 104000 41900 45400 55100 58900 91400 121000 151000 185000 230000
2020-06-04 00:30 18.36 129000 354000 (2019) 41000 (1963) 104000 41900 45400 55100 58900 91400 121000 151000 185000 230000
2020-06-03 23:30 18.41 130000 345000 (2019) 39800 (1966) 106000 41600 44800 56500 60300 92400 124000 137000 176000 249000
2020-06-03 22:30 18.56 132000 345000 (2019) 39800 (1966) 106000 41600 44800 56500 60300 92400 124000 137000 176000 249000
2020-06-03 21:30 18.66 133000 345000 (2019) 39800 (1966) 106000 41600 44800 56500 60300 92400 124000 137000 176000 249000
2020-06-03 20:30 18.75 134000 345000 (2019) 39800 (1966) 106000 41600 44800 56500 60300 92400 124000 137000 176000 249000
2020-06-03 19:30 18.84 135000 345000 (2019) 39800 (1966) 106000 41600 44800 56500 60300 92400 124000 137000 176000 249000
2020-06-03 18:30 18.90 136000 345000 (2019) 39800 (1966) 106000 41600 44800 56500 60300 92400 124000 137000 176000 249000
2020-06-03 17:30 18.99 137000 345000 (2019) 39800 (1966) 106000 41600 44800 56500 60300 92400 124000 137000 176000 249000
2020-06-03 16:30 19.11 138000 345000 (2019) 39800 (1966) 106000 41600 44800 56500 60300 92400 124000 137000 176000 249000
2020-06-03 15:30 19.19 139000 345000 (2019) 39800 (1966) 106000 41600 44800 56500 60300 92400 124000 137000 176000 249000
2020-06-03 14:30 19.29 141000 345000 (2019) 39800 (1966) 106000 41600 44800 56500 60300 92400 124000 137000 176000 249000
2020-06-03 13:30 19.42 142000 345000 (2019) 39800 (1966) 106000 41600 44800 56500 60300 92400 124000 137000 176000 249000
2020-06-03 12:30 19.52 144000 345000 (2019) 39800 (1966) 106000 41600 44800 56500 60300 92400 124000 137000 176000 249000
2020-06-03 11:30 19.62 145000 345000 (2019) 39800 (1966) 106000 41600 44800 56500 60300 92400 124000 137000 176000 249000
2020-06-03 10:30 19.74 146000 345000 (2019) 39800 (1966) 106000 41600 44800 56500 60300 92400 124000 137000 176000 249000
2020-06-03 09:30 19.85 148000 345000 (2019) 39800 (1966) 106000 41600 44800 56500 60300 92400 124000 137000 176000 249000
2020-06-03 08:30 19.95 149000 345000 (2019) 39800 (1966) 106000 41600 44800 56500 60300 92400 124000 137000 176000 249000
2020-06-03 07:30 20.06 151000 345000 (2019) 39800 (1966) 106000 41600 44800 56500 60300 92400 124000 137000 176000 249000
2020-06-03 06:30 20.22 153000 345000 (2019) 39800 (1966) 106000 41600 44800 56500 60300 92400 124000 137000 176000 249000
2020-06-03 05:30 20.32 154000 345000 (2019) 39800 (1966) 106000 41600 44800 56500 60300 92400 124000 137000 176000 249000
2020-06-03 04:30 20.45 156000 345000 (2019) 39800 (1966) 106000 41600 44800 56500 60300 92400 124000 137000 176000 249000
2020-06-03 03:30 20.60 158000 345000 (2019) 39800 (1966) 106000 41600 44800 56500 60300 92400 124000 137000 176000 249000
2020-06-03 02:30 20.71 160000 345000 (2019) 39800 (1966) 106000 41600 44800 56500 60300 92400 124000 137000 176000 249000
2020-06-03 01:30 20.83 161000 345000 (2019) 39800 (1966) 106000 41600 44800 56500 60300 92400 124000 137000 176000 249000
2020-06-03 00:30 20.97 163000 345000 (2019) 39800 (1966) 106000 41600 44800 56500 60300 92400 124000 137000 176000 249000
2020-06-02 23:30 21.11 165000 352000 (2013) 39800 (1966) 108000 42600 45000 53600 61200 94000 130000 145000 176000 266000
2020-06-02 22:30 21.22 167000 352000 (2013) 39800 (1966) 108000 42600 45000 53600 61200 94000 130000 145000 176000 266000
2020-06-02 21:30 21.36 169000 352000 (2013) 39800 (1966) 108000 42600 45000 53600 61200 94000 130000 145000 176000 266000
2020-06-02 20:30 21.47 170000 352000 (2013) 39800 (1966) 108000 42600 45000 53600 61200 94000 130000 145000 176000 266000
2020-06-02 19:30 21.60 172000 352000 (2013) 39800 (1966) 108000 42600 45000 53600 61200 94000 130000 145000 176000 266000
2020-06-02 18:30 21.74 174000 352000 (2013) 39800 (1966) 108000 42600 45000 53600 61200 94000 130000 145000 176000 266000
2020-06-02 16:30 22.01 178000 352000 (2013) 39800 (1966) 108000 42600 45000 53600 61200 94000 130000 145000 176000 266000
2020-06-02 15:30 22.12 180000 352000 (2013) 39800 (1966) 108000 42600 45000 53600 61200 94000 130000 145000 176000 266000
2020-06-02 14:30 22.26 182000 352000 (2013) 39800 (1966) 108000 42600 45000 53600 61200 94000 130000 145000 176000 266000
2020-06-02 13:30 22.41 184000 352000 (2013) 39800 (1966) 108000 42600 45000 53600 61200 94000 130000 145000 176000 266000
2020-06-02 12:30 22.53 186000 352000 (2013) 39800 (1966) 108000 42600 45000 53600 61200 94000 130000 145000 176000 266000
2020-06-02 11:30 22.62 187000 352000 (2013) 39800 (1966) 108000 42600 45000 53600 61200 94000 130000 145000 176000 266000
2020-06-02 10:30 22.74 189000 352000 (2013) 39800 (1966) 108000 42600 45000 53600 61200 94000 130000 145000 176000 266000
2020-06-02 09:30 22.90 192000 352000 (2013) 39800 (1966) 108000 42600 45000 53600 61200 94000 130000 145000 176000 266000
2020-06-02 08:30 23.01 193000 352000 (2013) 39800 (1966) 108000 42600 45000 53600 61200 94000 130000 145000 176000 266000
2020-06-02 07:30 23.15 196000 352000 (2013) 39800 (1966) 108000 42600 45000 53600 61200 94000 130000 145000 176000 266000
2020-06-02 06:30 23.28 198000 352000 (2013) 39800 (1966) 108000 42600 45000 53600 61200 94000 130000 145000 176000 266000
2020-06-02 05:30 23.38 199000 352000 (2013) 39800 (1966) 108000 42600 45000 53600 61200 94000 130000 145000 176000 266000
2020-06-02 04:30 23.49 201000 352000 (2013) 39800 (1966) 108000 42600 45000 53600 61200 94000 130000 145000 176000 266000
2020-06-02 03:30 23.60 203000 352000 (2013) 39800 (1966) 108000 42600 45000 53600 61200 94000 130000 145000 176000 266000
2020-06-02 02:30 23.73 205000 352000 (2013) 39800 (1966) 108000 42600 45000 53600 61200 94000 130000 145000 176000 266000
2020-06-02 01:30 23.83 207000 352000 (2013) 39800 (1966) 108000 42600 45000 53600 61200 94000 130000 145000 176000 266000
2020-06-02 00:30 23.94 209000 352000 (2013) 39800 (1966) 108000 42600 45000 53600 61200 94000 130000 145000 176000 266000
2020-06-01 23:30 24.06 211000 331000 (2019) 40800 (1966) 109000 44200 46400 53300 60400 91700 132000 143000 204000 273000
2020-06-01 22:30 24.15 212000 331000 (2019) 40800 (1966) 109000 44200 46400 53300 60400 91700 132000 143000 204000 273000
2020-06-01 21:30 24.27 214000 331000 (2019) 40800 (1966) 109000 44200 46400 53300 60400 91700 132000 143000 204000 273000
2020-06-01 20:30 24.33 215000 331000 (2019) 40800 (1966) 109000 44200 46400 53300 60400 91700 132000 143000 204000 273000
2020-06-01 19:30 24.44 217000 331000 (2019) 40800 (1966) 109000 44200 46400 53300 60400 91700 132000 143000 204000 273000
2020-06-01 18:30 24.53 219000 331000 (2019) 40800 (1966) 109000 44200 46400 53300 60400 91700 132000 143000 204000 273000
2020-06-01 17:30 24.64 221000 331000 (2019) 40800 (1966) 109000 44200 46400 53300 60400 91700 132000 143000 204000 273000
2020-06-01 16:30 24.71 222000 331000 (2019) 40800 (1966) 109000 44200 46400 53300 60400 91700 132000 143000 204000 273000
2020-06-01 15:30 24.80 223000 331000 (2019) 40800 (1966) 109000 44200 46400 53300 60400 91700 132000 143000 204000 273000
2020-06-01 14:30 24.84 224000 331000 (2019) 40800 (1966) 109000 44200 46400 53300 60400 91700 132000 143000 204000 273000
2020-06-01 13:30 24.88 225000 331000 (2019) 40800 (1966) 109000 44200 46400 53300 60400 91700 132000 143000 204000 273000
2020-06-01 12:30 25.01 227000 331000 (2019) 40800 (1966) 109000 44200 46400 53300 60400 91700 132000 143000 204000 273000
2020-06-01 11:30 25.10 229000 331000 (2019) 40800 (1966) 109000 44200 46400 53300 60400 91700 132000 143000 204000 273000
2020-06-01 10:30 25.18 230000 331000 (2019) 40800 (1966) 109000 44200 46400 53300 60400 91700 132000 143000 204000 273000
2020-06-01 09:30 25.27 231000 331000 (2019) 40800 (1966) 109000 44200 46400 53300 60400 91700 132000 143000 204000 273000
2020-06-01 08:30 25.38 233000 331000 (2019) 40800 (1966) 109000 44200 46400 53300 60400 91700 132000 143000 204000 273000
2020-06-01 07:30 25.43 234000 331000 (2019) 40800 (1966) 109000 44200 46400 53300 60400 91700 132000 143000 204000 273000
2020-06-01 06:30 25.49 235000 331000 (2019) 40800 (1966) 109000 44200 46400 53300 60400 91700 132000 143000 204000 273000
2020-06-01 05:30 25.52 236000 331000 (2019) 40800 (1966) 109000 44200 46400 53300 60400 91700 132000 143000 204000 273000
2020-06-01 04:30 25.60 237000 331000 (2019) 40800 (1966) 109000 44200 46400 53300 60400 91700 132000 143000 204000 273000
2020-06-01 03:30 25.62 238000 331000 (2019) 40800 (1966) 109000 44200 46400 53300 60400 91700 132000 143000 204000 273000
2020-06-01 02:30 25.67 239000 331000 (2019) 40800 (1966) 109000 44200 46400 53300 60400 91700 132000 143000 204000 273000
2020-06-01 01:30 25.69 239000 331000 (2019) 40800 (1966) 109000 44200 46400 53300 60400 91700 132000 143000 204000 273000
2020-06-01 00:30 25.78 241000 331000 (2019) 40800 (1966) 109000 44200 46400 53300 60400 91700 132000 143000 204000 273000
2020-05-31 23:30 25.84 242000 354000 (2019) 41500 (1966) 107000 45400 47400 54200 58900 82700 124000 144000 218000 276000
2020-05-31 22:30 25.90 243000 354000 (2019) 41500 (1966) 107000 45400 47400 54200 58900 82700 124000 144000 218000 276000
2020-05-31 21:30 25.93 243000 354000 (2019) 41500 (1966) 107000 45400 47400 54200 58900 82700 124000 144000 218000 276000
2020-05-31 20:30 26.00 245000 354000 (2019) 41500 (1966) 107000 45400 47400 54200 58900 82700 124000 144000 218000 276000
2020-05-31 19:30 25.99 244000 354000 (2019) 41500 (1966) 107000 45400 47400 54200 58900 82700 124000 144000 218000 276000
2020-05-31 18:30 25.99 244000 354000 (2019) 41500 (1966) 107000 45400 47400 54200 58900 82700 124000 144000 218000 276000
2020-05-31 17:30 26.06 246000 354000 (2019) 41500 (1966) 107000 45400 47400 54200 58900 82700 124000 144000 218000 276000
2020-05-31 16:30 26.15 247000 354000 (2019) 41500 (1966) 107000 45400 47400 54200 58900 82700 124000 144000 218000 276000
2020-05-31 15:30 26.23 249000 354000 (2019) 41500 (1966) 107000 45400 47400 54200 58900 82700 124000 144000 218000 276000
2020-05-31 14:30 26.26 249000 354000 (2019) 41500 (1966) 107000 45400 47400 54200 58900 82700 124000 144000 218000 276000
2020-05-31 13:30 26.21 248000 354000 (2019) 41500 (1966) 107000 45400 47400 54200 58900 82700 124000 144000 218000 276000
2020-05-31 12:30 26.28 250000 354000 (2019) 41500 (1966) 107000 45400 47400 54200 58900 82700 124000 144000 218000 276000
2020-05-31 11:30 26.33 251000 354000 (2019) 41500 (1966) 107000 45400 47400 54200 58900 82700 124000 144000 218000 276000
2020-05-31 10:30 26.35 251000 354000 (2019) 41500 (1966) 107000 45400 47400 54200 58900 82700 124000 144000 218000 276000
2020-05-31 09:30 26.44 253000 354000 (2019) 41500 (1966) 107000 45400 47400 54200 58900 82700 124000 144000 218000 276000
2020-05-31 08:30 26.42 252000 354000 (2019) 41500 (1966) 107000 45400 47400 54200 58900 82700 124000 144000 218000 276000
2020-05-31 07:30 26.43 252000 354000 (2019) 41500 (1966) 107000 45400 47400 54200 58900 82700 124000 144000 218000 276000
2020-05-31 06:30 26.53 254000 354000 (2019) 41500 (1966) 107000 45400 47400 54200 58900 82700 124000 144000 218000 276000
2020-05-31 05:30 26.48 253000 354000 (2019) 41500 (1966) 107000 45400 47400 54200 58900 82700 124000 144000 218000 276000
2020-05-31 04:30 26.54 255000 354000 (2019) 41500 (1966) 107000 45400 47400 54200 58900 82700 124000 144000 218000 276000
2020-05-31 03:30 26.51 254000 354000 (2019) 41500 (1966) 107000 45400 47400 54200 58900 82700 124000 144000 218000 276000
2020-05-31 02:30 26.56 255000 354000 (2019) 41500 (1966) 107000 45400 47400 54200 58900 82700 124000 144000 218000 276000
2020-05-31 01:30 26.60 256000 354000 (2019) 41500 (1966) 107000 45400 47400 54200 58900 82700 124000 144000 218000 276000
2020-05-31 00:30 26.66 257000 354000 (2019) 41500 (1966) 107000 45400 47400 54200 58900 82700 124000 144000 218000 276000
2020-05-30 23:30 26.60 256000 344000 (2019) 41500 (1966) 105000 42800 47600 53200 56200 83300 125000 138000 200000 289000
2020-05-30 22:30 26.63 256000 344000 (2019) 41500 (1966) 105000 42800 47600 53200 56200 83300 125000 138000 200000 289000
2020-05-30 21:30 26.65 257000 344000 (2019) 41500 (1966) 105000 42800 47600 53200 56200 83300 125000 138000 200000 289000
2020-05-30 20:30 26.64 256000 344000 (2019) 41500 (1966) 105000 42800 47600 53200 56200 83300 125000 138000 200000 289000
2020-05-30 19:30 26.53 254000 344000 (2019) 41500 (1966) 105000 42800 47600 53200 56200 83300 125000 138000 200000 289000
2020-05-30 18:30 26.48 253000 344000 (2019) 41500 (1966) 105000 42800 47600 53200 56200 83300 125000 138000 200000 289000
2020-05-30 17:30 26.49 254000 344000 (2019) 41500 (1966) 105000 42800 47600 53200 56200 83300 125000 138000 200000 289000
2020-05-30 16:30 26.48 253000 344000 (2019) 41500 (1966) 105000 42800 47600 53200 56200 83300 125000 138000 200000 289000
2020-05-30 15:30 26.56 255000 344000 (2019) 41500 (1966) 105000 42800 47600 53200 56200 83300 125000 138000 200000 289000
2020-05-30 14:30 26.53 254000 344000 (2019) 41500 (1966) 105000 42800 47600 53200 56200 83300 125000 138000 200000 289000
2020-05-30 13:30 26.51 254000 344000 (2019) 41500 (1966) 105000 42800 47600 53200 56200 83300 125000 138000 200000 289000
2020-05-30 12:30 26.47 253000 344000 (2019) 41500 (1966) 105000 42800 47600 53200 56200 83300 125000 138000 200000 289000
2020-05-30 11:30 26.47 253000 344000 (2019) 41500 (1966) 105000 42800 47600 53200 56200 83300 125000 138000 200000 289000
2020-05-30 10:30 26.42 252000 344000 (2019) 41500 (1966) 105000 42800 47600 53200 56200 83300 125000 138000 200000 289000
2020-05-30 09:30 26.44 253000 344000 (2019) 41500 (1966) 105000 42800 47600 53200 56200 83300 125000 138000 200000 289000
2020-05-30 08:30 26.38 252000 344000 (2019) 41500 (1966) 105000 42800 47600 53200 56200 83300 125000 138000 200000 289000
2020-05-30 07:30 26.39 252000 344000 (2019) 41500 (1966) 105000 42800 47600 53200 56200 83300 125000 138000 200000 289000
2020-05-30 06:30 26.32 250000 344000 (2019) 41500 (1966) 105000 42800 47600 53200 56200 83300 125000 138000 200000 289000
2020-05-30 05:30 26.31 250000 344000 (2019) 41500 (1966) 105000 42800 47600 53200 56200 83300 125000 138000 200000 289000
2020-05-30 04:30 26.22 249000 344000 (2019) 41500 (1966) 105000 42800 47600 53200 56200 83300 125000 138000 200000 289000
2020-05-30 03:30 26.19 248000 344000 (2019) 41500 (1966) 105000 42800 47600 53200 56200 83300 125000 138000 200000 289000
2020-05-30 02:30 26.14 247000 344000 (2019) 41500 (1966) 105000 42800 47600 53200 56200 83300 125000 138000 200000 289000
2020-05-30 01:30 26.15 247000 344000 (2019) 41500 (1966) 105000 42800 47600 53200 56200 83300 125000 138000 200000 289000
2020-05-30 00:30 26.05 245000 344000 (2019) 41500 (1966) 105000 42800 47600 53200 56200 83300 125000 138000 200000 289000
2020-05-29 23:30 25.99 244000 333000 (2019) 37800 (1967) 105000 43100 46900 54700 55200 83300 123000 144000 194000 283000
2020-05-29 22:30 25.98 244000 333000 (2019) 37800 (1967) 105000 43100 46900 54700 55200 83300 123000 144000 194000 283000
2020-05-29 21:30 25.91 243000 333000 (2019) 37800 (1967) 105000 43100 46900 54700 55200 83300 123000 144000 194000 283000
2020-05-29 20:30 25.82 241000 333000 (2019) 37800 (1967) 105000 43100 46900 54700 55200 83300 123000 144000 194000 283000
2020-05-29 19:30 25.78 241000 333000 (2019) 37800 (1967) 105000 43100 46900 54700 55200 83300 123000 144000 194000 283000
2020-05-29 18:30 25.68 239000 333000 (2019) 37800 (1967) 105000 43100 46900 54700 55200 83300 123000 144000 194000 283000
2020-05-29 17:30 25.67 239000 333000 (2019) 37800 (1967) 105000 43100 46900 54700 55200 83300 123000 144000 194000 283000
2020-05-29 16:30 25.58 237000 333000 (2019) 37800 (1967) 105000 43100 46900 54700 55200 83300 123000 144000 194000 283000
2020-05-29 15:30 25.49 251000 333000 (2019) 37800 (1967) 105000 43100 46900 54700 55200 83300 123000 144000 194000 283000
2020-05-29 14:30 25.39 249000 333000 (2019) 37800 (1967) 105000 43100 46900 54700 55200 83300 123000 144000 194000 283000
2020-05-29 13:30 25.36 248000 333000 (2019) 37800 (1967) 105000 43100 46900 54700 55200 83300 123000 144000 194000 283000
2020-05-29 12:30 25.31 247000 333000 (2019) 37800 (1967) 105000 43100 46900 54700 55200 83300 123000 144000 194000 283000
2020-05-29 11:30 25.24 246000 333000 (2019) 37800 (1967) 105000 43100 46900 54700 55200 83300 123000 144000 194000 283000
2020-05-29 10:30 25.09 243000 333000 (2019) 37800 (1967) 105000 43100 46900 54700 55200 83300 123000 144000 194000 283000
2020-05-29 09:30 25.01 242000 333000 (2019) 37800 (1967) 105000 43100 46900 54700 55200 83300 123000 144000 194000 283000
2020-05-29 08:30 24.90 240000 333000 (2019) 37800 (1967) 105000 43100 46900 54700 55200 83300 123000 144000 194000 283000
2020-05-29 07:30 24.80 238000 333000 (2019) 37800 (1967) 105000 43100 46900 54700 55200 83300 123000 144000 194000 283000
2020-05-29 06:30 24.65 236000 333000 (2019) 37800 (1967) 105000 43100 46900 54700 55200 83300 123000 144000 194000 283000
2020-05-29 05:30 24.52 233000 333000 (2019) 37800 (1967) 105000 43100 46900 54700 55200 83300 123000 144000 194000 283000
2020-05-29 04:30 24.37 231000 333000 (2019) 37800 (1967) 105000 43100 46900 54700 55200 83300 123000 144000 194000 283000
2020-05-29 03:30 24.33 230000 333000 (2019) 37800 (1967) 105000 43100 46900 54700 55200 83300 123000 144000 194000 283000
2020-05-29 02:30 24.18 227000 333000 (2019) 37800 (1967) 105000 43100 46900 54700 55200 83300 123000 144000 194000 283000
2020-05-29 01:30 24.01 224000 333000 (2019) 37800 (1967) 105000 43100 46900 54700 55200 83300 123000 144000 194000 283000
2020-05-29 00:30 23.89 222000 333000 (2019) 37800 (1967) 105000 43100 46900 54700 55200 83300 123000 144000 194000 283000
2020-05-28 23:30 23.76 220000 331000 (2019) 37000 (1967) 104000 41100 48500 56000 59400 86800 123000 143000 194000 253000
2020-05-28 22:30 23.65 218000 331000 (2019) 37000 (1967) 104000 41100 48500 56000 59400 86800 123000 143000 194000 253000
2020-05-28 21:30 23.61 218000 331000 (2019) 37000 (1967) 104000 41100 48500 56000 59400 86800 123000 143000 194000 253000
2020-05-28 20:30 23.53 216000 331000 (2019) 37000 (1967) 104000 41100 48500 56000 59400 86800 123000 143000 194000 253000
2020-05-28 19:30 23.44 215000 331000 (2019) 37000 (1967) 104000 41100 48500 56000 59400 86800 123000 143000 194000 253000
2020-05-28 18:30 23.40 214000 331000 (2019) 37000 (1967) 104000 41100 48500 56000 59400 86800 123000 143000 194000 253000
2020-05-28 17:30 23.31 212000 331000 (2019) 37000 (1967) 104000 41100 48500 56000 59400 86800 123000 143000 194000 253000
2020-05-28 16:30 23.22 211000 331000 (2019) 37000 (1967) 104000 41100 48500 56000 59400 86800 123000 143000 194000 253000
2020-05-28 15:30 23.17 210000 331000 (2019) 37000 (1967) 104000 41100 48500 56000 59400 86800 123000 143000 194000 253000
2020-05-28 14:30 23.12 209000 331000 (2019) 37000 (1967) 104000 41100 48500 56000 59400 86800 123000 143000 194000 253000
2020-05-28 13:30 23.08 208000 331000 (2019) 37000 (1967) 104000 41100 48500 56000 59400 86800 123000 143000 194000 253000
2020-05-28 12:30 23.04 208000 331000 (2019) 37000 (1967) 104000 41100 48500 56000 59400 86800 123000 143000 194000 253000
2020-05-28 11:30 23.03 208000 331000 (2019) 37000 (1967) 104000 41100 48500 56000 59400 86800 123000 143000 194000 253000
2020-05-28 10:30 22.96 206000 331000 (2019) 37000 (1967) 104000 41100 48500 56000 59400 86800 123000 143000 194000 253000
2020-05-28 09:30 22.91 206000 331000 (2019) 37000 (1967) 104000 41100 48500 56000 59400 86800 123000 143000 194000 253000
2020-05-28 08:30 22.87 205000 331000 (2019) 37000 (1967) 104000 41100 48500 56000 59400 86800 123000 143000 194000 253000
2020-05-28 07:30 22.81 204000 331000 (2019) 37000 (1967) 104000 41100 48500 56000 59400 86800 123000 143000 194000 253000
2020-05-28 06:30 22.73 203000 331000 (2019) 37000 (1967) 104000 41100 48500 56000 59400 86800 123000 143000 194000 253000
2020-05-28 05:30 22.65 201000 331000 (2019) 37000 (1967) 104000 41100 48500 56000 59400 86800 123000 143000 194000 253000
2020-05-28 04:30 22.59 200000 331000 (2019) 37000 (1967) 104000 41100 48500 56000 59400 86800 123000 143000 194000 253000
2020-05-28 03:30 22.49 199000 331000 (2019) 37000 (1967) 104000 41100 48500 56000 59400 86800 123000 143000 194000 253000
2020-05-28 02:30 22.42 198000 331000 (2019) 37000 (1967) 104000 41100 48500 56000 59400 86800 123000 143000 194000 253000
2020-05-28 01:30 22.34 196000 331000 (2019) 37000 (1967) 104000 41100 48500 56000 59400 86800 123000 143000 194000 253000
2020-05-28 00:30 22.24 195000 331000 (2019) 37000 (1967) 104000 41100 48500 56000 59400 86800 123000 143000 194000 253000
2020-05-27 23:30 22.12 193000 324000 (2019) 37500 (1967) 101000 42300 50400 57700 58900 86500 123000 131000 164000 235000
2020-05-27 22:30 22.00 191000 324000 (2019) 37500 (1967) 101000 42300 50400 57700 58900 86500 123000 131000 164000 235000
2020-05-27 21:30 21.91 190000 324000 (2019) 37500 (1967) 101000 42300 50400 57700 58900 86500 123000 131000 164000 235000
2020-05-27 20:30 21.80 188000 324000 (2019) 37500 (1967) 101000 42300 50400 57700 58900 86500 123000 131000 164000 235000
2020-05-27 19:30 21.67 186000 324000 (2019) 37500 (1967) 101000 42300 50400 57700 58900 86500 123000 131000 164000 235000
2020-05-27 18:30 21.56 184000 324000 (2019) 37500 (1967) 101000 42300 50400 57700 58900 86500 123000 131000 164000 235000
2020-05-27 17:30 21.40 182000 324000 (2019) 37500 (1967) 101000 42300 50400 57700 58900 86500 123000 131000 164000 235000
2020-05-27 16:30 21.26 180000 324000 (2019) 37500 (1967) 101000 42300 50400 57700 58900 86500 123000 131000 164000 235000
2020-05-27 15:30 21.11 177000 324000 (2019) 37500 (1967) 101000 42300 50400 57700 58900 86500 123000 131000 164000 235000
2020-05-27 14:30 20.99 176000 324000 (2019) 37500 (1967) 101000 42300 50400 57700 58900 86500 123000 131000 164000 235000
2020-05-27 13:30 20.84 173000 324000 (2019) 37500 (1967) 101000 42300 50400 57700 58900 86500 123000 131000 164000 235000
2020-05-27 12:30 20.75 172000 324000 (2019) 37500 (1967) 101000 42300 50400 57700 58900 86500 123000 131000 164000 235000
2020-05-27 11:30 20.62 170000 324000 (2019) 37500 (1967) 101000 42300 50400 57700 58900 86500 123000 131000 164000 235000
2020-05-27 10:30 20.49 168000 324000 (2019) 37500 (1967) 101000 42300 50400 57700 58900 86500 123000 131000 164000 235000
2020-05-27 09:30 20.35 166000 324000 (2019) 37500 (1967) 101000 42300 50400 57700 58900 86500 123000 131000 164000 235000
2020-05-27 08:30 20.26 165000 324000 (2019) 37500 (1967) 101000 42300 50400 57700 58900 86500 123000 131000 164000 235000
2020-05-27 07:30 20.16 164000 324000 (2019) 37500 (1967) 101000 42300 50400 57700 58900 86500 123000 131000 164000 235000
2020-05-27 06:30 20.03 162000 324000 (2019) 37500 (1967) 101000 42300 50400 57700 58900 86500 123000 131000 164000 235000
2020-05-27 05:30 19.93 160000 324000 (2019) 37500 (1967) 101000 42300 50400 57700 58900 86500 123000 131000 164000 235000
2020-05-27 04:30 19.79 159000 324000 (2019) 37500 (1967) 101000 42300 50400 57700 58900 86500 123000 131000 164000 235000
2020-05-27 03:30 19.68 157000 324000 (2019) 37500 (1967) 101000 42300 50400 57700 58900 86500 123000 131000 164000 235000
2020-05-27 02:30 19.52 155000 324000 (2019) 37500 (1967) 101000 42300 50400 57700 58900 86500 123000 131000 164000 235000
2020-05-27 01:30 19.45 154000 324000 (2019) 37500 (1967) 101000 42300 50400 57700 58900 86500 123000 131000 164000 235000
2020-05-27 00:30 19.33 152000 324000 (2019) 37500 (1967) 101000 42300 50400 57700 58900 86500 123000 131000 164000 235000
2020-05-26 23:30 19.20 151000 321000 (2019) 37800 (1967) 97600 40400 49600 52100 58700 86100 120000 126000 166000 203000
2020-05-26 22:30 19.09 149000 321000 (2019) 37800 (1967) 97600 40400 49600 52100 58700 86100 120000 126000 166000 203000
2020-05-26 21:30 18.98 148000 321000 (2019) 37800 (1967) 97600 40400 49600 52100 58700 86100 120000 126000 166000 203000
2020-05-26 20:30 18.79 145000 321000 (2019) 37800 (1967) 97600 40400 49600 52100 58700 86100 120000 126000 166000 203000
2020-05-26 19:30 18.74 144000 321000 (2019) 37800 (1967) 97600 40400 49600 52100 58700 86100 120000 126000 166000 203000
2020-05-26 18:30 18.63 143000 321000 (2019) 37800 (1967) 97600 40400 49600 52100 58700 86100 120000 126000 166000 203000
2020-05-26 17:30 18.51 142000 321000 (2019) 37800 (1967) 97600 40400 49600 52100 58700 86100 120000 126000 166000 203000
2020-05-26 16:30 18.41 140000 321000 (2019) 37800 (1967) 97600 40400 49600 52100 58700 86100 120000 126000 166000 203000
2020-05-26 15:30 18.29 139000 321000 (2019) 37800 (1967) 97600 40400 49600 52100 58700 86100 120000 126000 166000 203000
2020-05-26 14:30 18.10 136000 321000 (2019) 37800 (1967) 97600 40400 49600 52100 58700 86100 120000 126000 166000 203000
2020-05-26 13:30 18.05 136000 321000 (2019) 37800 (1967) 97600 40400 49600 52100 58700 86100 120000 126000 166000 203000
2020-05-26 12:30 17.90 134000 321000 (2019) 37800 (1967) 97600 40400 49600 52100 58700 86100 120000 126000 166000 203000
2020-05-26 11:30 17.81 133000 321000 (2019) 37800 (1967) 97600 40400 49600 52100 58700 86100 120000 126000 166000 203000
2020-05-26 10:30 17.62 131000 321000 (2019) 37800 (1967) 97600 40400 49600 52100 58700 86100 120000 126000 166000 203000
2020-05-26 09:30 17.45 129000 321000 (2019) 37800 (1967) 97600 40400 49600 52100 58700 86100 120000 126000 166000 203000
2020-05-26 08:30 17.29 127000 321000 (2019) 37800 (1967) 97600 40400 49600 52100 58700 86100 120000 126000 166000 203000
2020-05-26 07:30 17.15 125000 321000 (2019) 37800 (1967) 97600 40400 49600 52100 58700 86100 120000 126000 166000 203000
2020-05-26 06:30 16.99 123000 321000 (2019) 37800 (1967) 97600 40400 49600 52100 58700 86100 120000 126000 166000 203000
2020-05-26 05:30 16.74 120000 321000 (2019) 37800 (1967) 97600 40400 49600 52100 58700 86100 120000 126000 166000 203000
2020-05-26 04:30 16.57 118000 321000 (2019) 37800 (1967) 97600 40400 49600 52100 58700 86100 120000 126000 166000 203000
2020-05-26 03:30 16.29 115000 321000 (2019) 37800 (1967) 97600 40400 49600 52100 58700 86100 120000 126000 166000 203000
2020-05-26 02:30 16.13 114000 321000 (2019) 37800 (1967) 97600 40400 49600 52100 58700 86100 120000 126000 166000 203000
2020-05-26 01:30 15.93 111000 321000 (2019) 37800 (1967) 97600 40400 49600 52100 58700 86100 120000 126000 166000 203000
2020-05-26 00:30 15.65 109000 321000 (2019) 37800 (1967) 97600 40400 49600 52100 58700 86100 120000 126000 166000 203000
2020-05-25 23:30 15.48 107000 336000 (2019) 34800 (1964) 94800 41600 47000 53700 55500 82500 115000 127000 156000 172000
2020-05-25 22:30 15.28 105000 336000 (2019) 34800 (1964) 94800 41600 47000 53700 55500 82500 115000 127000 156000 172000
2020-05-25 21:30 15.10 103000 336000 (2019) 34800 (1964) 94800 41600 47000 53700 55500 82500 115000 127000 156000 172000
2020-05-25 20:30 14.95 101000 336000 (2019) 34800 (1964) 94800 41600 47000 53700 55500 82500 115000 127000 156000 172000
2020-05-25 19:30 14.85 100000 336000 (2019) 34800 (1964) 94800 41600 47000 53700 55500 82500 115000 127000 156000 172000
2020-05-25 18:30 14.55 97600 336000 (2019) 34800 (1964) 94800 41600 47000 53700 55500 82500 115000 127000 156000 172000
2020-05-25 17:30 14.53 97400 336000 (2019) 34800 (1964) 94800 41600 47000 53700 55500 82500 115000 127000 156000 172000
2020-05-25 16:30 14.41 96300 336000 (2019) 34800 (1964) 94800 41600 47000 53700 55500 82500 115000 127000 156000 172000
2020-05-25 15:30 14.30 95200 336000 (2019) 34800 (1964) 94800 41600 47000 53700 55500 82500 115000 127000 156000 172000
2020-05-25 14:30 14.12 93500 336000 (2019) 34800 (1964) 94800 41600 47000 53700 55500 82500 115000 127000 156000 172000
2020-05-25 13:30 14.02 92600 336000 (2019) 34800 (1964) 94800 41600 47000 53700 55500 82500 115000 127000 156000 172000
2020-05-25 12:30 13.97 92200 336000 (2019) 34800 (1964) 94800 41600 47000 53700 55500 82500 115000 127000 156000 172000
2020-05-25 11:30 13.86 91200 336000 (2019) 34800 (1964) 94800 41600 47000 53700 55500 82500 115000 127000 156000 172000
2020-05-25 10:30 13.79 90500 336000 (2019) 34800 (1964) 94800 41600 47000 53700 55500 82500 115000 127000 156000 172000
2020-05-25 09:30 13.71 89800 336000 (2019) 34800 (1964) 94800 41600 47000 53700 55500 82500 115000 127000 156000 172000
2020-05-25 08:30 13.64 89200 336000 (2019) 34800 (1964) 94800 41600 47000 53700 55500 82500 115000 127000 156000 172000
2020-05-25 07:30 13.56 88500 336000 (2019) 34800 (1964) 94800 41600 47000 53700 55500 82500 115000 127000 156000 172000
2020-05-25 06:30 13.49 87900 336000 (2019) 34800 (1964) 94800 41600 47000 53700 55500 82500 115000 127000 156000 172000
2020-05-25 05:30 13.41 87200 336000 (2019) 34800 (1964) 94800 41600 47000 53700 55500 82500 115000 127000 156000 172000
2020-05-25 04:30 13.36 86700 336000 (2019) 34800 (1964) 94800 41600 47000 53700 55500 82500 115000 127000 156000 172000
2020-05-25 03:30 13.29 86100 336000 (2019) 34800 (1964) 94800 41600 47000 53700 55500 82500 115000 127000 156000 172000
2020-05-25 02:30 13.24 85700 336000 (2019) 34800 (1964) 94800 41600 47000 53700 55500 82500 115000 127000 156000 172000
2020-05-25 01:30 13.14 84800 336000 (2019) 34800 (1964) 94800 41600 47000 53700 55500 82500 115000 127000 156000 172000
2020-05-25 00:30 13.08 84300 336000 (2019) 34800 (1964) 94800 41600 47000 53700 55500 82500 115000 127000 156000 172000
2020-05-24 23:30 13.14 84800 344000 (2019) 33100 (1964) 94900 43000 48300 53600 55500 76100 115000 133000 173000 192000
2020-05-24 22:30 13.08 84300 344000 (2019) 33100 (1964) 94900 43000 48300 53600 55500 76100 115000 133000 173000 192000
2020-05-24 21:30 13.08 84300 344000 (2019) 33100 (1964) 94900 43000 48300 53600 55500 76100 115000 133000 173000 192000
2020-05-24 20:30 13.03 83900 344000 (2019) 33100 (1964) 94900 43000 48300 53600 55500 76100 115000 133000 173000 192000
2020-05-24 19:30 13.06 84100 344000 (2019) 33100 (1964) 94900 43000 48300 53600 55500 76100 115000 133000 173000 192000
2020-05-24 18:30 13.00 83600 344000 (2019) 33100 (1964) 94900 43000 48300 53600 55500 76100 115000 133000 173000 192000
2020-05-24 17:30 13.05 84000 344000 (2019) 33100 (1964) 94900 43000 48300 53600 55500 76100 115000 133000 173000 192000
2020-05-24 16:30 13.00 83600 344000 (2019) 33100 (1964) 94900 43000 48300 53600 55500 76100 115000 133000 173000 192000
2020-05-24 15:30 13.05 84000 344000 (2019) 33100 (1964) 94900 43000 48300 53600 55500 76100 115000 133000 173000 192000
2020-05-24 14:30 13.00 83600 344000 (2019) 33100 (1964) 94900 43000 48300 53600 55500 76100 115000 133000 173000 192000
2020-05-24 13:30 13.03 83900 344000 (2019) 33100 (1964) 94900 43000 48300 53600 55500 76100 115000 133000 173000 192000
2020-05-24 12:30 13.02 83800 344000 (2019) 33100 (1964) 94900 43000 48300 53600 55500 76100 115000 133000 173000 192000
2020-05-24 11:30 13.06 84100 344000 (2019) 33100 (1964) 94900 43000 48300 53600 55500 76100 115000 133000 173000 192000
2020-05-24 10:30 13.01 83700 344000 (2019) 33100 (1964) 94900 43000 48300 53600 55500 76100 115000 133000 173000 192000
2020-05-24 09:30 13.05 84000 344000 (2019) 33100 (1964) 94900 43000 48300 53600 55500 76100 115000 133000 173000 192000
2020-05-24 08:30 13.04 84000 344000 (2019) 33100 (1964) 94900 43000 48300 53600 55500 76100 115000 133000 173000 192000
2020-05-24 07:30 13.03 83900 344000 (2019) 33100 (1964) 94900 43000 48300 53600 55500 76100 115000 133000 173000 192000
2020-05-24 06:30 13.07 84200 344000 (2019) 33100 (1964) 94900 43000 48300 53600 55500 76100 115000 133000 173000 192000
2020-05-24 05:30 13.06 84100 344000 (2019) 33100 (1964) 94900 43000 48300 53600 55500 76100 115000 133000 173000 192000
2020-05-24 04:30 13.07 84200 344000 (2019) 33100 (1964) 94900 43000 48300 53600 55500 76100 115000 133000 173000 192000
2020-05-24 03:30 13.11 84600 344000 (2019) 33100 (1964) 94900 43000 48300 53600 55500 76100 115000 133000 173000 192000
2020-05-24 02:30 13.11 84600 344000 (2019) 33100 (1964) 94900 43000 48300 53600 55500 76100 115000 133000 173000 192000
2020-05-24 01:30 13.12 84600 344000 (2019) 33100 (1964) 94900 43000 48300 53600 55500 76100 115000 133000 173000 192000
2020-05-24 00:30 13.14 84800 344000 (2019) 33100 (1964) 94900 43000 48300 53600 55500 76100 115000 133000 173000 192000
2020-05-23 23:30 13.15 84900 341000 (2019) 33400 (1964) 96900 43700 46800 54000 55600 76000 115000 138000 181000 221000
2020-05-23 22:30 13.15 84900 341000 (2019) 33400 (1964) 96900 43700 46800 54000 55600 76000 115000 138000 181000 221000
2020-05-23 21:30 13.18 85200 341000 (2019) 33400 (1964) 96900 43700 46800 54000 55600 76000 115000 138000 181000 221000
2020-05-23 20:30 13.17 85100 341000 (2019) 33400 (1964) 96900 43700 46800 54000 55600 76000 115000 138000 181000 221000
2020-05-23 19:30 13.17 85100 341000 (2019) 33400 (1964) 96900 43700 46800 54000 55600 76000 115000 138000 181000 221000
2020-05-23 18:30 13.15 84900 341000 (2019) 33400 (1964) 96900 43700 46800 54000 55600 76000 115000 138000 181000 221000
2020-05-23 17:30 13.20 85300 341000 (2019) 33400 (1964) 96900 43700 46800 54000 55600 76000 115000 138000 181000 221000
2020-05-23 16:30 13.20 85300 341000 (2019) 33400 (1964) 96900 43700 46800 54000 55600 76000 115000 138000 181000 221000
2020-05-23 15:30 13.22 85500 341000 (2019) 33400 (1964) 96900 43700 46800 54000 55600 76000 115000 138000 181000 221000
2020-05-23 14:30 13.23 85600 341000 (2019) 33400 (1964) 96900 43700 46800 54000 55600 76000 115000 138000 181000 221000
2020-05-23 13:30 13.21 85400 341000 (2019) 33400 (1964) 96900 43700 46800 54000 55600 76000 115000 138000 181000 221000
2020-05-23 12:30 13.25 85800 341000 (2019) 33400 (1964) 96900 43700 46800 54000 55600 76000 115000 138000 181000 221000
2020-05-23 11:30 13.29 86100 341000 (2019) 33400 (1964) 96900 43700 46800 54000 55600 76000 115000 138000 181000 221000
2020-05-23 10:30 13.29 86100 341000 (2019) 33400 (1964) 96900 43700 46800 54000 55600 76000 115000 138000 181000 221000
2020-05-23 09:30 13.37 86800 341000 (2019) 33400 (1964) 96900 43700 46800 54000 55600 76000 115000 138000 181000 221000
2020-05-23 08:30 13.37 86800 341000 (2019) 33400 (1964) 96900 43700 46800 54000 55600 76000 115000 138000 181000 221000
2020-05-23 07:30 13.39 87000 341000 (2019) 33400 (1964) 96900 43700 46800 54000 55600 76000 115000 138000 181000 221000
2020-05-23 06:30 13.40 87100 341000 (2019) 33400 (1964) 96900 43700 46800 54000 55600 76000 115000 138000 181000 221000
2020-05-23 05:30 13.45 87500 341000 (2019) 33400 (1964) 96900 43700 46800 54000 55600 76000 115000 138000 181000 221000
2020-05-23 04:30 13.48 87800 341000 (2019) 33400 (1964) 96900 43700 46800 54000 55600 76000 115000 138000 181000 221000
2020-05-23 03:30 13.48 87800 341000 (2019) 33400 (1964) 96900 43700 46800 54000 55600 76000 115000 138000 181000 221000
2020-05-23 02:30 13.50 87900 341000 (2019) 33400 (1964) 96900 43700 46800 54000 55600 76000 115000 138000 181000 221000
2020-05-23 01:30 13.50 87900 341000 (2019) 33400 (1964) 96900 43700 46800 54000 55600 76000 115000 138000 181000 221000
2020-05-23 00:30 13.55 88400 341000 (2019) 33400 (1964) 96900 43700 46800 54000 55600 76000 115000 138000 181000 221000
2020-05-22 23:30 13.58 88700 300000 (1995) 34500 (1964) 98100 43700 45000 54300 57200 78700 120000 134000 171000 248000
2020-05-22 22:30 13.58 88700 300000 (1995) 34500 (1964) 98100 43700 45000 54300 57200 78700 120000 134000 171000 248000
2020-05-22 21:30 13.61 88900 300000 (1995) 34500 (1964) 98100 43700 45000 54300 57200 78700 120000 134000 171000 248000
2020-05-22 20:30 13.63 89100 300000 (1995) 34500 (1964) 98100 43700 45000 54300 57200 78700 120000 134000 171000 248000
2020-05-22 19:30 13.58 88700 300000 (1995) 34500 (1964) 98100 43700 45000 54300 57200 78700 120000 134000 171000 248000
2020-05-22 18:30 13.62 89000 300000 (1995) 34500 (1964) 98100 43700 45000 54300 57200 78700 120000 134000 171000 248000
2020-05-22 17:30 13.62 89000 300000 (1995) 34500 (1964) 98100 43700 45000 54300 57200 78700 120000 134000 171000 248000
2020-05-22 16:30 13.58 88700 300000 (1995) 34500 (1964) 98100 43700 45000 54300 57200 78700 120000 134000 171000 248000
2020-05-22 15:30 13.62 89000 300000 (1995) 34500 (1964) 98100 43700 45000 54300 57200 78700 120000 134000 171000 248000
2020-05-22 14:30 13.68 89500 300000 (1995) 34500 (1964) 98100 43700 45000 54300 57200 78700 120000 134000 171000 248000
2020-05-22 13:30 13.80 90600 300000 (1995) 34500 (1964) 98100 43700 45000 54300 57200 78700 120000 134000 171000 248000
2020-05-22 12:30 13.77 90400 300000 (1995) 34500 (1964) 98100 43700 45000 54300 57200 78700 120000 134000 171000 248000
2020-05-22 11:30 13.74 90100 300000 (1995) 34500 (1964) 98100 43700 45000 54300 57200 78700 120000 134000 171000 248000
2020-05-22 10:30 13.80 90600 300000 (1995) 34500 (1964) 98100 43700 45000 54300 57200 78700 120000 134000 171000 248000
2020-05-22 09:30 13.90 91500 300000 (1995) 34500 (1964) 98100 43700 45000 54300 57200 78700 120000 134000 171000 248000
2020-05-22 08:30 13.93 91800 300000 (1995) 34500 (1964) 98100 43700 45000 54300 57200 78700 120000 134000 171000 248000
2020-05-22 07:30 13.96 92100 300000 (1995) 34500 (1964) 98100 43700 45000 54300 57200 78700 120000 134000 171000 248000
2020-05-22 06:30 13.90 91500 300000 (1995) 34500 (1964) 98100 43700 45000 54300 57200 78700 120000 134000 171000 248000
2020-05-22 05:30 13.99 92400 300000 (1995) 34500 (1964) 98100 43700 45000 54300 57200 78700 120000 134000 171000 248000
2020-05-22 04:30 13.97 92200 300000 (1995) 34500 (1964) 98100 43700 45000 54300 57200 78700 120000 134000 171000 248000
2020-05-22 03:30 14.00 92400 300000 (1995) 34500 (1964) 98100 43700 45000 54300 57200 78700 120000 134000 171000 248000
2020-05-22 02:30 14.08 93200 300000 (1995) 34500 (1964) 98100 43700 45000 54300 57200 78700 120000 134000 171000 248000
2020-05-22 01:30 14.12 93500 300000 (1995) 34500 (1964) 98100 43700 45000 54300 57200 78700 120000 134000 171000 248000
2020-05-22 00:30 14.10 93400 300000 (1995) 34500 (1964) 98100 43700 45000 54300 57200 78700 120000 134000 171000 248000
2020-05-21 23:30 14.16 93900 333000 (1995) 34800 (1964) 99600 41800 45000 51400 57300 79100 127000 134000 189000 238000
2020-05-21 22:30 14.17 94000 333000 (1995) 34800 (1964) 99600 41800 45000 51400 57300 79100 127000 134000 189000 238000
2020-05-21 21:30 14.15 93800 333000 (1995) 34800 (1964) 99600 41800 45000 51400 57300 79100 127000 134000 189000 238000
2020-05-21 20:30 14.23 94600 333000 (1995) 34800 (1964) 99600 41800 45000 51400 57300 79100 127000 134000 189000 238000
2020-05-21 19:30 14.20 94300 333000 (1995) 34800 (1964) 99600 41800 45000 51400 57300 79100 127000 134000 189000 238000
2020-05-21 18:30 14.27 94900 333000 (1995) 34800 (1964) 99600 41800 45000 51400 57300 79100 127000 134000 189000 238000
2020-05-21 17:30 14.34 95600 333000 (1995) 34800 (1964) 99600 41800 45000 51400 57300 79100 127000 134000 189000 238000
2020-05-21 16:30 14.42 96400 333000 (1995) 34800 (1964) 99600 41800 45000 51400 57300 79100 127000 134000 189000 238000
2020-05-21 15:30 14.39 96100 333000 (1995) 34800 (1964) 99600 41800 45000 51400 57300 79100 127000 134000 189000 238000
2020-05-21 14:30 14.40 96200 333000 (1995) 34800 (1964) 99600 41800 45000 51400 57300 79100 127000 134000 189000 238000
2020-05-21 13:30 14.48 96900 333000 (1995) 34800 (1964) 99600 41800 45000 51400 57300 79100 127000 134000 189000 238000
2020-05-21 12:30 14.48 96900 333000 (1995) 34800 (1964) 99600 41800 45000 51400 57300 79100 127000 134000 189000 238000
2020-05-21 11:30 14.57 97800 333000 (1995) 34800 (1964) 99600 41800 45000 51400 57300 79100 127000 134000 189000 238000
2020-05-21 10:30 14.55 97600 333000 (1995) 34800 (1964) 99600 41800 45000 51400 57300 79100 127000 134000 189000 238000
2020-05-21 09:30 14.56 97700 333000 (1995) 34800 (1964) 99600 41800 45000 51400 57300 79100 127000 134000 189000 238000
2020-05-21 08:30 14.60 98100 333000 (1995) 34800 (1964) 99600 41800 45000 51400 57300 79100 127000 134000 189000 238000
2020-05-21 07:30 14.65 98600 333000 (1995) 34800 (1964) 99600 41800 45000 51400 57300 79100 127000 134000 189000 238000
2020-05-21 06:30 14.71 99100 333000 (1995) 34800 (1964) 99600 41800 45000 51400 57300 79100 127000 134000 189000 238000
2020-05-21 05:30 14.82 100000 333000 (1995) 34800 (1964) 99600 41800 45000 51400 57300 79100 127000 134000 189000 238000
2020-05-21 04:30 14.79 99900 333000 (1995) 34800 (1964) 99600 41800 45000 51400 57300 79100 127000 134000 189000 238000
2020-05-21 03:30 14.86 101000 333000 (1995) 34800 (1964) 99600 41800 45000 51400 57300 79100 127000 134000 189000 238000
2020-05-21 02:30 14.91 101000 333000 (1995) 34800 (1964) 99600 41800 45000 51400 57300 79100 127000 134000 189000 238000
2020-05-21 01:30 14.95 101000 333000 (1995) 34800 (1964) 99600 41800 45000 51400 57300 79100 127000 134000 189000 238000
2020-05-21 00:30 15.00 102000 333000 (1995) 34800 (1964) 99600 41800 45000 51400 57300 79100 127000 134000 189000 238000
2020-05-20 23:30 14.95 101000 353000 (1995) 35300 (1964) 99800 40400 43800 50500 56000 81500 121000 136000 201000 246000
2020-05-20 22:30 15.01 102000 353000 (1995) 35300 (1964) 99800 40400 43800 50500 56000 81500 121000 136000 201000 246000
2020-05-20 21:30 15.02 102000 353000 (1995) 35300 (1964) 99800 40400 43800 50500 56000 81500 121000 136000 201000 246000
2020-05-20 20:30 15.05 102000 353000 (1995) 35300 (1964) 99800 40400 43800 50500 56000 81500 121000 136000 201000 246000
2020-05-20 19:30 15.16 104000 353000 (1995) 35300 (1964) 99800 40400 43800 50500 56000 81500 121000 136000 201000 246000
2020-05-20 18:30 15.15 103000 353000 (1995) 35300 (1964) 99800 40400 43800 50500 56000 81500 121000 136000 201000 246000
2020-05-20 17:30 15.22 104000 353000 (1995) 35300 (1964) 99800 40400 43800 50500 56000 81500 121000 136000 201000 246000
2020-05-20 16:30 15.33 105000 353000 (1995) 35300 (1964) 99800 40400 43800 50500 56000 81500 121000 136000 201000 246000
2020-05-20 15:30 15.29 105000 353000 (1995) 35300 (1964) 99800 40400 43800 50500 56000 81500 121000 136000 201000 246000
2020-05-20 14:30 15.31 105000 353000 (1995) 35300 (1964) 99800 40400 43800 50500 56000 81500 121000 136000 201000 246000
2020-05-20 13:30 15.44 106000 353000 (1995) 35300 (1964) 99800 40400 43800 50500 56000 81500 121000 136000 201000 246000
2020-05-20 12:30 15.39 106000 353000 (1995) 35300 (1964) 99800 40400 43800 50500 56000 81500 121000 136000 201000 246000
2020-05-20 11:30 15.39 106000 353000 (1995) 35300 (1964) 99800 40400 43800 50500 56000 81500 121000 136000 201000 246000
2020-05-20 10:30 15.59 108000 353000 (1995) 35300 (1964) 99800 40400 43800 50500 56000 81500 121000 136000 201000 246000
2020-05-20 09:30 15.60 108000 353000 (1995) 35300 (1964) 99800 40400 43800 50500 56000 81500 121000 136000 201000 246000
2020-05-20 08:30 15.65 109000 353000 (1995) 35300 (1964) 99800 40400 43800 50500 56000 81500 121000 136000 201000 246000
2020-05-20 07:30 15.70 109000 353000 (1995) 35300 (1964) 99800 40400 43800 50500 56000 81500 121000 136000 201000 246000
2020-05-20 06:30 15.74 109000 353000 (1995) 35300 (1964) 99800 40400 43800 50500 56000 81500 121000 136000 201000 246000
2020-05-20 05:30 15.78 110000 353000 (1995) 35300 (1964) 99800 40400 43800 50500 56000 81500 121000 136000 201000 246000
2020-05-20 04:30 15.84 111000 353000 (1995) 35300 (1964) 99800 40400 43800 50500 56000 81500 121000 136000 201000 246000
2020-05-20 03:30 15.86 111000 353000 (1995) 35300 (1964) 99800 40400 43800 50500 56000 81500 121000 136000 201000 246000
2020-05-20 02:30 15.86 111000 353000 (1995) 35300 (1964) 99800 40400 43800 50500 56000 81500 121000 136000 201000 246000
2020-05-20 01:30 15.89 111000 353000 (1995) 35300 (1964) 99800 40400 43800 50500 56000 81500 121000 136000 201000 246000
2020-05-20 00:30 15.92 111000 353000 (1995) 35300 (1964) 99800 40400 43800 50500 56000 81500 121000 136000 201000 246000
2020-05-19 23:30 16.03 113000 354000 (1995) 36400 (1964) 102000 39900 41700 49900 56400 84100 122000 146000 210000 231000
2020-05-19 22:30 16.06 113000 354000 (1995) 36400 (1964) 102000 39900 41700 49900 56400 84100 122000 146000 210000 231000
2020-05-19 21:30 16.08 113000 354000 (1995) 36400 (1964) 102000 39900 41700 49900 56400 84100 122000 146000 210000 231000
2020-05-19 20:30 16.10 113000 354000 (1995) 36400 (1964) 102000 39900 41700 49900 56400 84100 122000 146000 210000 231000
2020-05-19 19:30 16.09 113000 354000 (1995) 36400 (1964) 102000 39900 41700 49900 56400 84100 122000 146000 210000 231000
2020-05-19 18:30 16.14 114000 354000 (1995) 36400 (1964) 102000 39900 41700 49900 56400 84100 122000 146000 210000 231000
2020-05-19 17:30 16.23 115000 354000 (1995) 36400 (1964) 102000 39900 41700 49900 56400 84100 122000 146000 210000 231000
2020-05-19 16:30 16.27 115000 354000 (1995) 36400 (1964) 102000 39900 41700 49900 56400 84100 122000 146000 210000 231000
2020-05-19 15:30 16.31 116000 354000 (1995) 36400 (1964) 102000 39900 41700 49900 56400 84100 122000 146000 210000 231000
2020-05-19 14:30 16.31 116000 354000 (1995) 36400 (1964) 102000 39900 41700 49900 56400 84100 122000 146000 210000 231000
2020-05-19 13:30 16.35 116000 354000 (1995) 36400 (1964) 102000 39900 41700 49900 56400 84100 122000 146000 210000 231000
2020-05-19 12:30 16.36 116000 354000 (1995) 36400 (1964) 102000 39900 41700 49900 56400 84100 122000 146000 210000 231000
2020-05-19 11:30 16.46 117000 354000 (1995) 36400 (1964) 102000 39900 41700 49900 56400 84100 122000 146000 210000 231000
2020-05-19 10:30 16.48 117000 354000 (1995) 36400 (1964) 102000 39900 41700 49900 56400 84100 122000 146000 210000 231000
2020-05-19 09:30 16.51 118000 354000 (1995) 36400 (1964) 102000 39900 41700 49900 56400 84100 122000 146000 210000 231000
2020-05-19 08:30 16.57 118000 354000 (1995) 36400 (1964) 102000 39900 41700 49900 56400 84100 122000 146000 210000 231000
2020-05-19 07:30 16.62 119000 354000 (1995) 36400 (1964) 102000 39900 41700 49900 56400 84100 122000 146000 210000 231000
2020-05-19 06:30 16.68 120000 354000 (1995) 36400 (1964) 102000 39900 41700 49900 56400 84100 122000 146000 210000 231000
2020-05-19 05:30 16.73 120000 354000 (1995) 36400 (1964) 102000 39900 41700 49900 56400 84100 122000 146000 210000 231000
2020-05-19 04:30 16.78 121000 354000 (1995) 36400 (1964) 102000 39900 41700 49900 56400 84100 122000 146000 210000 231000
2020-05-19 03:30 16.83 121000 354000 (1995) 36400 (1964) 102000 39900 41700 49900 56400 84100 122000 146000 210000 231000
2020-05-19 02:30 16.90 122000 354000 (1995) 36400 (1964) 102000 39900 41700 49900 56400 84100 122000 146000 210000 231000
2020-05-19 01:30 16.96 123000 354000 (1995) 36400 (1964) 102000 39900 41700 49900 56400 84100 122000 146000 210000 231000
2020-05-19 00:30 17.01 123000 354000 (1995) 36400 (1964) 102000 39900 41700 49900 56400 84100 122000 146000 210000 231000
2020-05-18 23:30 17.11 125000 314000 (1995) 36400 (1989) 103000 40400 41700 48600 55000 85200 121000 145000 202000 250000
2020-05-18 22:30 17.21 126000 314000 (1995) 36400 (1989) 103000 40400 41700 48600 55000 85200 121000 145000 202000 250000
2020-05-18 21:30 17.28 127000 314000 (1995) 36400 (1989) 103000 40400 41700 48600 55000 85200 121000 145000 202000 250000
2020-05-18 20:30 17.37 128000 314000 (1995) 36400 (1989) 103000 40400 41700 48600 55000 85200 121000 145000 202000 250000
2020-05-18 19:30 17.47 129000 314000 (1995) 36400 (1989) 103000 40400 41700 48600 55000 85200 121000 145000 202000 250000
2020-05-18 18:30 17.56 130000 314000 (1995) 36400 (1989) 103000 40400 41700 48600 55000 85200 121000 145000 202000 250000
2020-05-18 17:30 17.67 131000 314000 (1995) 36400 (1989) 103000 40400 41700 48600 55000 85200 121000 145000 202000 250000
2020-05-18 16:30 17.76 132000 314000 (1995) 36400 (1989) 103000 40400 41700 48600 55000 85200 121000 145000 202000 250000
2020-05-18 15:30 17.86 133000 314000 (1995) 36400 (1989) 103000 40400 41700 48600 55000 85200 121000 145000 202000 250000
2020-05-18 14:30 17.96 135000 314000 (1995) 36400 (1989) 103000 40400 41700 48600 55000 85200 121000 145000 202000 250000
2020-05-18 13:30 18.04 136000 314000 (1995) 36400 (1989) 103000 40400 41700 48600 55000 85200 121000 145000 202000 250000
2020-05-18 12:30 18.13 137000 314000 (1995) 36400 (1989) 103000 40400 41700 48600 55000 85200 121000 145000 202000 250000
2020-05-18 11:30 18.21 138000 314000 (1995) 36400 (1989) 103000 40400 41700 48600 55000 85200 121000 145000 202000 250000
2020-05-18 10:30 18.31 139000 314000 (1995) 36400 (1989) 103000 40400 41700 48600 55000 85200 121000 145000 202000 250000
2020-05-18 09:30 18.38 140000 314000 (1995) 36400 (1989) 103000 40400 41700 48600 55000 85200 121000 145000 202000 250000
2020-05-18 08:30 18.45 141000 314000 (1995) 36400 (1989) 103000 40400 41700 48600 55000 85200 121000 145000 202000 250000
2020-05-18 07:30 18.52 142000 314000 (1995) 36400 (1989) 103000 40400 41700 48600 55000 85200 121000 145000 202000 250000
2020-05-18 06:30 18.62 143000 314000 (1995) 36400 (1989) 103000 40400 41700 48600 55000 85200 121000 145000 202000 250000
2020-05-18 05:30 18.65 143000 314000 (1995) 36400 (1989) 103000 40400 41700 48600 55000 85200 121000 145000 202000 250000
2020-05-18 04:30 18.70 144000 314000 (1995) 36400 (1989) 103000 40400 41700 48600 55000 85200 121000 145000 202000 250000
2020-05-18 03:30 18.75 145000 314000 (1995) 36400 (1989) 103000 40400 41700 48600 55000 85200 121000 145000 202000 250000
2020-05-18 02:30 18.73 144000 314000 (1995) 36400 (1989) 103000 40400 41700 48600 55000 85200 121000 145000 202000 250000
2020-05-18 01:30 18.78 145000 314000 (1995) 36400 (1989) 103000 40400 41700 48600 55000 85200 121000 145000 202000 250000
2020-05-18 00:30 18.77 145000 314000 (1995) 36400 (1989) 103000 40400 41700 48600 55000 85200 121000 145000 202000 250000
2020-05-17 23:30 18.78 145000 279000 (1990) 36300 (1989) 102000 40600 43200 47900 52500 82500 127000 140000 185000 265000
2020-05-17 22:30 18.79 145000 279000 (1990) 36300 (1989) 102000 40600 43200 47900 52500 82500 127000 140000 185000 265000
2020-05-17 21:30 18.78 145000 279000 (1990) 36300 (1989) 102000 40600 43200 47900 52500 82500 127000 140000 185000 265000
2020-05-17 20:30 18.78 145000 279000 (1990) 36300 (1989) 102000 40600 43200 47900 52500 82500 127000 140000 185000 265000
2020-05-17 19:30 18.78 145000 279000 (1990) 36300 (1989) 102000 40600 43200 47900 52500 82500 127000 140000 185000 265000
2020-05-17 18:30 18.76 145000 279000 (1990) 36300 (1989) 102000 40600 43200 47900 52500 82500 127000 140000 185000 265000
2020-05-17 17:30 18.74 144000 279000 (1990) 36300 (1989) 102000 40600 43200 47900 52500 82500 127000 140000 185000 265000
2020-05-17 16:30 18.74 144000 279000 (1990) 36300 (1989) 102000 40600 43200 47900 52500 82500 127000 140000 185000 265000
2020-05-17 15:30 18.75 145000 279000 (1990) 36300 (1989) 102000 40600 43200 47900 52500 82500 127000 140000 185000 265000
2020-05-17 14:30 18.72 144000 279000 (1990) 36300 (1989) 102000 40600 43200 47900 52500 82500 127000 140000 185000 265000
2020-05-17 13:30 18.71 144000 279000 (1990) 36300 (1989) 102000 40600 43200 47900 52500 82500 127000 140000 185000 265000
2020-05-17 12:30 18.67 144000 279000 (1990) 36300 (1989) 102000 40600 43200 47900 52500 82500 127000 140000 185000 265000
2020-05-17 11:30 18.67 144000 279000 (1990) 36300 (1989) 102000 40600 43200 47900 52500 82500 127000 140000 185000 265000
2020-05-17 10:30 18.64 143000 279000 (1990) 36300 (1989) 102000 40600 43200 47900 52500 82500 127000 140000 185000 265000
2020-05-17 09:30 18.69 144000 279000 (1990) 36300 (1989) 102000 40600 43200 47900 52500 82500 127000 140000 185000 265000
2020-05-17 08:30 18.71 144000 279000 (1990) 36300 (1989) 102000 40600 43200 47900 52500 82500 127000 140000 185000 265000
2020-05-17 07:30 18.71 144000 279000 (1990) 36300 (1989) 102000 40600 43200 47900 52500 82500 127000 140000 185000 265000
2020-05-17 06:30 18.71 144000 279000 (1990) 36300 (1989) 102000 40600 43200 47900 52500 82500 127000 140000 185000 265000
2020-05-17 05:30 18.75 145000 279000 (1990) 36300 (1989) 102000 40600 43200 47900 52500 82500 127000 140000 185000 265000
2020-05-17 04:30 18.77 145000 279000 (1990) 36300 (1989) 102000 40600 43200 47900 52500 82500 127000 140000 185000 265000
2020-05-17 03:30 18.80 145000 279000 (1990) 36300 (1989) 102000 40600 43200 47900 52500 82500 127000 140000 185000 265000
2020-05-17 02:30 18.81 145000 279000 (1990) 36300 (1989) 102000 40600 43200 47900 52500 82500 127000 140000 185000 265000
2020-05-17 01:30 18.86 146000 279000 (1990) 36300 (1989) 102000 40600 43200 47900 52500 82500 127000 140000 185000 265000
2020-05-17 00:30 18.87 146000 279000 (1990) 36300 (1989) 102000 40600 43200 47900 52500 82500 127000 140000 185000 265000
2020-05-16 23:30 18.90 147000 287000 (2010) 36100 (1989) 102000 41300 44100 48500 53200 83000 138000 147000 186000 232000
2020-05-16 22:30 18.91 147000 287000 (2010) 36100 (1989) 102000 41300 44100 48500 53200 83000 138000 147000 186000 232000
2020-05-16 21:30 18.93 147000 287000 (2010) 36100 (1989) 102000 41300 44100 48500 53200 83000 138000 147000 186000 232000
2020-05-16 20:30 18.96 147000 287000 (2010) 36100 (1989) 102000 41300 44100 48500 53200 83000 138000 147000 186000 232000
2020-05-16 19:30 18.92 147000 287000 (2010) 36100 (1989) 102000 41300 44100 48500 53200 83000 138000 147000 186000 232000
2020-05-16 18:30 18.97 147000 287000 (2010) 36100 (1989) 102000 41300 44100 48500 53200 83000 138000 147000 186000 232000
2020-05-16 17:30 18.98 148000 287000 (2010) 36100 (1989) 102000 41300 44100 48500 53200 83000 138000 147000 186000 232000
2020-05-16 16:30 18.94 147000 287000 (2010) 36100 (1989) 102000 41300 44100 48500 53200 83000 138000 147000 186000 232000
2020-05-16 15:30 18.97 147000 287000 (2010) 36100 (1989) 102000 41300 44100 48500 53200 83000 138000 147000 186000 232000
2020-05-16 14:30 18.93 147000 287000 (2010) 36100 (1989) 102000 41300 44100 48500 53200 83000 138000 147000 186000 232000
2020-05-16 13:30 18.93 147000 287000 (2010) 36100 (1989) 102000 41300 44100 48500 53200 83000 138000 147000 186000 232000
2020-05-16 12:30 18.89 146000 287000 (2010) 36100 (1989) 102000 41300 44100 48500 53200 83000 138000 147000 186000 232000
2020-05-16 11:30 18.83 146000 287000 (2010) 36100 (1989) 102000 41300 44100 48500 53200 83000 138000 147000 186000 232000
2020-05-16 10:30 18.74 144000 287000 (2010) 36100 (1989) 102000 41300 44100 48500 53200 83000 138000 147000 186000 232000
2020-05-16 09:30 18.67 144000 287000 (2010) 36100 (1989) 102000 41300 44100 48500 53200 83000 138000 147000 186000 232000
2020-05-16 08:30 18.51 142000 287000 (2010) 36100 (1989) 102000 41300 44100 48500 53200 83000 138000 147000 186000 232000
2020-05-16 07:30 18.38 140000 287000 (2010) 36100 (1989) 102000 41300 44100 48500 53200 8